[[{"header":{"parameterUnit":"m.s-1","parameterCategory":1,"la1":30.6,"la2":29.2853,"lo1":-89.7004,"lo2":-87.6739,"dy":0.0162,"dx":0.0183,"nx":112,"ny":82,"refTime":"2023-11-01T06:00:00:Z","depth":0,"parameterNumber":2,"parameterNumberName":"U-component_of_WINDS"},"data":[0.0,0.0,0.0,0.0,0.0,0.0,0.0,0.0,0.0,0.0,0.0,0.0,0.0,0.0,0.0,0.0,0.0,0.0,0.0,0.0,0.0,0.0,0.0,0.0,0.0,0.0,0.0,0.0,0.0,0.0,0.0,0.0,0.0,0.0,0.0,0.0,0.0,0.0,0.0,0.0,0.0,0.0,0.0,0.0,0.0,0.0,0.0,0.0,0.0,0.0,0.0,0.0,0.0,0.0,0.0,0.0,0.0,0.0,0.0,0.0,0.0,0.0,0.0,0.0,0.0,0.0,0.0,0.0,0.0,0.0,0.0,0.0,0.0,0.0,0.0,0.0,0.0,0.0,0.0,0.0,0.0,0.0,0.0,0.0,0.0,0.0,0.0,0.0,0.0,0.0,11.2687,11.948,12.8,13.257,13.1179,12.8028,12.4873,12.2183,0.0,0.0,0.0,0.0,0.0,0.0,0.0,0.0,0.0,0.0,0.0,0.0,0.0,0.0,0.0,0.0,0.0,0.0,0.0,0.0,0.0,0.0,0.0,0.0,0.0,0.0,0.0,0.0,0.0,0.0,0.0,0.0,0.0,0.0,0.0,0.0,0.0,0.0,0.0,0.0,0.0,0.0,0.0,0.0,0.0,0.0,0.0,0.0,0.0,0.0,0.0,0.0,0.0,0.0,0.0,0.0,0.0,0.0,0.0,0.0,0.0,0.0,0.0,0.0,0.0,0.0,0.0,0.0,0.0,0.0,0.0,0.0,0.0,0.0,0.0,0.0,0.0,0.0,0.0,0.0,0.0,0.0,0.0,0.0,0.0,0.0,0.0,0.0,0.0,0.0,0.0,0.0,0.0,0.0,0.0,0.0,0.0,0.0,0.0,0.0,0.0,0.0,0.0,0.0,11.8977,12.6792,13.1481,13.4023,13.3715,12.7406,12.3482,12.3716,0.0,0.0,0.0,0.0,0.0,0.0,0.0,0.0,0.0,0.0,0.0,0.0,0.0,0.0,0.0,0.0,0.0,0.0,0.0,0.0,0.0,0.0,0.0,0.0,0.0,0.0,0.0,0.0,0.0,0.0,0.0,0.0,0.0,0.0,0.0,0.0,0.0,0.0,0.0,0.0,0.0,0.0,0.0,0.0,0.0,0.0,0.0,0.0,0.0,0.0,0.0,0.0,0.0,0.0,0.0,0.0,0.0,0.0,0.0,0.0,0.0,0.0,0.0,0.0,0.0,0.0,0.0,0.0,0.0,0.0,0.0,0.0,0.0,0.0,0.0,0.0,0.0,0.0,0.0,0.0,0.0,0.0,0.0,0.0,0.0,0.0,0.0,0.0,0.0,0.0,0.0,0.0,0.0,0.0,0.0,0.0,0.0,0.0,0.0,0.0,0.0,0.0,0.0,11.7866,12.2284,13.0376,13.3487,13.4792,13.4327,12.8563,12.4716,12.4095,11.8872,0.0,0.0,0.0,0.0,0.0,0.0,0.0,0.0,0.0,0.0,0.0,0.0,0.0,0.0,0.0,0.0,0.0,0.0,0.0,0.0,0.0,0.0,0.0,0.0,0.0,0.0,0.0,0.0,0.0,0.0,0.0,0.0,0.0,0.0,0.0,0.0,0.0,0.0,0.0,0.0,0.0,0.0,0.0,0.0,0.0,0.0,0.0,0.0,0.0,0.0,0.0,0.0,0.0,0.0,0.0,0.0,0.0,0.0,0.0,0.0,0.0,0.0,0.0,0.0,0.0,0.0,0.0,0.0,0.0,0.0,0.0,0.0,0.0,0.0,0.0,0.0,0.0,0.0,0.0,0.0,0.0,0.0,0.0,0.0,0.0,0.0,0.0,0.0,0.0,0.0,0.0,0.0,0.0,0.0,0.0,0.0,0.0,0.0,0.0,0.0,0.0,0.0,12.1689,12.5799,13.3632,13.5491,13.5795,13.5026,12.949,12.5489,12.4175,11.8023,0.0,0.0,0.0,0.0,0.0,0.0,0.0,0.0,0.0,0.0,0.0,0.0,0.0,0.0,0.0,0.0,0.0,0.0,0.0,0.0,0.0,0.0,0.0,0.0,0.0,0.0,0.0,0.0,0.0,0.0,0.0,0.0,0.0,0.0,0.0,0.0,0.0,0.0,0.0,0.0,0.0,0.0,0.0,0.0,0.0,0.0,0.0,0.0,0.0,0.0,0.0,0.0,0.0,0.0,0.0,0.0,0.0,0.0,0.0,0.0,0.0,0.0,0.0,0.0,0.0,0.0,0.0,0.0,0.0,0.0,0.0,0.0,0.0,0.0,0.0,0.0,0.0,0.0,0.0,0.0,0.0,0.0,0.0,0.0,0.0,0.0,0.0,0.0,0.0,0.0,0.0,0.0,0.0,0.0,0.0,0.0,0.0,0.0,0.0,0.0,0.0,0.0,12.7101,13.1474,13.8087,13.8338,13.7572,13.6722,12.9025,12.4175,12.4098,11.6325,0.0,0.0,0.0,0.0,0.0,0.0,0.0,0.0,0.0,0.0,0.0,0.0,0.0,0.0,0.0,0.0,0.0,0.0,0.0,0.0,0.0,0.0,0.0,0.0,0.0,0.0,0.0,0.0,0.0,0.0,0.0,0.0,0.0,0.0,0.0,0.0,0.0,0.0,0.0,0.0,0.0,0.0,0.0,0.0,0.0,0.0,0.0,0.0,0.0,0.0,0.0,0.0,0.0,0.0,0.0,0.0,0.0,0.0,0.0,0.0,0.0,0.0,0.0,0.0,0.0,0.0,0.0,0.0,0.0,0.0,0.0,0.0,0.0,0.0,0.0,0.0,0.0,0.0,0.0,0.0,0.0,0.0,0.0,0.0,0.0,0.0,0.0,0.0,0.0,0.0,0.0,0.0,0.0,0.0,0.0,0.0,0.0,0.0,0.0,0.0,0.0,0.0,13.0078,13.4532,0.0,13.9796,13.8876,13.703,13.0028,12.5335,12.4175,0.0,0.0,0.0,0.0,0.0,0.0,0.0,0.0,0.0,0.0,0.0,0.0,0.0,0.0,0.0,0.0,0.0,0.0,0.0,0.0,0.0,0.0,0.0,0.0,0.0,0.0,0.0,0.0,0.0,0.0,0.0,0.0,0.0,0.0,0.0,0.0,0.0,0.0,0.0,0.0,0.0,0.0,0.0,0.0,0.0,0.0,0.0,0.0,0.0,0.0,0.0,0.0,0.0,0.0,0.0,0.0,0.0,0.0,0.0,0.0,0.0,0.0,0.0,0.0,0.0,0.0,0.0,0.0,0.0,0.0,0.0,0.0,0.0,0.0,0.0,0.0,0.0,0.0,0.0,0.0,0.0,0.0,0.0,0.0,0.0,0.0,0.0,0.0,0.0,0.0,0.0,0.0,0.0,0.0,0.0,0.0,0.0,0.0,0.0,0.0,0.0,0.0,12.7117,13.2397,13.7103,0.0,14.1566,14.0412,13.7796,13.0413,12.5412,12.4175,0.0,0.0,0.0,0.0,0.0,0.0,0.0,0.0,0.0,0.0,0.0,0.0,0.0,0.0,0.0,0.0,0.0,0.0,0.0,0.0,0.0,0.0,0.0,0.0,0.0,0.0,0.0,0.0,0.0,0.0,0.0,0.0,0.0,0.0,0.0,0.0,0.0,0.0,0.0,0.0,0.0,0.0,0.0,0.0,0.0,0.0,0.0,0.0,0.0,0.0,0.0,0.0,0.0,0.0,0.0,0.0,0.0,0.0,0.0,0.0,0.0,0.0,0.0,0.0,0.0,0.0,0.0,0.0,0.0,0.0,0.0,0.0,0.0,0.0,0.0,0.0,0.0,0.0,0.0,0.0,0.0,0.0,0.0,0.0,0.0,0.0,0.0,0.0,0.0,0.0,0.0,0.0,0.0,0.0,0.0,0.0,0.0,0.0,0.0,0.0,0.0,0.0,12.8104,13.4316,13.9723,14.4024,14.3566,14.2108,13.9482,13.0022,12.4098,0.0,0.0,0.0,0.0,0.0,0.0,0.0,0.0,0.0,0.0,0.0,0.0,0.0,0.0,0.0,0.0,0.0,0.0,0.0,0.0,0.0,0.0,0.0,0.0,0.0,0.0,0.0,0.0,0.0,0.0,0.0,0.0,0.0,0.0,0.0,0.0,0.0,0.0,0.0,0.0,0.0,0.0,0.0,0.0,0.0,0.0,0.0,0.0,0.0,0.0,0.0,0.0,0.0,0.0,0.0,0.0,0.0,0.0,0.0,0.0,0.0,0.0,0.0,0.0,0.0,0.0,0.0,0.0,0.0,0.0,0.0,0.0,0.0,0.0,0.0,0.0,0.0,0.0,0.0,0.0,0.0,0.0,0.0,0.0,0.0,0.0,0.0,0.0,0.0,0.0,0.0,0.0,0.0,0.0,0.0,0.0,0.0,0.0,0.0,0.0,0.0,0.0,0.0,12.9929,13.6027,14.1335,14.4871,14.4031,14.2108,13.9482,13.0484,12.4793,12.4095,0.0,0.0,0.0,0.0,0.0,0.0,0.0,0.0,0.0,0.0,0.0,0.0,0.0,0.0,0.0,0.0,0.0,0.0,0.0,0.0,0.0,0.0,0.0,0.0,0.0,0.0,0.0,0.0,0.0,0.0,0.0,0.0,0.0,0.0,0.0,0.0,0.0,0.0,0.0,0.0,0.0,0.0,0.0,0.0,0.0,0.0,0.0,0.0,0.0,0.0,0.0,0.0,0.0,0.0,0.0,0.0,0.0,0.0,0.0,0.0,0.0,0.0,0.0,0.0,0.0,0.0,0.0,0.0,0.0,0.0,0.0,0.0,0.0,0.0,0.0,0.0,0.0,0.0,0.0,0.0,0.0,0.0,0.0,0.0,0.0,0.0,0.0,0.0,0.0,0.0,0.0,0.0,0.0,0.0,0.0,0.0,0.0,0.0,0.0,0.0,0.0,0.0,13.0127,13.6198,14.1335,14.4336,14.3416,14.1569,13.9023,13.0875,12.5027,12.2716,0.0,0.0,0.0,0.0,0.0,0.0,0.0,0.0,0.0,0.0,0.0,0.0,0.0,0.0,0.0,0.0,0.0,0.0,0.0,0.0,0.0,0.0,0.0,0.0,0.0,0.0,0.0,0.0,0.0,0.0,0.0,0.0,0.0,0.0,0.0,0.0,0.0,0.0,0.0,0.0,0.0,0.0,0.0,0.0,0.0,0.0,0.0,0.0,0.0,0.0,0.0,0.0,0.0,0.0,0.0,0.0,0.0,0.0,0.0,0.0,0.0,0.0,0.0,0.0,0.0,0.0,0.0,0.0,0.0,0.0,0.0,0.0,0.0,0.0,0.0,0.0,0.0,0.0,0.0,0.0,0.0,0.0,0.0,0.0,0.0,0.0,0.0,0.0,0.0,0.0,0.0,0.0,0.0,0.0,0.0,0.0,0.0,0.0,0.0,0.0,0.0,0.0,12.9216,13.5128,14.0101,14.28,14.2262,14.08,13.8264,13.1112,12.4876,12.0719,0.0,0.0,0.0,0.0,0.0,0.0,0.0,0.0,0.0,0.0,0.0,0.0,0.0,0.0,0.0,0.0,0.0,0.0,0.0,0.0,0.0,0.0,0.0,0.0,0.0,0.0,0.0,0.0,0.0,0.0,0.0,0.0,0.0,0.0,0.0,0.0,0.0,0.0,0.0,0.0,0.0,0.0,0.0,0.0,0.0,0.0,0.0,0.0,0.0,0.0,0.0,0.0,0.0,0.0,0.0,0.0,0.0,0.0,0.0,0.0,9.9478,0.0,0.0,0.0,0.0,0.0,0.0,0.0,0.0,0.0,0.0,0.0,0.0,0.0,0.0,0.0,0.0,0.0,0.0,0.0,0.0,0.0,0.0,0.0,0.0,0.0,0.0,0.0,0.0,0.0,0.0,0.0,0.0,0.0,0.0,0.0,0.0,0.0,0.0,0.0,0.0,0.0,12.919,13.4134,13.8799,14.2727,14.18,14.0104,13.8267,13.1112,12.5187,12.1568,11.5792,0.0,0.0,0.0,0.0,0.0,0.0,0.0,0.0,0.0,0.0,0.0,0.0,0.0,0.0,0.0,0.0,0.0,0.0,0.0,0.0,0.0,0.0,0.0,0.0,0.0,0.0,0.0,0.0,0.0,0.0,0.0,0.0,0.0,0.0,0.0,0.0,0.0,0.0,0.0,0.0,0.0,0.0,0.0,0.0,0.0,0.0,0.0,0.0,0.0,0.0,0.0,0.0,0.0,0.0,0.0,0.0,0.0,0.0,0.0,0.0,10.1637,0.0,0.0,0.0,0.0,0.0,0.0,0.0,0.0,0.0,0.0,0.0,0.0,0.0,0.0,0.0,0.0,0.0,0.0,0.0,0.0,0.0,0.0,0.0,0.0,0.0,0.0,0.0,0.0,0.0,0.0,0.0,0.0,0.0,0.0,0.0,0.0,0.0,0.0,0.0,0.0,12.8427,13.3077,13.7488,14.0873,14.0485,13.9335,13.7572,13.1567,12.5873,12.1337,11.6179,0.0,0.0,0.0,0.0,0.0,0.0,0.0,0.0,0.0,0.0,0.0,0.0,0.0,0.0,0.0,0.0,0.0,0.0,0.0,0.0,0.0,0.0,0.0,0.0,0.0,0.0,0.0,0.0,0.0,0.0,0.0,0.0,0.0,0.0,0.0,0.0,0.0,0.0,0.0,0.0,0.0,0.0,0.0,0.0,0.0,0.0,0.0,0.0,0.0,0.0,0.0,0.0,0.0,10.8634,11.0096,11.2865,11.1793,11.1411,11.1332,10.8026,10.4487,10.1409,10.4025,0.0,0.0,0.0,0.0,0.0,0.0,0.0,0.0,0.0,0.0,0.0,0.0,0.0,0.0,0.0,0.0,0.0,0.0,0.0,0.0,0.0,0.0,0.0,0.0,11.0486,11.0488,0.0,0.0,0.0,0.0,0.0,0.0,0.0,0.0,0.0,0.0,0.0,0.0,12.7169,13.2176,13.6485,13.902,13.9328,13.8562,13.6873,13.241,12.7101,12.11,11.7333,11.3563,0.0,0.0,0.0,0.0,0.0,0.0,0.0,0.0,0.0,0.0,0.0,0.0,0.0,0.0,0.0,0.0,0.0,0.0,0.0,0.0,0.0,0.0,0.0,0.0,0.0,0.0,0.0,0.0,0.0,0.0,0.0,0.0,9.0244,8.978,0.0,0.0,0.0,0.0,0.0,0.0,0.0,0.0,0.0,0.0,0.0,0.0,0.0,10.7092,11.0324,11.0321,11.0862,11.2016,11.2016,11.2711,11.3868,11.5105,11.6102,11.6786,11.702,0.0,10.5477,10.5177,0.0,0.0,0.0,0.0,0.0,0.0,0.0,0.0,0.0,0.0,0.0,0.0,0.0,0.0,0.0,0.0,0.0,0.0,0.0,0.0,0.0,0.0,10.8172,11.0708,11.1865,11.2481,0.0,11.2865,11.2786,11.3791,11.2709,0.0,0.0,0.0,0.0,0.0,0.0,0.0,12.5634,13.1407,13.6485,13.902,13.9328,13.8562,13.6873,13.3494,12.8794,12.2864,11.8026,11.4409,11.2327,11.0791,0.0,0.0,0.0,0.0,0.0,0.0,0.0,0.0,0.0,0.0,0.0,0.0,0.0,0.0,0.0,0.0,0.0,0.0,0.0,0.0,0.0,0.0,0.0,0.0,0.0,0.0,0.0,0.0,0.0,9.3482,9.5711,9.4321,9.8634,10.1484,0.0,0.0,0.0,0.0,0.0,0.0,0.0,0.0,0.0,10.8095,10.9324,11.0708,11.217,11.3096,11.4481,11.6327,11.6792,11.8177,12.0408,12.118,12.2177,12.3479,12.3411,12.0716,11.6017,11.1791,10.9024,10.71,0.0,0.0,0.0,0.0,10.8021,10.9101,10.9101,10.9331,0.0,11.0103,0.0,0.0,0.0,0.0,0.0,0.0,0.0,0.0,0.0,0.0,11.3101,11.4712,11.6017,11.7023,11.6869,11.6173,11.5404,0.0,11.3712,11.3404,11.5102,0.0,0.0,0.0,0.0,12.4388,12.648,13.233,13.7026,13.9097,13.9713,13.9412,13.7726,13.4795,13.0794,12.5412,12.0334,11.6176,11.3481,11.2329,11.2327,0.0,0.0,0.0,0.0,0.0,0.0,0.0,0.0,0.0,0.0,0.0,0.0,0.0,0.0,0.0,0.0,0.0,0.0,0.0,0.0,0.0,0.0,0.0,0.0,0.0,0.0,0.0,0.0,9.7026,9.9488,9.7711,10.1484,10.4025,0.0,0.0,0.0,0.0,0.0,0.0,10.6792,10.8095,11.0016,11.3016,11.3863,11.4709,11.5632,11.733,11.9487,12.2024,12.3104,12.5181,12.8336,12.8336,12.9102,13.0484,12.9413,12.7794,12.5483,11.8484,11.3868,11.1021,10.9324,10.8788,10.9095,10.9713,11.1024,11.2409,11.2178,11.2332,11.2409,11.2027,0.0,10.9406,10.979,0.0,0.0,0.0,0.0,11.1409,11.3712,11.6102,11.8028,11.8866,12.01,12.0793,12.0177,11.9174,11.7869,0.0,11.4871,11.4717,11.6031,0.0,0.0,0.0,0.0,12.4713,12.7785,13.341,13.7722,13.9097,14.0101,13.9873,13.8187,13.603,13.2487,12.7566,12.3027,11.8792,11.5096,11.3865,11.3327,11.3016,0.0,0.0,0.0,0.0,0.0,0.0,0.0,0.0,0.0,0.0,0.0,0.0,0.0,0.0,0.0,0.0,0.0,0.0,0.0,0.0,0.0,0.0,0.0,0.0,0.0,0.0,0.0,0.0,0.0,9.7711,10.2025,0.0,0.0,0.0,0.0,10.5938,10.7477,10.948,11.2173,11.3868,11.5717,11.7402,11.8328,12.0331,12.3482,12.5335,12.7415,12.9871,13.157,13.3725,13.6183,13.6183,13.6722,13.7495,13.5799,13.3564,13.0721,12.3104,11.8866,11.7174,11.5487,11.5335,11.6028,11.6028,11.7182,11.8484,11.7712,11.8023,11.8407,11.672,11.5025,11.3483,11.2709,11.3099,0.0,0.0,11.5489,11.649,11.8331,12.0106,12.1568,12.2402,12.271,12.279,12.271,12.1408,11.9411,0.0,11.5797,11.5335,11.5333,0.0,11.5794,11.7481,12.2024,12.6178,12.8791,13.4337,13.8418,13.9174,14.0101,13.9873,13.8187,13.6491,13.3561,12.933,12.579,12.2021,11.7786,11.6022,11.4794,11.4025,11.3868,0.0,0.0,0.0,0.0,0.0,0.0,0.0,0.0,0.0,0.0,0.0,0.0,0.0,0.0,0.0,0.0,0.0,0.0,0.0,0.0,0.0,0.0,0.0,0.0,0.0,0.0,0.0,0.0,10.7012,11.0301,0.0,10.8772,10.6608,10.6785,11.017,11.0021,11.2024,11.733,11.7569,11.9815,12.4716,12.5819,12.7322,12.94,13.1919,13.3634,13.4278,13.5571,13.7572,14.0107,14.0107,14.0492,14.1265,14.0107,13.8488,13.6334,13.1872,12.6483,12.0867,11.8638,11.7872,11.8179,11.8798,12.0023,12.1636,12.179,12.2405,12.2719,11.9872,11.7792,11.6327,11.541,11.5794,11.6635,11.7487,11.8718,12.0183,12.187,12.3565,12.503,12.5335,12.5332,12.5181,12.4636,12.4024,12.3101,12.1719,11.9792,11.8413,11.7792,11.7715,11.8333,12.0026,12.3722,12.7489,13.1185,13.5876,13.9408,14.0796,14.1338,14.0719,13.9023,13.6796,13.3715,12.9483,12.5483,12.1864,11.8792,11.5869,11.4563,11.4794,11.2717,11.2332,0.0,0.0,0.0,0.0,0.0,0.0,0.0,0.0,0.0,0.0,0.0,0.0,0.0,0.0,0.0,0.0,0.0,0.0,0.0,0.0,0.0,0.0,0.0,0.0,0.0,10.889,11.2171,11.4434,11.6364,11.6701,11.4031,11.1612,11.1714,11.5019,11.4413,11.6807,12.3336,12.3228,12.5173,13.0235,13.1873,13.2967,13.3522,13.6462,13.7892,13.7991,13.9376,14.1234,14.3401,14.3524,14.3807,14.4179,14.3531,14.2028,13.9867,13.83,13.3875,12.7717,12.4332,12.2793,12.2562,12.3408,12.4636,12.5867,12.6178,12.6101,12.5412,12.2485,12.079,11.9789,11.8869,11.9331,12.0097,12.1023,12.218,12.3565,12.5021,12.6717,12.8031,12.8031,12.8031,12.7797,12.7178,12.672,12.6101,12.5483,12.3562,12.1796,12.0867,12.0793,12.1485,12.3411,12.6184,12.9413,13.3337,13.7023,13.987,14.1335,14.1723,14.1108,13.9104,13.6565,13.333,12.9019,12.448,12.102,11.8792,11.5869,11.4563,11.4874,11.1796,11.1335,11.3566,0.0,0.0,0.0,0.0,0.0,0.0,0.0,0.0,0.0,0.0,0.0,0.0,0.0,0.0,0.0,0.0,0.0,0.0,0.0,0.0,0.0,0.0,0.0,10.652,11.2271,11.7131,11.8803,11.9793,11.9336,11.691,11.6008,11.6969,12.0376,12.1199,12.4165,12.9982,13.0897,13.2025,13.3687,13.6301,13.7226,13.6211,13.8897,14.0477,14.1121,14.3082,14.4929,14.6476,14.693,14.6772,14.6417,14.5994,14.4207,14.1482,14.1823,14.0472,13.7806,13.2721,13.0179,12.9483,13.041,13.1182,13.1721,13.0875,12.9028,12.6569,12.487,12.4329,12.4098,12.3329,12.3636,12.4406,12.5335,12.6104,12.7028,12.7788,12.933,13.0487,13.0487,13.049,13.049,13.049,12.9176,12.8019,12.8019,12.6714,12.5332,12.4329,12.4175,12.5098,12.7634,12.9406,0.0,13.5103,13.7716,13.9639,14.0489,14.1335,14.08,13.8264,13.5719,13.2407,12.8095,12.3021,11.9408,11.7709,11.6022,11.4717,11.3868,11.1486,11.0334,11.0178,0.0,0.0,0.0,0.0,0.0,0.0,0.0,0.0,0.0,0.0,0.0,0.0,0.0,0.0,0.0,0.0,0.0,0.0,0.0,0.0,0.0,10.7111,11.0871,11.3231,11.7723,12.1781,12.4371,12.5634,12.5716,12.4467,12.3589,12.4309,12.7191,12.8518,13.0701,13.4165,13.5017,13.6387,13.8871,13.9502,13.9898,14.0298,14.1762,14.2786,14.3397,14.4962,14.6772,14.8774,14.909,14.8783,14.7801,14.7717,14.6278,14.4125,14.3615,14.272,14.1261,13.7495,13.5494,13.4718,13.5029,13.4795,13.4411,13.418,13.2875,13.1035,12.9336,12.8332,12.7483,12.6104,12.6178,12.7015,12.7868,12.8797,12.9567,13.041,13.1025,13.1413,13.1413,13.0875,13.049,13.049,13.0102,12.9794,12.9794,12.9874,12.9105,12.6412,12.7025,12.8019,12.8711,13.0333,0.0,13.5103,13.6719,13.8334,14.0412,14.0178,13.9488,13.8187,13.4106,12.9714,12.5403,12.0411,11.6487,11.4173,11.2483,11.1488,11.1178,11.2409,11.2409,0.0,0.0,0.0,0.0,0.0,0.0,0.0,0.0,0.0,0.0,0.0,0.0,0.0,0.0,0.0,0.0,0.0,0.0,0.0,0.0,0.0,0.0,11.2737,11.8471,12.2428,12.4036,12.6176,12.9692,13.0884,13.1225,13.0431,13.0272,13.099,13.2885,13.3789,13.5124,13.7268,13.7999,13.9295,14.1435,14.1933,14.2225,14.2367,14.3966,14.4703,14.4573,14.6632,14.8201,14.952,15.0202,14.9734,14.8273,14.8699,14.7773,14.6035,14.5615,14.5191,0.0,0.0,0.0,0.0,0.0,13.7334,13.6568,13.6568,13.5491,13.3798,13.2487,13.1715,13.1102,12.972,12.9871,13.0634,13.0798,13.1182,13.1724,13.2109,13.2186,13.2336,13.2718,13.2183,13.149,13.149,13.1262,13.1028,13.1028,13.1724,0.0,12.9727,13.0105,13.0721,13.0333,13.2025,13.3718,13.4872,13.6719,13.8411,13.987,14.0331,13.9565,13.7726,13.3183,0.0,0.0,0.0,11.3791,11.1173,11.0868,0.0,0.0,0.0,11.2327,11.1021,0.0,0.0,0.0,10.8329,10.8098,0.0,0.0,0.0,0.0,0.0,0.0,0.0,0.0,0.0,0.0,0.0,0.0,0.0,0.0,0.0,0.0,11.9316,12.6413,13.2198,13.111,13.0991,13.4589,13.5728,13.5776,13.518,13.593,13.6714,13.7538,13.7532,13.8026,13.9531,0.0,0.0,0.0,0.0,14.4379,14.3895,14.5922,14.6478,14.5593,14.8094,14.9336,14.9306,15.0403,14.9776,14.8093,14.8963,14.861,14.7232,14.7502,14.7481,14.6875,14.3493,14.18,14.1101,14.0178,13.9408,13.8803,13.8726,0.0,0.0,13.51,13.4792,13.4564,13.3725,13.3875,13.4334,13.3417,13.3112,13.3035,13.3035,13.3112,13.3337,13.41,13.3798,13.3186,13.3032,13.2493,13.2029,13.1875,13.257,13.3109,13.3109,13.3109,13.2878,13.2106,13.3872,13.51,13.4484,13.71,13.9097,13.9328,0.0,0.0,13.7107,13.2795,12.8179,12.3172,11.6478,11.1634,10.9098,11.0631,11.1478,11.1401,11.1398,11.1096,11.0332,10.9485,10.9098,10.9175,10.9793,10.9562,0.0,0.0,0.0,0.0,0.0,0.0,0.0,0.0,0.0,0.0,0.0,0.0,0.0,0.0,0.0,11.9274,12.5511,13.141,13.7135,13.8385,13.8865,13.9133,13.8698,13.8599,13.943,13.8808,13.877,13.9791,14.0322,14.0672,14.0973,14.3004,14.4577,14.5783,14.6477,14.7524,14.8973,14.8513,14.8506,14.8993,0.0,0.0,14.9827,15.0302,14.9811,14.8532,14.8079,14.7427,14.6826,14.7189,14.7964,14.8717,14.5175,14.4178,14.4563,14.3713,14.3328,14.3105,14.2416,14.1031,13.9488,13.8635,13.7873,13.7187,13.6337,13.5719,0.0,13.4334,13.3491,13.3035,13.3035,13.3491,13.4103,13.4334,13.4718,13.4564,13.3263,13.3414,13.3564,13.2878,13.3494,13.4023,13.4023,13.4023,13.4026,13.3792,13.4177,13.4715,13.5177,13.6411,13.7796,13.9177,13.9636,13.9023,13.703,13.2333,12.756,12.3172,11.6478,11.1865,11.0024,11.0862,11.1173,11.0488,11.1093,11.1401,11.117,11.0409,11.0332,11.1016,10.9713,10.9101,0.0,0.0,0.0,0.0,0.0,0.0,0.0,0.0,0.0,0.0,0.0,10.4405,10.8175,0.0,12.0608,12.5408,13.133,13.6802,14.1084,14.2875,14.3383,14.2128,14.1614,14.1599,14.2122,14.173,14.1834,14.2714,14.3389,14.381,14.381,14.5271,14.6783,14.7986,14.7974,14.8796,15.0369,15.0085,15.0138,15.0512,15.1126,15.1311,15.1122,15.0919,15.0183,14.9264,14.8368,14.7815,14.7287,14.722,14.7394,14.7566,14.5875,14.5904,14.6798,14.5486,14.5101,14.4871,14.4105,14.2874,14.172,14.0873,14.0027,13.9184,13.8334,13.7491,13.6568,13.5795,13.4872,13.4414,13.4802,13.5183,13.5719,13.6106,13.6183,13.5795,13.4491,13.4334,13.4334,13.4337,13.5029,13.5568,13.5568,13.5872,13.5799,13.4484,13.5026,13.5488,13.5488,13.7026,13.8411,13.9174,14.0101,13.9565,13.703,13.1025,12.5486,12.1328,11.7023,11.3717,11.148,11.2327,11.2327,11.1486,11.1865,11.2093,11.2093,11.1329,11.1096,11.1475,11.0631,11.0172,0.0,0.0,0.0,0.0,0.0,0.0,0.0,10.0673,10.2132,10.4193,10.6537,10.9565,11.3973,12.0928,12.7126,13.0713,13.6595,14.1705,14.4709,14.6267,14.6687,14.5373,14.4778,14.4485,14.4485,14.4485,14.4778,14.5425,14.6093,14.6379,14.6379,14.7414,14.8264,14.9137,14.93,14.9914,15.1001,15.1469,15.1892,15.1966,15.2707,15.2928,15.2707,15.1826,15.1019,15.0292,14.9036,14.8272,14.7976,14.743,14.6913,14.6511,14.6511,14.7214,14.8099,14.64,14.5863,14.5883,14.5124,14.4177,14.3365,14.2829,14.2024,14.1178,14.0331,13.9488,13.8572,13.7568,13.6722,13.6183,13.6879,13.7184,13.7414,13.8037,13.7726,13.703,13.5795,13.51,13.5026,13.5561,13.6491,13.7107,13.7337,13.7876,13.7491,13.51,13.5872,13.6488,13.5795,13.7789,13.9328,13.9328,14.0873,14.0415,13.6565,13.0179,12.4565,12.0331,11.8564,11.6564,11.4017,11.433,11.4102,11.3173,11.3016,11.2865,11.2709,11.2014,11.1708,11.1475,11.1708,11.1629,10.2593,10.1534,9.9394,9.786,9.7648,9.793,0.0,10.0607,10.3135,10.6424,10.8705,11.1768,11.6885,12.3094,12.942,13.4976,14.0726,14.5262,14.7831,14.9573,15.0497,15.0277,14.8288,14.7032,14.7032,14.7032,14.7032,14.7098,14.7179,14.7333,14.7333,14.8816,14.9419,14.8771,15.0815,15.2276,15.3088,15.3885,15.4697,15.5431,15.5505,15.513,15.4396,15.2935,15.212,15.1907,14.8882,14.7674,14.79,14.7238,14.7375,14.8203,14.8203,14.8284,14.8279,14.6588,14.6427,14.7025,14.6426,14.557,14.502,14.5183,14.4717,14.379,14.2874,14.2108,14.1104,13.9485,13.8411,13.7802,13.7879,13.8492,13.8873,13.8184,13.8569,13.8408,13.6026,13.6026,13.6488,13.6568,13.7418,13.8187,13.887,13.9097,13.8562,13.6799,13.6722,13.6802,13.6722,13.8177,13.9328,13.9328,14.0873,13.9873,13.5023,13.1718,12.8102,12.379,12.2713,12.102,11.8484,11.7025,11.5797,11.5025,11.4176,11.3483,11.2709,11.2632,11.217,11.1475,11.217,11.217,10.2267,10.1078,10.009,10.0385,10.1528,10.3185,10.5368,10.7299,10.9315,11.1734,11.3791,11.7186,12.33,12.8916,13.4169,13.9218,14.3899,14.7666,14.9808,15.0718,15.0938,15.0512,14.911,14.8508,14.947,14.9616,14.9682,15.0196,15.071,15.0703,15.0277,15.0872,15.1393,15.1525,15.292,15.3882,15.4168,15.5489,15.6003,15.5872,15.6378,15.637,15.5996,15.4388,15.292,15.1533,14.9183,14.7997,14.761,14.6811,14.6505,14.6512,14.6512,14.6512,14.6482,14.6601,14.6883,14.72,14.7222,14.6871,14.6563,14.6536,14.6182,14.5563,14.4336,14.2874,14.18,14.1566,14.0569,13.9723,14.0188,14.0569,14.0489,13.9104,13.91,13.8712,13.6719,13.6488,13.7107,13.8104,13.8485,13.9104,13.987,14.0101,13.9639,13.8408,13.7876,13.7418,13.6879,13.8334,13.9716,14.0716,14.0107,13.8569,13.603,13.3029,13.0025,12.7175,12.5409,12.3405,12.1405,11.9177,11.7561,11.6792,11.541,11.4563,11.4176,11.3714,11.3327,11.3022,11.3327,11.3327,10.3265,10.2393,10.2509,10.3908,10.5891,10.8417,11.1713,11.3385,11.4932,11.7027,11.9178,12.2437,12.8116,13.2989,13.7488,14.1919,14.6082,14.9388,15.1227,15.1591,15.1231,14.9697,14.853,14.8295,14.9903,15.0718,15.1525,15.256,15.3434,15.3581,15.3001,15.3229,15.3515,15.3793,15.4821,15.5416,15.5416,15.673,15.717,15.6892,15.7472,15.7831,15.7684,15.5938,15.3735,15.1305,14.9697,14.8515,14.77,14.69,14.6093,14.5278,14.5278,14.5204,14.5094,14.6181,14.6572,14.6592,14.7032,14.7297,14.7463,14.7186,14.7309,14.7336,14.5563,14.4178,14.3262,14.3412,14.2566,14.1793,14.2412,14.2412,14.1877,14.0408,13.9789,13.9331,13.7796,13.7488,13.7873,13.9408,13.9716,13.9866,14.0796,14.1027,14.0716,14.0101,13.9338,13.8495,13.7565,13.8535,13.9872,14.1699,13.9621,13.7736,13.6936,13.4106,13.1564,12.9714,12.7181,12.5101,12.3636,12.0716,11.8792,11.8174,11.6487,11.5489,11.5335,11.472,11.4176,11.4022,11.4486,11.4717,10.7089,10.7082,10.7462,10.8321,10.9682,11.177,11.5114,11.6521,11.8083,12.1626,12.389,12.6336,12.9314,13.3378,13.7766,14.2163,14.682,15.0421,15.2027,15.2912,15.2333,14.911,14.6606,14.5711,14.7407,14.9682,15.1819,15.3272,15.4234,15.469,15.4608,15.5431,15.5416,15.4682,15.6224,15.7023,15.7023,15.7831,15.8565,15.9364,15.9364,15.9364,15.9291,15.6965,15.4469,15.2201,15.0593,14.9411,14.8596,14.7693,14.6893,14.6173,14.6173,14.5725,14.4991,14.5092,14.512,14.5106,14.5488,14.6331,14.7284,14.7601,14.8529,14.9102,14.7413,14.6798,14.6413,14.4794,14.4329,14.4329,14.4329,14.372,14.2881,14.2031,14.1181,14.0331,13.9405,13.9174,13.9482,14.0408,14.0566,14.0793,14.1723,14.188,14.188,14.18,14.1104,14.0178,13.9328,13.913,13.9788,14.1724,13.9432,13.7505,13.6893,13.518,13.3099,13.0564,12.8108,12.6261,12.5412,12.1331,11.91,11.9103,11.7413,11.6108,11.5335,11.5335,11.4794,11.4019,11.572,11.6413,11.0478,11.0713,11.1405,11.4333,11.7122,11.9773,12.2593,12.433,12.5201,12.5265,12.663,12.8279,13.0618,13.3606,13.7211,14.1894,14.6887,15.0482,15.138,15.3588,15.292,14.6981,14.6981,14.6606,14.4397,14.6893,15.0196,15.4021,15.4976,15.571,15.6297,15.6509,15.6811,15.7112,15.7618,15.7912,15.7912,15.8712,15.9013,15.872,15.9218,15.9226,15.8565,15.6826,15.5211,15.3809,15.1598,15.0211,14.9411,14.8589,14.7781,14.6966,14.6966,14.6812,14.6518,14.6019,14.5799,14.5875,14.6208,14.6604,14.71,14.8173,14.8783,14.8995,14.8023,14.7417,14.6798,14.6179,14.572,14.5336,14.5336,14.5025,14.4336,14.2416,14.1723,14.1104,13.9636,13.9328,13.9639,14.0408,14.1104,14.172,14.2573,14.3181,14.3566,14.3566,14.1874,14.0229,13.9233,13.9505,13.9973,14.0673,13.9891,13.8915,13.7816,13.6103,13.4337,13.2263,12.9179,12.7101,12.6338,12.2719,12.0491,11.9872,11.8795,11.8103,11.7795,11.7795,11.7718,11.7407,11.8026,11.8179,11.4684,11.5774,11.7469,12.0972,12.4335,12.7134,12.8693,12.9682,12.9804,12.8172,12.8501,12.9609,13.1584,13.39,13.6974,14.1612,14.6105,14.9587,15.1276,15.2267,15.1085,14.6372,14.6232,14.5586,14.331,14.5212,14.8728,15.3874,15.5277,15.6378,15.7472,15.7831,15.8198,15.872,15.8712,15.8712,15.8712,15.9218,15.9218,15.8712,15.9299,15.9218,15.872,15.7112,15.5864,15.4983,15.2634,15.1092,15.0292,14.9484,14.8589,14.7928,14.7928,14.748,14.6893,14.6386,14.6019,14.5789,14.6088,14.6688,14.7601,14.85,14.936,14.9867,14.903,14.8336,14.7583,14.6615,14.62,14.59,14.5236,14.5296,14.5112,14.2682,14.2297,14.1877,14.0485,14.0178,14.0489,14.1335,14.1723,14.2188,14.3034,14.3794,14.4391,14.4172,14.3129,14.1792,14.0478,14.0089,14.0067,14.0562,14.0008,13.9092,13.7712,13.6334,13.4722,13.2727,12.9637,12.748,12.6723,12.3414,12.1183,12.0334,11.9485,11.91,11.91,11.91,11.91,11.91,11.9408,11.9485,11.9786,12.2328,12.5527,12.8003,13.0896,13.3165,13.3092,13.272,13.1816,13.0116,12.9735,13.0338,13.2082,13.4205,13.6971,14.1,14.4608,14.8108,15.1725,14.9682,14.792,14.7627,14.4991,14.3376,14.3978,14.4925,14.7708,15.3125,15.4902,15.6525,15.8287,15.9079,15.9511,15.9511,15.9511,15.9511,15.9511,15.9511,15.9511,15.9511,15.9511,15.9511,15.943,15.7904,15.6737,15.5791,15.3368,15.19,15.1085,15.0211,14.9492,14.8824,14.8824,14.7796,14.6313,14.632,14.5806,14.5138,14.4984,14.6512,14.8336,14.8396,14.9899,15.1393,14.9817,14.929,14.8672,14.5936,14.5925,14.6174,14.4061,14.4561,14.5169,14.3208,14.2911,14.2877,14.2108,14.1877,14.2108,14.2877,14.2573,14.2339,14.3111,14.3916,14.4316,14.4005,14.4629,14.4508,14.2774,14.0802,13.9965,14.1194,13.9668,13.8089,13.6922,13.6003,13.4411,13.1875,12.9406,12.7714,12.68,12.3568,12.1414,12.0485,11.9715,11.9331,11.9408,11.9331,11.9331,11.9408,12.01,12.0485,12.7071,12.8871,13.0728,13.4426,13.6409,13.7129,13.5888,13.522,13.3878,13.0404,13.0183,13.0633,13.0692,13.2792,13.5702,13.9434,14.458,14.8677,15.0307,15.3368,15.4029,14.9778,0.0,15.0497,14.7715,14.9176,15.1525,15.4168,15.4234,15.5629,15.8997,15.9372,15.9511,15.9511,15.9511,15.9511,15.9511,15.9511,15.9511,15.9511,15.9511,15.9511,15.9519,15.8499,15.7626,15.6672,15.4234,15.27,15.19,15.0512,14.9785,14.9631,14.9631,14.897,14.8009,14.7326,14.6599,14.5799,14.5204,14.5415,14.6,14.6884,14.7578,14.8038,14.7066,14.6935,14.6497,14.4632,14.4216,14.4299,14.3671,14.4521,14.49,14.3131,14.3371,14.3717,14.2185,14.1877,14.2108,14.2877,14.4031,14.4797,14.5028,14.4997,14.5028,14.4864,14.4202,14.3009,14.1435,14.1169,14.0934,14.0006,13.9587,13.8929,13.748,13.6231,13.4722,13.2801,13.0875,12.9179,12.7714,12.6181,12.4722,12.3178,12.2328,12.2174,12.279,12.2174,12.2174,12.279,12.3021,12.3098,13.3516,13.5187,13.6776,14.008,14.0814,14.03,13.8971,13.7111,13.4799,13.1697,13.0895,13.0725,13.081,13.2573,13.5207,13.8676,14.2961,14.7201,15.0512,15.2788,15.3735,15.2722,15.3507,15.3287,15.1011,15.2626,15.4469,15.6231,15.5482,15.6436,15.9291,15.9805,16.0025,16.0025,16.0025,16.0025,16.0025,15.9666,15.9511,15.9511,15.9511,15.9511,15.9519,15.8271,15.7464,15.6876,0.0,15.27,15.2201,15.0593,14.9932,14.9932,14.9932,14.9191,14.8075,14.762,14.6673,14.5579,14.5212,14.4984,14.5161,14.6402,14.7094,14.7394,14.6709,14.6533,14.6204,14.4401,14.4328,14.433,14.2972,14.376,14.4564,14.2888,14.3403,14.3984,14.3186,14.3028,14.3105,14.3566,14.4489,14.5409,14.6105,14.5735,14.5364,14.5988,14.503,14.3472,14.1684,14.16,14.1085,13.9602,13.9998,13.9427,13.7314,13.6504,13.5183,13.3112,13.1413,12.9871,12.848,12.7332,12.6107,12.4716,12.3867,12.3636,12.4098,12.3636,12.3867,12.4716,12.4716,12.4716,13.9332,14.1167,14.3002,14.5131,14.4404,14.2789,14.1827,13.8384,13.4927,13.3018,13.1403,13.0529,13.1123,13.2591,13.4867,13.8084,14.11,14.4991,15.1092,15.0718,15.1386,15.5717,15.5122,15.4299,15.4373,15.5783,15.7333,15.8793,15.8426,15.8565,15.9813,16.0474,16.0767,16.0702,16.0702,16.062,16.0474,15.9805,15.9511,15.9511,15.9511,15.943,15.9291,15.7904,15.7097,15.6811,15.3882,15.2495,15.2201,15.0732,14.9998,14.9932,14.9932,14.889,14.7399,14.7399,14.6372,14.4984,14.4984,14.4984,14.5206,14.6186,14.7216,14.7883,14.7034,14.6721,14.6436,14.4585,14.4773,14.4878,14.227,14.3113,14.433,14.2597,14.3167,14.4205,14.4184,14.4412,14.4482,14.4406,14.4636,14.5178,14.649,14.5936,14.5532,14.6731,14.6008,14.4624,14.2738,14.1901,14.0974,13.9736,14.0285,13.969,13.6766,13.6679,13.5722,13.3189,13.1567,13.0413,12.9406,12.8028,12.68,12.587,12.5021,12.4713,12.479,12.4713,12.5101,12.5873,12.5873,12.5873,14.4485,14.6694,14.8523,14.889,14.7274,14.4991,14.2936,13.8825,13.448,13.1477,13.0229,12.9268,12.8767,13.0615,13.3178,13.6482,14.1321,14.5872,14.9778,15.3368,15.6224,15.77,15.8198,15.8704,15.9372,16.0269,16.1297,16.2317,16.2831,16.27,16.1509,16.1583,16.137,16.0694,16.0702,16.0408,15.9732,15.9593,15.9511,15.9511,15.9511,15.9233,15.8499,15.8206,15.7406,15.6011,15.4836,0.0,15.2193,15.1312,15.0505,14.9932,14.9932,14.889,14.7399,14.7399,14.6372,14.4984,14.4984,14.4984,14.502,14.5211,14.5404,14.5471,14.4586,14.4371,14.4169,14.3177,14.2979,14.3068,14.2475,14.3381,14.4033,14.228,14.3504,14.4622,14.3276,14.4337,14.5336,14.4482,14.5486,14.6332,14.6028,14.5332,14.4926,14.519,14.4584,14.3526,14.1782,14.2128,14.1786,14.0196,13.9986,13.9214,13.718,13.6862,13.5722,13.3189,13.2724,13.1878,13.0333,13.0028,12.941,12.8563,12.7711,12.7634,12.8329,12.7634,12.7711,12.8483,12.8483,12.8483,14.8082,15.0204,15.1826,15.1826,14.9323,14.6085,14.3222,13.8531,13.3686,13.0015,12.8907,12.8326,12.7091,12.922,13.2004,13.4787,13.9419,14.389,14.8001,15.2398,15.5775,15.7472,15.8793,16.0033,16.1216,16.2105,16.3124,16.4372,16.4813,16.4527,16.3287,16.2839,16.239,16.2023,16.1216,16.0694,16.0694,15.9878,15.9511,15.9511,15.9511,15.9079,15.8287,15.7912,15.7031,15.5791,15.4608,15.3434,15.2193,15.1378,15.0578,14.9932,14.9932,14.889,14.7399,14.7399,14.6372,14.4984,14.4984,14.4984,14.4984,14.4984,14.4984,14.4911,14.447,14.4404,14.4331,14.3971,14.381,14.3817,14.3303,14.3608,14.3934,14.3293,14.4808,14.6325,14.5671,14.5999,14.6179,14.5794,14.6413,14.6899,14.6774,14.6373,14.6009,14.5917,14.4968,14.3971,14.2789,14.2569,14.1835,13.9786,14.0094,13.9675,13.7995,13.8002,13.718,13.5109,13.4186,13.3106,13.1878,13.1032,13.0333,12.9871,12.9022,12.8788,12.9176,12.8788,12.9022,12.9871,12.9871,12.9871,15.0505,15.27,15.3867,15.3573,15.0563,14.6687,14.3007,13.7885,13.283,12.8779,12.7916,12.7321,12.6084,12.8233,13.09,13.3478,13.7324,14.1467,14.6012,15.0409,15.4095,15.6289,15.8271,16.018,16.2031,16.2986,16.4226,16.5988,16.5988,16.54,16.4536,16.3565,16.3124,16.2904,16.1509,16.0922,16.137,16.0099,15.9511,15.9511,15.9511,15.9079,15.8287,15.7472,15.6672,15.5799,15.4168,15.2986,15.2193,15.1378,15.0578,14.9932,14.9932,14.9036,14.77,14.7473,14.6526,14.5204,14.5138,14.4984,14.4984,14.4984,14.4984,14.4984,14.4984,14.4984,14.4984,14.4984,14.4984,14.4918,14.4184,14.4125,14.4201,14.479,14.6026,14.7283,14.8286,14.7567,14.7028,14.7105,14.7186,14.7239,14.7433,14.7327,14.7015,14.6592,14.5723,14.469,14.3904,14.3229,14.2135,13.9999,14.0709,14.0606,13.8926,13.939,13.9023,13.6876,13.5568,13.4337,13.3112,13.1721,13.0875,13.0798,13.0102,12.9714,12.9714,12.9714,13.0102,13.0798,13.0798,13.0798,15.1312,15.3882,15.5277,15.3874,15.1011,14.7193,14.2001,13.6904,13.227,12.8386,12.7112,12.6515,12.6379,12.7575,12.9691,13.2863,13.663,14.0293,14.3684,14.889,15.2993,15.4682,15.7603,16.0392,16.2823,16.3793,16.527,16.7619,16.7097,16.5988,16.4536,16.3565,16.2831,16.2023,16.1216,16.0408,15.9732,15.9593,15.9511,15.9511,15.9511,15.9079,15.8287,15.7472,15.6672,15.5799,15.4168,15.2986,0.0,15.1378,15.0578,14.9932,14.9932,14.9411,14.8523,14.77,14.6812,14.6019,14.5285,14.4984,14.4984,14.4984,14.4984,14.4984,14.4984,14.4984,14.4984,14.4984,14.4984,14.4984,14.4911,14.4918,14.5181,14.6633,14.5994,14.5902,14.8776,14.8106,14.7105,14.7878,14.8113,14.77,14.6737,14.6863,14.6783,14.5808,14.5333,14.469,14.3904,14.3677,14.331,14.2422,14.2208,14.1527,13.9826,14.0922,14.0338,13.703,13.6722,13.5494,13.3112,13.2881,13.2417,13.1567,13.149,13.149,13.149,13.149,13.149,13.1567,13.1567,13.1567,14.9705,15.2634,15.4315,15.3727,14.9661,14.4829,14.0136,13.4699,12.948,12.5461,12.482,12.4826,12.4303,12.5919,12.8128,13.0869,13.4092,13.7313,14.0027,14.3931,14.8009,15.2031,15.4527,15.7978,16.3426,16.4674,16.5694,16.717,16.7024,16.6069,16.4536,16.4087,16.3491,16.2684,16.1884,16.0995,16.018,15.9732,15.9511,15.9511,15.9511,15.9079,15.8287,15.7472,15.6672,15.5791,15.4682,15.3801,0.0,15.2193,15.1305,15.0578,15.0072,14.9411,14.8669,14.8295,14.7627,14.6893,14.6599,14.6372,14.6379,14.5872,14.6005,14.6379,14.5872,14.6093,14.6372,14.6372,14.6085,14.5725,14.5725,14.5432,14.5517,14.7469,14.7514,14.7525,14.9136,14.9329,14.8794,14.7567,14.8096,14.8135,14.6526,14.661,14.6578,14.5402,14.5067,14.4918,14.4624,14.4117,14.3684,14.339,14.2528,14.2027,14.1966,14.2165,14.1677,14.0003,13.9415,13.7873,13.5417,13.4802,13.4103,13.3333,13.3333,13.3333,13.3333,13.2721,13.2493,13.2493,13.1875,13.1721,14.6223,14.9074,15.0682,15.047,14.6637,14.1712,13.7216,13.2224,12.7524,12.3778,12.351,12.3727,12.3135,12.4597,12.6794,12.9385,13.2162,13.4875,13.7605,14.0302,14.3577,14.7825,14.9661,15.3581,16.1232,16.4601,16.6501,16.7097,16.6722,16.6069,16.5196,16.4682,16.3867,16.2831,16.2031,16.1224,16.0408,15.9813,15.9511,15.9511,15.9511,15.9079,15.8287,15.7472,15.6672,15.5791,15.4535,15.3801,0.0,15.2112,15.1386,15.1011,15.0219,14.9565,14.9036,14.8816,14.8295,14.7693,14.7473,14.7399,14.7326,14.6673,14.7113,14.77,14.712,14.6973,14.7032,14.7032,14.6533,14.5792,14.5792,14.5425,14.5487,14.7472,14.8102,14.8418,14.9504,15.001,14.9871,14.8333,14.8585,14.8401,14.6708,14.6572,14.6382,14.522,14.4984,14.4984,14.4984,14.4477,14.4198,14.4198,14.3083,14.2568,14.3004,14.331,14.3037,14.1804,14.1291,13.987,13.7565,13.6719,13.5872,13.5103,13.4792,13.4718,13.4718,13.3798,13.3417,13.3417,13.2798,13.249,14.0605,14.3108,14.4072,14.3329,14.1485,13.8369,13.3026,12.9834,12.7101,12.4102,12.3488,12.3488,12.3488,12.422,12.568,12.8702,13.1235,13.3877,13.7032,13.928,14.086,14.181,14.3112,14.7135,15.5211,16.3287,16.7986,16.7986,16.6501,16.5988,16.6722,16.527,16.3573,16.1966,16.1069,16.0327,15.9511,15.9511,15.9511,15.9511,15.9511,15.9079,15.8287,15.7472,15.6672,15.5799,15.3376,15.2781,0.0,15.0872,15.0365,15.1011,15.0219,14.9932,14.9785,14.8963,14.8669,14.8596,14.77,14.7399,14.7399,14.7399,14.7994,14.8669,14.8669,14.7487,14.6166,14.6166,14.5571,14.4984,14.4984,14.4984,14.5295,14.647,14.7007,14.7817,14.9827,14.9832,14.9714,15.0483,14.9815,14.863,14.7388,14.7028,14.6382,14.522,14.4984,14.4984,14.4984,14.4984,14.4984,14.4984,14.4279,14.3234,14.191,14.3931,14.4121,14.1622,14.1675,14.1104,13.9328,13.8492,13.7729,13.6799,13.5872,13.5488,13.5488,13.4718,13.433,13.433,13.433,13.4334,13.4225,13.6591,13.7925,13.8227,13.5777,13.2607,12.9804,12.6491,12.3766,12.2889,12.2231,12.2236,12.3276,12.3917,12.5118,12.8164,13.0185,13.231,13.4809,13.8292,14.2333,14.7105,15.4711,16.0702,16.3875,16.6518,16.7986,16.7986,16.7024,16.6281,16.5988,16.5465,16.4666,16.3573,16.2333,16.1069,16.0327,15.9813,15.9511,15.9511,15.9511,15.9079,15.8287,15.7985,15.7186,15.588,15.5138,15.4616,15.4168,15.2267,15.1973,15.2626,15.0578,15.0211,15.0578,14.9771,14.9484,14.9484,14.9183,14.911,14.9036,14.8523,14.8809,14.9337,14.8221,14.7928,14.7715,14.6533,14.6019,14.5725,14.5124,14.4984,14.5295,14.6525,14.7469,14.8281,14.9194,15.0287,15.0872,15.0102,14.9225,14.831,14.7406,14.6281,14.539,14.5137,14.4984,14.4984,14.4984,14.4984,14.4984,14.4984,14.4771,14.4467,14.4285,14.3977,14.3827,14.4033,14.3029,14.1999,14.1084,14.0338,13.9412,13.8485,13.7722,13.7264,13.7264,13.5795,13.4792,13.433,13.433,13.433,12.6371,12.8671,13.0235,13.0975,12.9484,12.749,12.6228,12.3865,12.1786,12.1276,12.1228,12.1388,12.2121,12.3211,12.4791,12.7471,12.9427,13.1427,13.4215,13.7919,14.2475,14.8499,15.772,16.3932,16.4666,16.673,16.7913,16.7619,16.6795,16.6126,16.5612,16.5319,16.5115,16.4894,16.2904,16.1509,16.0702,15.9886,15.9511,15.9511,15.9511,15.8932,15.7831,15.7831,15.6965,15.5424,15.4763,15.4616,0.0,15.2267,15.2186,15.3279,15.0798,15.0365,15.1011,15.0219,14.9932,14.9932,14.9932,14.9932,14.9778,14.933,14.9337,14.911,14.7487,14.7333,14.7495,14.6093,14.5718,14.5571,14.5131,14.4984,14.5227,14.5927,14.7268,14.8629,14.8776,15.0515,15.1633,15.0091,14.9106,14.8212,14.7209,14.5881,14.4984,14.4984,14.4984,14.4984,14.4984,14.4984,14.4984,14.4984,14.4984,14.5134,14.5287,14.4907,14.4772,14.5005,14.4578,14.3977,14.3395,14.2185,14.1335,14.0716,13.9569,13.888,13.8492,13.6796,13.5872,13.5719,13.5411,13.5561,0.0,12.0077,12.1691,12.2506,12.2911,12.3077,12.2536,12.1684,0.0,11.9637,12.0401,12.0987,12.0535,12.2323,12.4567,12.6871,12.8785,13.1212,13.4604,13.8176,14.2497,14.7685,15.4674,15.9307,15.9886,16.4813,16.7684,16.6868,16.6134,16.5612,16.5612,16.4813,16.4674,16.5392,16.3124,16.1509,16.0775,15.9878,15.9511,15.9511,15.943,15.8638,15.7097,15.7097,15.6224,15.4535,15.3074,15.3302,15.4315,15.1166,15.1305,15.3214,15.0798,15.0365,15.1011,15.0219,14.9932,14.9932,14.9932,14.9932,14.9932,14.9778,14.9183,14.8221,14.6687,14.6173,14.6019,14.5204,14.4977,14.5138,14.4984,14.4977,14.5138,14.4984,14.6827,14.8511,14.8511,15.0335,15.1636,15.037,14.9278,14.813,14.7008,14.5831,14.4984,14.4984,14.4984,14.4977,14.5131,14.4977,14.4977,14.5131,14.4977,14.4984,14.4984,14.6292,14.6506,14.5083,14.6119,14.651,14.5794,14.4105,14.3188,14.3111,14.1492,14.0181,13.9328,13.7716,13.7414,13.8187,13.7418,13.7796,10.9764,0.0,11.8003,11.8227,11.9327,12.0208,0.0,11.9378,0.0,0.0,0.0,0.0,12.1727,12.3084,12.4791,12.7694,12.9461,13.1101,13.2375,14.1405,15.0293,15.6776,16.2896,16.5988,16.4283,16.651,16.7913,16.7684,16.6428,16.5612,16.5612,16.4813,16.4234,16.3785,16.2619,16.1811,16.1583,16.018,15.9511,15.9511,15.8866,15.8132,15.7097,15.7097,15.5922,15.3793,15.4021,15.3662,15.2788,15.1386,15.1525,15.2414,15.0586,15.0365,15.1011,15.0219,14.9932,14.9932,14.9932,14.9932,14.9778,14.9191,14.8009,14.668,14.6313,14.6173,14.6019,14.5204,14.5425,14.5799,14.5212,14.5505,14.5806,14.5124,14.6827,14.8511,14.8511,15.0335,15.1636,15.037,14.9278,14.813,14.7008,14.5831,14.4984,14.4984,14.4984,14.5204,14.5792,14.5432,14.5204,14.588,14.5432,14.4984,14.4984,14.562,14.617,14.6608,14.6024,14.592,14.6619,14.5025,14.3797,14.3111,14.1492,14.0181,13.9328,13.887,13.8793,13.9023,13.8793,13.887,10.7499,11.037,11.3617,11.4373,11.5494,11.6793,11.8007,11.7881,11.8036,0.0,0.0,0.0,12.1822,12.3589,12.5793,12.8489,13.0585,13.3314,13.789,14.5481,15.338,16.1019,16.5172,16.7521,16.7309,16.7684,16.7831,16.7464,16.6281,16.5319,16.4511,16.4079,16.35,16.261,16.1803,16.1289,16.1289,16.0099,15.9511,15.9511,15.872,15.7912,15.7104,15.6737,15.5408,15.35,15.3588,15.3074,15.2193,15.1019,15.1533,15.2707,15.0732,15.0578,15.1525,15.0285,14.9932,14.9932,14.9932,14.9712,14.9191,14.7928,14.69,14.6093,14.5806,14.5571,14.5579,14.5131,14.5579,14.6019,14.5204,14.5579,14.6019,14.5204,14.6827,14.8511,14.8511,14.9904,15.0817,14.9609,14.8511,14.7268,14.622,14.5376,14.4984,14.4984,14.4984,14.5212,14.5579,14.5285,14.5204,14.5579,14.5285,14.4984,14.4984,14.5689,14.6523,14.7195,14.7529,14.7735,14.7476,14.6179,14.4797,14.3108,14.1797,14.0796,13.987,13.9482,13.9482,13.987,13.987,14.0101,10.7599,10.8384,10.9532,11.1204,11.2467,11.3926,11.6313,11.7015,11.7526,0.0,0.0,0.0,12.1604,12.423,12.6975,12.9609,13.2078,13.6775,14.5765,14.961,15.4234,16.1722,16.4593,16.6567,16.8328,16.8125,16.7464,16.6877,16.5906,16.4813,16.3271,16.3198,16.2684,16.173,16.1077,16.062,16.0474,15.9805,15.9511,15.9511,15.8573,15.7773,15.7104,15.6003,15.4682,15.3279,15.2487,0.0,15.1973,15.0512,15.1166,15.2912,15.0725,15.0732,15.1834,15.0365,14.9932,14.9932,14.9785,14.9191,14.8221,14.6687,14.6093,14.5872,14.5204,14.4984,14.4984,14.4984,14.5725,14.6173,14.5204,14.5725,14.6085,14.5204,14.6827,14.8511,14.8511,14.9383,14.989,14.8731,14.76,14.6496,14.5403,14.5131,14.4977,14.5212,14.5131,14.5131,14.5271,14.5204,14.5124,14.5498,14.5204,14.4977,14.5204,14.6202,14.6875,14.7087,14.9176,14.9828,14.8336,14.7417,14.5797,14.3493,14.2723,14.1874,14.1178,14.0405,14.0485,14.1178,14.1178,14.1566,10.6309,10.697,10.8012,11.0237,11.2416,11.4416,11.5264,11.6592,11.8001,11.9236,12.0484,12.1911,12.3264,12.5426,12.8027,13.0904,13.4823,14.0204,14.8273,15.1636,15.4902,15.9511,16.4519,16.7032,16.5262,16.6289,16.6868,16.6795,16.54,16.4234,16.319,16.3198,16.2464,16.0914,16.0775,16.0408,15.9666,15.9593,15.9511,15.9519,15.7978,15.717,15.7023,15.4902,15.3368,15.2406,0.0,15.1305,15.1231,15.0292,15.0505,15.1378,15.0285,15.0079,15.0219,15.0006,14.9932,14.9778,14.911,14.8288,14.7399,14.6533,14.5718,14.5212,14.4977,14.4984,14.4984,14.4984,14.6085,14.6893,14.5425,14.6078,14.6812,14.5432,14.6827,14.8511,14.8511,14.9383,14.989,14.8731,14.76,14.6631,14.6138,14.5505,14.5204,14.5872,14.5425,14.5498,14.6893,14.5784,14.5792,14.7928,14.6313,14.5285,14.6026,14.6498,14.679,14.6915,14.8425,14.8902,14.8234,14.7417,14.6413,14.5336,14.4486,14.4024,14.379,14.3713,14.3713,14.379,14.379,14.387,10.5495,10.6314,10.7279,10.873,11.0787,11.2836,11.4397,0.0,0.0,0.0,12.1504,12.2892,12.5071,12.6885,12.9819,13.5006,13.9026,14.3399,14.9088,15.2421,15.5775,16.0335,16.3867,16.6289,16.6868,16.6877,16.6575,16.6208,16.4674,16.3198,16.1868,16.1795,16.1289,16.0107,16.0114,15.9666,15.8866,15.8866,15.9079,15.9519,15.7398,15.6672,15.7015,15.5122,15.3727,15.292,0.0,15.1525,15.1011,15.0211,15.0365,15.1011,15.0219,15.0226,15.0424,14.9631,14.9271,14.9117,14.7788,14.712,14.668,14.6313,14.5725,14.5131,14.5498,14.5278,14.5131,14.5498,14.6166,14.6533,14.5278,14.5872,14.6533,14.5278,14.633,14.7606,14.7606,14.7977,14.8278,14.8231,14.7281,14.6613,14.6796,14.6518,14.6372,14.6819,14.6518,14.6599,14.7326,14.6819,14.6599,14.7274,14.6313,14.5571,14.5579,14.5695,14.6618,14.8527,14.89,14.9219,14.9535,14.8336,14.7417,14.7109,14.5797,14.5101,14.5101,14.4636,14.4636,14.5101,14.5486,14.5794,10.483,10.5676,10.6799,10.7785,0.0,0.0,0.0,0.0,0.0,0.0,0.0,12.3893,12.5994,12.8671,13.2486,13.8691,14.3073,14.6992,15.0461,15.4036,15.7472,16.137,16.3491,16.562,16.8108,16.7089,16.5996,16.54,16.3785,16.2325,16.0775,16.0702,16.018,15.9307,15.9226,15.8785,15.7985,15.7765,15.8124,15.8924,15.6892,15.6084,15.6517,15.491,15.3801,15.3214,15.2201,15.1606,15.1305,15.0292,15.0365,15.1011,15.0219,15.0292,15.0571,14.9183,14.8816,14.8669,14.6827,14.6313,14.6386,14.6019,14.5498,14.5212,14.6026,14.5799,14.5425,14.6313,14.6533,14.6313,14.5498,14.5872,14.6232,14.5204,14.5906,14.6776,14.6776,14.6925,14.7304,14.7894,14.7196,14.6673,14.7627,14.7473,14.7473,14.77,14.7473,14.7473,14.77,14.7473,14.7326,14.7128,14.6533,14.6017,14.5488,14.5362,14.6827,15.0007,14.9929,14.9976,15.0692,14.9494,14.8725,14.8494,14.7179,14.6563,14.6563,14.5867,14.5867,14.6563,14.7179,14.7486,10.4135,10.5129,10.6313,10.7988,0.0,0.0,0.0,0.0,0.0,0.0,0.0,0.0,0.0,13.0672,13.6375,13.9889,14.6214,15.1474,15.4029,15.7773,16.0702,16.1811,16.3997,16.5612,16.5824,16.5115,16.4527,16.4527,16.2904,16.1583,16.0694,16.0702,15.9968,15.8426,15.8434,15.7985,15.717,15.637,15.6525,15.7325,15.6297,15.5497,15.4829,15.3221,15.2414,15.2267,15.0725,15.0879,15.212,15.0512,15.0365,15.1011,15.0219,14.9925,14.9932,14.9036,14.9191,14.9492,14.6973,14.668,14.7113,14.5571,14.4977,14.5212,14.6026,14.6173,14.6313,14.7113,14.7326,14.7106,14.6313,14.6673,14.6885,14.5425,14.5906,14.6776,14.6776,14.7372,14.7888,14.7962,14.7626,14.7627,14.8523,14.792,14.77,14.8523,14.792,14.77,14.8515,14.792,14.7994,14.9484,14.7575,14.6295,14.6596,14.6711,14.7717,15.0129,15.1212,15.1509,15.0714,15.0564,15.0179,14.9406,14.9329,14.9175,14.9175,14.9175,14.9175,14.9175,14.9329,14.9329,10.3277,10.5183,10.7501,10.8796,0.0,0.0,0.0,0.0,0.0,0.0,0.0,0.0,0.0,13.4204,13.8174,14.1996,14.7781,15.2928,15.5783,15.9233,16.1811,16.261,16.4364,16.5612,16.5612,16.4894,16.4022,16.2912,16.1811,16.0775,16.0033,16.0033,15.9372,15.8279,15.8287,15.77,15.6378,15.6092,15.5791,15.5636,15.5277,15.4983,15.469,15.3588,15.2781,15.2193,15.1092,15.1019,15.1533,15.0373,15.0079,15.0285,14.9998,14.9932,14.9778,14.8963,14.8515,14.8067,14.668,14.6093,14.5865,14.5799,14.5425,14.5197,14.6599,14.6599,14.6467,14.7774,14.8221,14.7928,14.6533,14.6386,14.6386,14.5285,14.572,14.6426,14.6426,14.7091,14.7822,14.8265,14.8327,14.8523,14.9337,14.9191,14.9117,14.9411,14.9191,14.9117,14.9411,14.9191,14.9036,14.911,14.7774,14.6978,14.7183,14.847,14.9807,15.0596,15.0796,15.1111,15.1469,15.1026,15.0795,15.1106,15.0025,14.9714,15.0176,14.9714,14.9795,15.0176,15.0176,15.0483,10.3236,10.5701,10.8635,0.0,0.0,0.0,0.0,0.0,0.0,0.0,0.0,0.0,0.0,0.0,13.9573,14.3904,14.9631,15.4396,15.7104,15.9821,16.1803,16.2692,16.4005,16.4805,16.4805,16.4087,16.2986,16.1583,16.0775,16.0107,15.9511,15.9299,15.8793,15.7912,15.7398,15.6591,15.5497,15.4983,15.4616,15.4315,15.4315,15.4168,15.3874,15.3133,15.2398,15.19,15.1092,15.0872,15.1011,15.0211,14.9785,14.9477,14.9778,14.9705,14.9411,14.8596,14.8075,14.7627,14.6313,14.5571,14.5425,14.5725,14.5571,14.5571,14.7032,14.7186,14.7274,14.8669,14.9117,14.8824,14.7429,14.6981,14.668,14.5571,14.6019,14.6606,14.6606,14.7186,14.7994,14.8596,14.889,14.9271,14.9778,14.9932,14.9932,14.9932,14.9932,14.9932,14.9932,14.9932,14.9631,14.8816,14.8221,14.7897,14.8002,14.9534,15.0663,15.1481,15.1236,15.1365,15.2385,15.1568,15.141,15.2029,15.0872,15.0564,15.1102,15.0564,15.0564,15.1102,15.1102,15.141,10.3822,10.6419,10.9594,0.0,0.0,0.0,0.0,0.0,0.0,0.0,0.0,13.2811,13.6115,13.8017,14.066,14.5512,15.1679,15.6533,15.8067,15.9674,16.0995,16.1811,16.2692,16.3198,16.3198,16.2398,16.1599,16.0694,16.0033,15.9511,15.9511,15.8712,15.7912,15.7097,15.5482,15.4682,15.469,15.3074,15.27,15.35,15.35,15.3067,15.2274,15.1533,15.1085,15.1004,15.0211,15.0365,15.1011,15.0211,14.9411,14.8816,14.9639,14.9411,14.8596,14.7693,14.7913,14.8295,14.5872,14.5498,14.61,14.5285,14.5498,14.6313,14.7106,14.7994,14.8897,14.9712,14.9932,14.9705,14.889,14.8669,14.8302,14.6606,14.6819,14.7399,14.7399,14.8075,14.8669,14.8669,14.9411,14.9932,14.9932,14.9932,14.9932,14.9932,14.9932,14.9932,14.9932,14.9932,14.9631,14.8816,14.8669,14.8823,14.921,14.919,15.0172,15.2607,15.2738,15.2882,15.3311,15.2495,15.2029,15.2029,15.2029,15.2029,15.2029,15.2029,15.2029,15.2029,15.2029,15.2029,10.3009,10.6593,11.1319,11.5035,0.0,0.0,0.0,13.4293,0.0,0.0,14.0974,13.9999,14.2121,14.4331,14.6467,14.853,15.3295,15.7325,15.8932,16.0033,16.0775,16.0995,16.1811,16.2105,16.1509,16.1216,16.0694,15.9878,15.9585,15.9299,15.872,15.8426,15.7398,15.5489,15.4902,15.4176,15.3001,15.2487,15.2414,15.2626,15.2112,15.1672,15.1533,15.1826,15.1312,15.0211,14.9998,14.9998,15.0211,14.9998,14.9785,14.9484,14.9191,14.9264,14.9411,14.7913,14.7627,14.7627,14.6313,14.5571,14.5278,14.5131,14.5498,14.6166,14.6533,14.7113,14.8001,14.8816,14.9117,14.8963,14.8824,14.911,14.911,14.7407,14.77,14.8295,14.8295,14.897,14.9477,14.9477,14.9705,14.9932,14.9932,14.9932,14.9932,14.9932,14.9932,14.9932,14.9932,14.9932,14.9778,14.9639,14.9477,14.9595,14.9669,15.0522,15.162,15.3228,15.3503,15.3498,15.3308,15.3114,15.2568,15.2029,15.2029,15.2029,15.2029,15.2029,15.2029,15.2029,15.2029,15.2029,10.239,10.6305,11.1102,11.6908,12.3416,13.0167,13.6931,0.0,0.0,0.0,14.6019,14.5131,14.712,14.8376,14.9778,15.1533,15.513,15.7978,15.9291,15.9878,16.0327,16.0702,16.1069,16.1216,16.0694,16.0702,16.018,15.9079,15.9005,15.8491,15.7406,15.7031,15.6084,15.4315,15.3581,15.3001,15.2267,15.1687,15.1533,15.1819,15.1305,15.0938,15.0571,15.1092,15.0806,14.9932,14.9932,14.9932,14.9932,14.9932,14.9705,14.9411,14.8897,14.8816,14.8735,14.7407,14.6893,14.6819,14.6019,14.5425,14.4984,14.4984,14.5498,14.6173,14.6173,14.6973,14.7994,14.8603,14.889,14.9191,14.9191,14.9477,14.9639,14.8214,14.8596,14.9191,14.9191,14.9639,14.9932,14.9932,15.0226,15.0292,15.0006,15.0365,15.0725,15.0431,15.0365,15.0292,14.9925,14.9932,14.9932,14.9932,14.9932,14.9932,14.9932,15.0568,15.1477,15.2678,15.3363,15.3688,15.3572,15.3706,15.3418,15.2491,15.2802,15.2802,15.2491,15.2491,15.2337,15.2029,15.2029,15.2029,10.2531,10.5982,11.0511,11.9391,12.6884,13.4062,14.1961,14.6409,14.9032,14.9778,14.8882,14.8721,15.1085,15.11,15.1614,15.4469,15.6892,15.872,15.9364,15.9511,15.9813,16.0474,16.0628,16.0628,16.0628,16.0474,15.9894,15.8434,15.8214,15.7406,15.5872,15.4976,15.4168,15.3279,15.1892,15.1378,15.2127,15.0586,15.0292,15.1011,15.1011,15.0578,14.9932,15.0006,15.0006,14.9932,14.9932,14.9932,14.9932,14.9932,14.9411,14.8669,14.8669,14.8221,14.7326,14.6533,14.6173,14.61,14.5285,14.4984,14.4984,14.4984,14.5498,14.6173,14.6093,14.7201,14.8523,14.8603,14.911,14.9705,14.9932,14.9932,14.9705,14.897,14.9411,14.9932,14.9932,14.9932,14.9932,14.9932,15.0497,15.0872,15.0064,15.1166,15.19,15.1085,15.1092,15.0791,14.9998,15.0006,14.9998,14.9998,14.9998,14.9998,14.9998,14.9925,15.0369,15.1622,15.281,15.3714,15.402,15.4433,15.4187,15.3418,15.411,15.411,15.3418,15.3418,15.3033,15.2106,15.2106,15.2106,10.4272,10.9389,11.5808,12.4067,13.3971,14.2586,14.6103,14.9516,15.1675,15.0978,15.1598,15.2692,15.4469,15.5799,15.6517,15.6591,15.8124,15.9291,15.9519,15.9511,15.9593,15.9732,15.9813,15.9813,15.9813,15.9233,15.8727,15.8279,15.7112,15.6011,15.4983,15.4168,15.3133,15.1672,15.1305,15.0872,15.0365,15.0079,14.9998,15.0226,15.0226,15.0079,14.9925,15.0586,15.0505,14.9932,14.9932,14.9932,14.9932,14.9932,14.9411,14.8669,14.8669,14.8221,14.7326,14.6533,14.6173,14.61,14.5285,14.4984,14.4984,14.4984,14.5498,14.61,14.5425,14.6026,14.6907,14.748,14.7766,14.8214,14.9639,14.9932,14.9932,14.9705,14.9785,14.9932,14.9932,14.9932,14.9932,14.9932,15.0497,15.1004,15.0872,15.1085,15.1092,15.0292,15.0725,15.0791,14.9998,15.0512,15.0791,15.0791,15.0791,15.0791,15.0791,15.0292,15.0369,15.1622,15.281,15.3714,15.402,15.4966,15.5107,15.4268,15.4422,15.4422,15.4187,15.4187,15.3803,15.3033,15.3033,15.2725,10.4721,11.0475,11.8124,13.0471,13.9927,14.6512,14.8415,15.0485,15.2095,15.2719,15.4087,15.5629,15.6811,15.7978,15.8712,15.8271,15.9005,15.9511,15.9511,15.9511,15.9511,15.9511,15.9226,15.8932,15.8932,15.7765,15.6965,15.6591,15.5416,15.4168,15.2986,15.2626,15.1819,15.0578,15.0505,15.0285,14.9932,14.9932,14.9932,14.9932,14.9932,14.9932,14.9925,15.0285,15.0285,14.9932,14.9484,14.933,14.9337,14.889,14.8523,14.7994,14.7715,14.7194,14.6673,14.5865,14.5571,14.5579,14.5124,14.4984,14.4984,14.4984,14.5285,14.5498,14.5131,14.5579,14.6393,14.7186,14.77,14.8288,14.9639,14.9932,14.9778,14.9411,14.9631,14.9932,14.9932,14.9932,14.9932,14.9932,15.0879,15.1606,15.1239,15.1378,15.1525,15.11,15.1092,15.0791,14.9998,15.0292,15.0725,15.1092,15.1085,15.1085,15.1085,15.0718,15.0566,15.0776,15.2934,15.4006,15.3826,15.5814,15.6415,15.5107,15.5492,15.5492,15.5107,15.5107,15.4495,15.3264,15.3264,15.2802,10.41,11.1368,12.1132,13.6702,14.4103,14.7994,14.9639,15.0578,15.1892,15.4102,15.571,15.7023,15.8067,15.8785,15.9291,15.9519,15.9511,15.9511,15.9511,15.9372,15.9299,15.9299,15.8499,15.792,15.792,15.6378,15.5203,15.4527,15.3573,15.2472,15.1231,15.1011,15.0578,14.9925,14.9932,14.9778,14.9705,14.9705,14.9631,14.9484,14.9484,14.9484,14.9484,14.9484,14.9639,14.9712,14.8963,14.8596,14.8368,14.77,14.7319,14.7106,14.6599,14.6166,14.5872,14.5432,14.5131,14.4984,14.4984,14.4984,14.4984,14.4984,14.4984,14.4984,14.4984,14.5505,14.6173,14.6966,14.7774,14.8669,14.9484,14.9778,14.9705,14.9117,14.9411,14.9932,14.9705,14.9778,14.9932,14.9932,15.1173,15.212,15.1378,15.212,15.2568,15.2201,15.1598,15.1019,14.9998,14.9998,15.0365,15.1011,15.1231,15.1305,15.1305,15.1305,15.1011,15.0373,15.2932,15.4192,15.3863,15.64,15.7273,15.6334,15.6796,15.6719,15.6026,15.6026,15.518,15.3726,15.3575,15.3033,10.2191,11.5027,12.9788,13.9779,14.5432,14.8816,14.9705,15.11,15.2406,15.3507,15.4388,15.571,15.792,15.8434,15.872,15.9372,15.9511,15.9511,15.9511,15.8932,15.8507,15.8507,15.7104,15.6231,15.6231,15.4836,15.3801,15.372,15.2333,15.1297,15.1085,15.0431,14.9998,14.9932,14.9932,14.9639,14.8897,14.8897,14.8515,14.7693,14.7693,14.7693,14.7693,14.7693,14.8067,14.8897,14.8735,14.8295,14.7627,14.7392,14.6966,14.6386,14.7032,14.6379,14.5204,14.5799,14.5579,14.4984,14.4984,14.4984,14.4984,14.4984,14.4984,14.4984,14.4984,14.5131,14.5278,14.6085,14.6893,14.7774,14.8589,14.9411,14.9932,14.9785,14.9778,14.9705,14.8963,14.9411,14.9932,14.9932,15.1173,15.2274,15.2201,15.3368,15.3735,15.1598,15.1826,15.1614,15.0079,15.0505,15.1011,15.1085,15.1672,15.2112,15.2112,15.2112,15.212,15.1981,15.2707,15.3916,15.5478,15.5714,15.6422,15.7861,15.7415,15.703,15.6876,15.6876,15.6411,15.5411,15.4726,15.3883,11.0267,12.0618,13.0969,14.0807,14.5292,14.7796,14.9484,15.1092,15.2414,15.2781,15.3801,15.5269,15.7333,15.7611,15.7684,15.8124,15.8198,15.8198,15.8198,15.7479,15.6973,15.6973,15.5489,15.4616,15.4616,15.3067,15.2186,15.2186,15.1092,15.0431,15.0431,15.0072,14.9705,14.9183,14.9183,14.8809,14.7994,14.7994,14.7774,14.7399,14.6885,14.6966,14.7399,14.6885,14.7186,14.7913,14.7487,14.712,14.6673,14.6225,14.5784,14.5579,14.5931,14.5564,14.4977,14.5432,14.5278,14.4984,14.4984,14.4984,14.4984,14.4984,14.4984,14.4984,14.4984,14.4984,14.5204,14.6026,14.6827,14.7473,14.792,14.8882,14.9712,14.8735,14.9183,14.9705,14.8897,14.933,15.0226,15.11,15.1826,15.256,15.3515,15.3882,15.3507,15.1973,15.1679,15.1166,14.9998,15.0219,15.0578,15.1092,15.1378,15.1819,15.2274,15.2267,15.2267,15.2267,15.3498,15.4701,15.5924,15.6169,15.6799,15.7881,15.7401,15.7107,15.7107,15.7107,15.6723,15.5796,15.5415,15.4803,11.4677,12.2025,12.8413,13.8464,14.2869,14.5299,14.7495,14.9404,15.0879,15.1312,15.2707,15.4168,15.5629,15.637,15.673,15.6509,15.6664,15.673,15.6509,15.5783,15.5277,15.5277,15.3874,15.2912,15.2912,15.1591,15.0798,15.0798,14.9991,14.9705,14.9932,14.9705,14.933,14.8669,14.8669,14.8221,14.7106,14.6885,14.6812,14.6812,14.6166,14.6232,14.6819,14.6166,14.6232,14.6819,14.6386,14.61,14.5792,14.5204,14.4984,14.4984,14.4984,14.4984,14.4984,14.4984,14.4984,14.4984,14.4984,14.4984,14.4977,14.5204,14.5204,14.4977,14.5204,14.5278,14.5425,14.6019,14.6893,14.7693,14.7693,14.8809,14.9631,14.8288,14.9036,14.9705,14.911,14.9484,15.0299,15.1474,15.1973,15.2715,15.3882,15.3867,15.35,15.27,15.1892,15.1085,15.0285,14.9998,15.0064,15.0718,15.1011,15.1305,15.1892,15.2414,15.2634,15.2634,15.4033,15.5227,15.5965,15.647,15.6979,15.7515,15.747,15.7312,15.6937,15.7081,15.6799,15.6103,15.5872,15.5492,10.8516,11.5197,12.2166,13.1183,13.6989,14.088,14.2576,14.4771,14.6981,14.8603,15.0211,15.1525,15.2414,15.4396,15.5717,15.4902,15.5505,15.5717,15.4902,15.4087,15.3573,15.3573,15.2178,15.1224,15.1224,15.0512,15.0006,15.0006,14.9183,14.9117,14.9932,14.9191,14.8669,14.8669,14.8669,14.7928,14.632,14.5498,14.5124,14.5124,14.5131,14.5131,14.5124,14.5131,14.5131,14.5204,14.5872,14.5799,14.5138,14.4977,14.4984,14.4984,14.4984,14.4984,14.4984,14.4984,14.4984,14.4984,14.4984,14.4984,14.5131,14.5872,14.5571,14.5124,14.5872,14.6093,14.6093,14.6173,14.7421,14.8589,14.8589,14.9264,14.9932,14.9778,14.9778,14.9932,14.9778,14.9932,14.9925,14.9998,15.1327,15.2267,15.2414,15.3662,15.4388,15.3581,15.2781,15.1892,15.1077,15.0365,14.9925,15.0006,15.0571,15.1077,15.1239,15.2626,15.3419,15.3419,15.3502,15.449,15.6516,15.6164,15.6301,15.7107,15.7911,15.7709,15.6492,15.6864,15.7107,15.703,15.618,15.5796,10.7389,11.2601,11.8105,12.6985,13.2028,13.5381,13.809,14.1394,14.4184,14.5292,14.7715,14.9616,14.991,15.1981,15.3522,15.3221,15.3368,15.3522,15.3221,15.2487,15.1819,15.132,15.0204,14.9624,14.9624,14.8809,14.8515,14.9117,14.8288,14.7994,14.8295,14.7994,14.7627,14.712,14.7128,14.6614,14.5425,14.5124,14.4984,14.4984,14.4984,14.4984,14.4984,14.4984,14.4984,14.4977,14.5278,14.5285,14.4984,14.4984,14.4984,14.4984,14.4984,14.4984,14.4984,14.4984,14.4984,14.4984,14.4984,14.4984,14.4977,14.5278,14.5204,14.5138,14.5278,14.5425,14.5498,14.61,14.6973,14.7928,14.7928,14.8515,14.911,14.911,14.9484,14.9932,14.9932,14.9932,15.0226,15.1166,15.1907,15.2634,15.3662,15.4315,15.4381,15.3573,15.2773,15.1973,15.1231,15.0783,15.0512,15.0006,15.0578,15.1305,15.1819,15.2414,15.3221,15.4168,15.4315,15.4963,15.6476,15.5688,15.5596,15.6811,15.6526,15.638,15.6488,15.6099,15.5889,15.5889,15.5583,15.5506,10.5578,10.9495,11.3823,12.1324,12.5183,12.8333,13.2364,13.6182,13.9492,14.1408,14.4198,14.6614,14.7715,14.9404,15.0791,15.1393,15.1679,15.1679,15.1173,15.0571,14.9991,14.9183,14.8596,14.8295,14.8295,14.7693,14.762,14.8221,14.748,14.7106,14.7399,14.7106,14.6827,14.6166,14.5872,14.5498,14.4984,14.4984,14.4984,14.4984,14.4984,14.4984,14.4984,14.4984,14.4984,14.4984,14.4984,14.4984,14.4984,14.4984,14.4984,14.4984,14.4984,14.4984,14.4984,14.4984,14.4984,14.4984,14.4984,14.4984,14.4977,14.5278,14.5204,14.5138,14.5278,14.5432,14.5498,14.6019,14.6827,14.7399,14.7399,14.7766,14.8295,14.8295,14.889,14.9484,14.9484,14.9705,15.0292,15.1598,15.212,15.2707,15.4095,15.4315,15.4234,15.3867,15.2781,15.1826,15.1525,15.1011,15.0578,15.0285,15.0798,15.1378,15.2193,15.2479,15.3221,15.4234,15.4616,15.5094,15.5905,15.5617,15.5507,15.6015,15.5693,15.5608,15.5704,15.5335,15.5067,15.5067,15.4773,15.489,0.0,0.0,0.0,11.3728,11.66,11.9737,12.531,12.9134,13.2591,13.6709,13.9492,14.2195,14.5439,14.668,14.7774,14.9404,15.0512,15.0497,14.889,14.8669,14.8376,14.7473,14.7399,14.7399,14.7399,14.7319,14.7319,14.7407,14.6599,14.6533,14.7326,14.6606,14.6173,14.6173,14.5425,14.4984,14.4984,14.4984,14.4984,14.4984,14.4984,14.4984,14.4984,14.4984,14.4984,14.4984,14.4984,14.4984,14.4984,14.4984,14.4984,14.4984,14.4984,14.4984,14.4984,14.4984,14.4984,14.4984,14.4984,14.4984,14.5131,14.5872,14.5571,14.5124,14.5872,14.6173,14.6173,14.6173,14.6827,14.7399,14.7399,14.7399,14.7399,14.7399,14.7994,14.8669,14.8669,14.933,15.0064,15.0938,15.1672,15.2479,15.3434,15.35,15.3801,15.4527,15.2707,15.1378,15.2201,15.0879,15.0292,15.1011,15.1077,15.1525,15.2274,15.3074,15.35,15.3492,15.4315,15.4682,15.4682,15.593,15.6022,15.4713,15.5466,15.5328,15.4066,15.4369,15.4608,15.4608,15.3807,15.4091,10.2021,0.0,0.0,0.0,0.0,0.0,11.8281,12.29,12.7525,13.0889,13.3973,13.7136,14.0366,14.2121,14.3589,14.5219,14.817,14.9925,14.8809,14.8669,14.8229,14.668,14.6526,14.6526,14.6526,14.6012,14.5865,14.6533,14.5799,14.5425,14.5725,14.5505,14.5278,14.5278,14.5131,14.4984,14.4984,14.4984,14.4984,14.4984,14.4984,14.4984,14.4984,14.4984,14.4984,14.4984,14.4984,14.4984,14.4984,14.4984,14.4984,14.4984,14.4984,14.4984,14.4984,14.4984,14.4984,14.4984,14.4984,14.4984,14.4977,14.5285,14.5204,14.4977,14.5285,14.5278,14.5505,14.6019,14.6393,14.6526,14.6526,14.6966,14.7333,14.668,14.7634,14.8669,14.8669,14.933,15.0064,15.0938,15.1305,15.1892,15.3279,15.35,15.3573,15.3793,15.2781,15.1819,15.1525,15.1614,15.1533,15.1077,15.2105,15.2912,15.3125,15.3426,15.3712,15.4307,15.4608,15.4682,15.4682,15.5034,15.5071,15.4697,15.4874,15.4589,15.371,15.2916,15.2774,15.3435,15.3217,15.3896,0.0,0.0,0.0,10.508,0.0,0.0,11.3277,11.7309,12.1572,12.5537,12.8627,13.1783,13.5734,13.8304,14.0506,14.2502,14.5373,14.7274,14.7201,14.7414,14.7201,14.588,14.5725,14.5725,14.5725,14.5285,14.5204,14.5725,14.5285,14.4984,14.4984,14.4984,14.4984,14.4984,14.4984,14.4984,14.4984,14.4984,14.4984,14.4984,14.4984,14.4984,14.4984,14.4984,14.4984,14.4984,14.4984,14.4764,14.4477,14.4918,14.4984,14.4984,14.4984,14.4984,14.4984,14.4984,14.4984,14.4984,14.4984,14.4984,14.4984,14.4984,14.4984,14.4984,14.4984,14.4984,14.5131,14.5579,14.5725,14.5725,14.5725,14.6005,14.6379,14.6166,14.7194,14.8302,14.8589,14.933,15.0064,15.0938,15.1085,15.1525,15.2773,15.2692,15.2619,15.2912,15.1973,15.1393,15.1606,15.1672,15.1973,15.2472,15.3426,15.4087,15.4469,15.4535,15.4616,15.4682,15.4983,15.5203,15.5203,15.5203,15.5203,15.5203,15.4527,15.3573,15.2472,15.2067,15.1979,15.2215,15.3033,15.3717,0.0,0.0,0.0,0.0,10.4102,0.0,10.9674,11.2531,11.5699,12.019,12.312,12.6283,13.0969,13.45,13.751,13.9985,14.1908,14.3383,14.4624,14.5505,14.5806,14.4991,14.4903,14.4984,14.4984,14.4984,14.4984,14.4984,14.4984,14.4984,14.4984,14.4984,14.4984,14.4984,14.4984,14.4984,14.4984,14.4984,14.4984,14.4984,14.4984,14.4984,14.4984,14.4984,14.4984,14.4984,14.4984,14.4624,14.3971,14.469,14.4903,14.4918,14.4984,14.4984,14.4984,14.4984,14.4984,14.4984,14.4984,14.4984,14.4984,14.4984,14.4984,14.4984,14.4984,14.4984,14.4984,14.4984,14.4984,14.4984,14.4984,14.4984,14.5204,14.6019,14.6819,14.762,14.8515,14.933,15.0072,15.0791,15.1019,15.1231,15.1973,15.1606,15.1305,15.2127,15.0872,15.0505,15.1973,15.1598,15.2112,15.4315,15.4608,15.4983,15.5717,15.5791,15.5571,15.491,15.5571,15.6019,15.5872,15.5872,15.5872,15.5799,15.4168,15.2619,15.1085,15.19,15.19,15.1115,15.3065,15.3681,0.0,0.0,0.0,0.0,0.0,0.0,10.6004,10.9228,11.2537,11.483,11.7693,12.0912,12.4503,12.7813,13.0976,13.4119,13.6475,13.9199,14.2569,14.4323,14.4911,14.411,14.4624,14.4984,14.4984,14.4984,14.4984,14.4984,14.4984,14.4984,14.4984,14.4984,14.4984,14.4984,14.4984,14.4984,14.4984,14.4984,14.4984,14.4984,14.4984,14.4984,14.4984,14.4984,14.4984,14.4984,14.4984,14.4911,14.4771,14.4911,14.4624,14.4117,14.469,14.4984,14.4984,14.4984,14.4984,14.4984,14.4984,14.4984,14.4984,14.4984,14.4984,14.4984,14.4984,14.4984,14.4984,14.4984,14.4984,14.4984,14.4984,14.4984,14.5204,14.6019,14.6819,14.762,14.8515,14.933,14.9925,15.0072,15.0064,15.0365,15.1239,15.1231,15.1239,15.1305,15.1092,15.1019,15.1305,15.1826,15.2487,15.3573,15.4315,15.4836,15.4902,15.5497,15.5791,15.5725,15.637,15.6598,15.5864,15.5872,15.5571,15.4902,15.3368,15.212,15.1085,15.19,15.19,15.1085,15.2787,15.3738,0.0,0.0,0.0,10.2596,0.0,0.0,0.0,10.6738,10.9391,11.1379,11.4017,11.7027,12.0324,12.3769,12.7225,13.0009,13.2598,13.5014,13.7423,14.0873,14.3222,14.3236,14.3604,14.4103,14.4911,14.4617,14.4624,14.4984,14.4984,14.4984,14.4984,14.4984,14.4764,14.4404,14.4404,14.4184,14.381,14.4184,14.4404,14.4404,14.4764,14.4984,14.4984,14.4984,14.4984,14.4984,14.4984,14.4771,14.4404,14.4837,14.4477,14.3904,14.4698,14.4984,14.4984,14.4984,14.4984,14.4984,14.4984,14.4984,14.4984,14.4984,14.4984,14.4984,14.4984,14.4984,14.4984,14.4984,14.4984,14.4984,14.4984,14.4984,14.5278,14.6526,14.7106,14.7693,14.9036,14.9631,14.9932,14.9932,14.9932,14.9998,15.0431,15.0505,15.0505,15.0505,15.0791,15.1224,15.1598,15.2406,15.3368,15.4616,15.513,15.5497,15.5938,15.6305,15.6517,15.6517,15.7333,15.7325,15.6517,15.6517,15.593,15.4682,15.3074,15.2267,15.2325,15.1892,15.1679,15.1672,15.2912,15.3414,0.0,0.0,0.0,0.0,0.0,10.5422,0.0,0.0,0.0,10.9397,11.1673,11.4316,11.7394,12.0985,12.4521,12.7232,12.9361,13.1116,13.2064,13.6615,14.0212,14.1467,14.1901,14.2715,14.4177,14.3971,14.411,14.4911,14.4918,14.4771,14.4771,14.4617,14.4177,14.3611,14.3611,14.3317,14.2569,14.3383,14.3831,14.3831,14.4624,14.4984,14.4984,14.4984,14.4984,14.4984,14.4984,14.4617,14.4125,14.4624,14.4411,14.3904,14.4698,14.4984,14.4984,14.4984,14.4984,14.4984,14.4984,14.4984,14.4984,14.4984,14.4984,14.4984,14.4984,14.4984,14.4984,14.4984,14.4984,14.4984,14.4984,14.4984,14.5425,14.7032,14.7399,14.792,14.9477,14.9932,14.9932,14.9932,14.9932,14.9932,14.9932,14.9932,14.9932,14.9932,15.0578,15.1378,15.2193,15.2993,15.4095,15.5497,15.5725,15.5938,15.6591,15.6876,15.7097,15.7097,15.792,15.7912,15.7097,15.6803,15.6003,15.4535,15.3221,15.2781,15.3287,15.1973,15.1679,15.2267,15.2993,15.292,0.0,0.0,0.0,0.0,10.7221,0.0,0.0,0.0,10.8578,10.8872,0.0,11.3282,11.5779,0.0,0.0,12.5329,12.6791,12.8033,12.9488,13.2131,13.5007,13.8031,13.9566,14.0807,14.1674,14.3009,14.411,14.4911,14.4331,14.3897,14.3897,14.331,14.2789,14.2708,14.2708,14.2715,14.2569,14.3383,14.3831,14.3831,14.4624,14.4984,14.4984,14.4984,14.4984,14.4984,14.4984,14.4903,14.4764,14.4191,14.3904,14.3904,14.4698,14.4984,14.4984,14.4984,14.4984,14.4984,14.4984,14.4984,14.4984,14.4984,14.4984,14.4984,14.4984,14.4984,14.4984,14.4984,14.4984,14.4984,14.4984,14.4984,14.5425,14.7032,14.7399,14.792,14.9477,14.9932,14.9932,14.9932,14.9932,14.9932,14.9932,14.9932,14.9932,14.9932,15.0578,15.1378,15.2193,15.2993,15.3793,15.4682,15.4829,15.491,15.4983,15.6297,15.7097,15.7097,15.792,15.7912,15.7097,15.5702,15.4608,15.3727,15.3507,15.3067,15.2406,15.2274,15.2193,15.2267,15.2414,15.2414,0.0,0.0,0.0,0.0,0.0,0.0,10.742,0.0,10.8799,0.0,0.0,0.0,0.0,0.0,0.0,0.0,12.4295,12.539,12.7011,12.8473,13.0969,13.5167,13.7069,13.8831,14.0506,14.2209,14.3229,14.3596,14.3677,14.3611,14.3083,14.2796,14.2422,14.1901,14.1901,14.1688,14.1181,14.2502,14.2869,14.2422,14.3677,14.4117,14.3589,14.411,14.4037,14.3589,14.411,14.4037,14.3596,14.3229,14.309,14.3083,14.3523,14.3589,14.367,14.411,14.4331,14.4411,14.4837,14.4984,14.4984,14.4984,14.4984,14.4984,14.4984,14.4984,14.4984,14.4984,14.4984,14.4984,14.4984,14.4984,14.5278,14.6379,14.7113,14.7693,14.8882,14.9639,14.9932,14.9932,14.9932,14.9932,14.9932,14.9932,14.9932,14.9932,15.1026,15.19,15.2274,15.3434,15.4307,15.469,15.4682,15.491,15.5431,15.6363,15.7317,15.7773,15.7692,15.717,15.637,15.5269,15.4527,15.4168,15.3712,15.3581,15.3735,15.2788,15.2479,15.2993,15.2487,15.1966,11.8495,0.0,0.0,0.0,0.0,0.0,0.0,0.0,0.0,0.0,0.0,0.0,0.0,0.0,11.9523,12.1725,0.0,12.3487,12.4809,12.5904,12.818,13.2591,13.4794,13.6923,13.9272,14.0593,14.1474,14.1908,14.2282,14.2282,14.1988,14.1908,14.1695,14.1093,14.1314,14.102,14.0226,14.1768,14.2195,14.138,14.3009,14.339,14.2569,14.3236,14.317,14.2569,14.3229,14.3083,14.2576,14.2422,14.2275,14.2195,14.1981,14.1908,14.2128,14.331,14.3831,14.3897,14.469,14.4984,14.4984,14.4984,14.4984,14.4984,14.4984,14.4984,14.4984,14.4984,14.4984,14.4984,14.4984,14.4984,14.5204,14.6019,14.6819,14.762,14.8515,14.933,14.9932,14.9932,14.9932,14.9932,14.9932,14.9932,14.9932,14.9932,15.11,15.2127,15.2274,15.3295,15.4095,15.4307,15.4388,15.4608,15.5203,15.6231,15.7031,15.7626,15.7104,15.637,15.5571,15.4983,15.4682,15.4682,15.3867,15.3793,15.4388,15.3001,15.2487,15.2839,15.2186,15.1679,0.0,0.0,0.0,11.4903,0.0,0.0,0.0,0.0,11.3429,0.0,0.0,0.0,0.0,0.0,0.0,0.0,0.0,0.0,0.0,12.4729,12.7024,13.0229,13.2731,13.5167,13.759,13.7884,13.8618,14.0233,13.9632,13.9492,14.0219,14.0307,14.0307,14.0219,14.1027,14.102,14.0226,14.1768,14.2195,14.138,14.3009,14.339,14.2569,14.2569,14.2569,14.2569,14.2569,14.2569,14.2488,14.1835,14.138,14.1387,14.0593,14.0307,14.06,14.2869,14.3831,14.3897,14.469,14.4984,14.4984,14.4984,14.4984,14.4984,14.4984,14.4984,14.4984,14.4984,14.4984,14.4984,14.4984,14.4984,14.5204,14.6019,14.6819,14.762,14.8515,14.933,14.9932,14.9932,14.9932,14.9932,14.9932,14.9932,14.9932,14.9932,15.0578,15.1378,15.2193,15.2267,15.2707,15.3507,15.3492,15.3492,15.3573,15.4976,15.5864,15.6019,15.6019,15.5578,15.4836,15.4682,15.4682,15.4682,15.3867,15.35,15.3492,15.27,15.19,15.1231,15.1239,15.1077,0.0,0.0,12.6571,12.2025,0.0,0.0,0.0,0.0,0.0,0.0,0.0,0.0,0.0,0.0,0.0,0.0,0.0,12.1578,0.0,12.3928,12.547,12.7085,12.9868,13.2518,13.442,13.5601,13.6395,13.6989,13.729,13.6989,13.6188,13.773,13.8405,13.7797,13.9632,14.052,14.0226,14.1768,14.1908,14.0586,14.2202,14.2282,14.1027,14.1614,14.1467,14.1027,14.1614,14.1467,14.1034,14.0733,14.0586,14.0593,14.03,14.0226,14.0373,14.2282,14.3009,14.3229,14.447,14.4984,14.4984,14.4984,14.4984,14.4984,14.4984,14.4984,14.4984,14.4984,14.4984,14.4984,14.4984,14.4984,14.5138,14.5278,14.6012,14.6819,14.77,14.8515,14.9264,14.9778,14.9932,14.9932,14.9932,14.9932,14.9932,14.9932,15.0578,15.1231,15.1533,15.1973,15.2414,15.2707,15.3214,15.3279,15.2781,15.4176,15.5277,15.5872,15.5424,15.4674,15.3867,15.3368,15.3074,15.3074,15.2773,15.27,15.27,15.2406,15.2201,15.19,15.1305,15.049,13.0168,13.0969,0.0,12.7599,12.7085,0.0,11.9878,0.0,0.0,0.0,0.0,0.0,0.0,0.0,0.0,0.0,0.0,0.0,0.0,12.2979,12.3922,12.4815,12.7366,12.9868,13.1477,13.2578,13.3305,13.3606,13.4119,13.4133,13.3325,13.5601,13.6776,13.6629,13.8898,14.0226,14.0226,14.1467,14.1467,14.0226,14.1467,14.1474,14.0226,14.0733,14.066,14.0226,14.0726,14.066,14.0226,14.0226,14.0226,14.0226,14.0226,14.0373,14.0807,14.2128,14.3009,14.3589,14.461,14.4984,14.4984,14.4984,14.4984,14.4984,14.4984,14.4984,14.5204,14.6386,14.5872,14.5285,14.6379,14.5872,14.4984,14.4984,14.5579,14.6386,14.7179,14.8075,14.889,14.9705,14.9932,14.9932,14.9932,14.9932,14.9932,14.9932,15.0578,15.1231,15.1525,15.1973,15.2267,15.2267,15.2781,15.2928,15.2267,15.3302,15.411,15.4624,15.4095,15.3581,15.3067,15.256,15.2781,15.4029,15.2634,15.2406,15.3596,15.212,15.1386,15.1386,15.0872,14.9771]},{"header":{"parameterUnit":"m.s-1","parameterCategory":1,"la1":30.6,"la2":29.2853,"lo1":-89.7004,"lo2":-87.6739,"dy":0.0162,"dx":0.0183,"nx":112,"ny":82,"refTime":"2023-11-01T06:00:00:Z","depth":0,"parameterNumber":3,"parameterNumberName":"V-component_of_WINDS"},"data":[0.0,0.0,0.0,0.0,0.0,0.0,0.0,0.0,0.0,0.0,0.0,0.0,0.0,0.0,0.0,0.0,0.0,0.0,0.0,0.0,0.0,0.0,0.0,0.0,0.0,0.0,0.0,0.0,0.0,0.0,0.0,0.0,0.0,0.0,0.0,0.0,0.0,0.0,0.0,0.0,0.0,0.0,0.0,0.0,0.0,0.0,0.0,0.0,0.0,0.0,0.0,0.0,0.0,0.0,0.0,0.0,0.0,0.0,0.0,0.0,0.0,0.0,0.0,0.0,0.0,0.0,0.0,0.0,0.0,0.0,0.0,0.0,0.0,0.0,0.0,0.0,0.0,0.0,0.0,0.0,0.0,0.0,0.0,0.0,0.0,0.0,0.0,0.0,0.0,0.0,2.0901,2.1538,2.2714,2.3338,2.313,2.2557,2.2001,2.151,0.0,0.0,0.0,0.0,0.0,0.0,0.0,0.0,0.0,0.0,0.0,0.0,0.0,0.0,0.0,0.0,0.0,0.0,0.0,0.0,0.0,0.0,0.0,0.0,0.0,0.0,0.0,0.0,0.0,0.0,0.0,0.0,0.0,0.0,0.0,0.0,0.0,0.0,0.0,0.0,0.0,0.0,0.0,0.0,0.0,0.0,0.0,0.0,0.0,0.0,0.0,0.0,0.0,0.0,0.0,0.0,0.0,0.0,0.0,0.0,0.0,0.0,0.0,0.0,0.0,0.0,0.0,0.0,0.0,0.0,0.0,0.0,0.0,0.0,0.0,0.0,0.0,0.0,0.0,0.0,0.0,0.0,0.0,0.0,0.0,0.0,0.0,0.0,0.0,0.0,0.0,0.0,0.0,0.0,0.0,0.0,0.0,0.0,0.0,0.0,0.0,0.0,0.0,0.0,1.5631,2.1911,2.3221,2.3651,2.3596,2.2483,2.1791,2.1815,0.0,0.0,0.0,0.0,0.0,0.0,0.0,0.0,0.0,0.0,0.0,0.0,0.0,0.0,0.0,0.0,0.0,0.0,0.0,0.0,0.0,0.0,0.0,0.0,0.0,0.0,0.0,0.0,0.0,0.0,0.0,0.0,0.0,0.0,0.0,0.0,0.0,0.0,0.0,0.0,0.0,0.0,0.0,0.0,0.0,0.0,0.0,0.0,0.0,0.0,0.0,0.0,0.0,0.0,0.0,0.0,0.0,0.0,0.0,0.0,0.0,0.0,0.0,0.0,0.0,0.0,0.0,0.0,0.0,0.0,0.0,0.0,0.0,0.0,0.0,0.0,0.0,0.0,0.0,0.0,0.0,0.0,0.0,0.0,0.0,0.0,0.0,0.0,0.0,0.0,0.0,0.0,0.0,0.0,0.0,0.0,0.0,0.0,0.0,0.0,0.0,0.0,0.0,1.5092,1.8992,2.2732,2.3537,2.3786,2.3723,2.2669,2.1991,2.1916,2.0944,0.0,0.0,0.0,0.0,0.0,0.0,0.0,0.0,0.0,0.0,0.0,0.0,0.0,0.0,0.0,0.0,0.0,0.0,0.0,0.0,0.0,0.0,0.0,0.0,0.0,0.0,0.0,0.0,0.0,0.0,0.0,0.0,0.0,0.0,0.0,0.0,0.0,0.0,0.0,0.0,0.0,0.0,0.0,0.0,0.0,0.0,0.0,0.0,0.0,0.0,0.0,0.0,0.0,0.0,0.0,0.0,0.0,0.0,0.0,0.0,0.0,0.0,0.0,0.0,0.0,0.0,0.0,0.0,0.0,0.0,0.0,0.0,0.0,0.0,0.0,0.0,0.0,0.0,0.0,0.0,0.0,0.0,0.0,0.0,0.0,0.0,0.0,0.0,0.0,0.0,0.0,0.0,0.0,0.0,0.0,0.0,0.0,0.0,0.0,0.0,0.0,0.0,1.9257,2.3032,2.3619,2.3872,2.3944,2.3809,2.2814,2.2109,2.1913,2.0811,0.0,0.0,0.0,0.0,0.0,0.0,0.0,0.0,0.0,0.0,0.0,0.0,0.0,0.0,0.0,0.0,0.0,0.0,0.0,0.0,0.0,0.0,0.0,0.0,0.0,0.0,0.0,0.0,0.0,0.0,0.0,0.0,0.0,0.0,0.0,0.0,0.0,0.0,0.0,0.0,0.0,0.0,0.0,0.0,0.0,0.0,0.0,0.0,0.0,0.0,0.0,0.0,0.0,0.0,0.0,0.0,0.0,0.0,0.0,0.0,0.0,0.0,0.0,0.0,0.0,0.0,0.0,0.0,0.0,0.0,0.0,0.0,0.0,0.0,0.0,0.0,0.0,0.0,0.0,0.0,0.0,0.0,0.0,0.0,0.0,0.0,0.0,0.0,0.0,0.0,0.0,0.0,0.0,0.0,0.0,0.0,0.0,0.0,0.0,0.0,0.0,0.0,2.2858,2.37,2.4446,2.4373,2.4219,2.4089,2.2751,2.1913,2.1899,2.0544,0.0,0.0,0.0,0.0,0.0,0.0,0.0,0.0,0.0,0.0,0.0,0.0,0.0,0.0,0.0,0.0,0.0,0.0,0.0,0.0,0.0,0.0,0.0,0.0,0.0,0.0,0.0,0.0,0.0,0.0,0.0,0.0,0.0,0.0,0.0,0.0,0.0,0.0,0.0,0.0,0.0,0.0,0.0,0.0,0.0,0.0,0.0,0.0,0.0,0.0,0.0,0.0,0.0,0.0,0.0,0.0,0.0,0.0,0.0,0.0,0.0,0.0,0.0,0.0,0.0,0.0,0.0,0.0,0.0,0.0,0.0,0.0,0.0,0.0,0.0,0.0,0.0,0.0,0.0,0.0,0.0,0.0,0.0,0.0,0.0,0.0,0.0,0.0,0.0,0.0,0.0,0.0,0.0,0.0,0.0,0.0,0.0,0.0,0.0,0.0,0.0,0.0,2.3522,2.3911,0.0,2.465,2.4468,2.4143,2.2909,2.2082,2.1913,0.0,0.0,0.0,0.0,0.0,0.0,0.0,0.0,0.0,0.0,0.0,0.0,0.0,0.0,0.0,0.0,0.0,0.0,0.0,0.0,0.0,0.0,0.0,0.0,0.0,0.0,0.0,0.0,0.0,0.0,0.0,0.0,0.0,0.0,0.0,0.0,0.0,0.0,0.0,0.0,0.0,0.0,0.0,0.0,0.0,0.0,0.0,0.0,0.0,0.0,0.0,0.0,0.0,0.0,0.0,0.0,0.0,0.0,0.0,0.0,0.0,0.0,0.0,0.0,0.0,0.0,0.0,0.0,0.0,0.0,0.0,0.0,0.0,0.0,0.0,0.0,0.0,0.0,0.0,0.0,0.0,0.0,0.0,0.0,0.0,0.0,0.0,0.0,0.0,0.0,0.0,0.0,0.0,0.0,0.0,0.0,0.0,0.0,0.0,0.0,0.0,0.0,2.2772,2.3867,2.4175,0.0,2.4962,2.4758,2.4297,2.2977,2.2096,2.1913,0.0,0.0,0.0,0.0,0.0,0.0,0.0,0.0,0.0,0.0,0.0,0.0,0.0,0.0,0.0,0.0,0.0,0.0,0.0,0.0,0.0,0.0,0.0,0.0,0.0,0.0,0.0,0.0,0.0,0.0,0.0,0.0,0.0,0.0,0.0,0.0,0.0,0.0,0.0,0.0,0.0,0.0,0.0,0.0,0.0,0.0,0.0,0.0,0.0,0.0,0.0,0.0,0.0,0.0,0.0,0.0,0.0,0.0,0.0,0.0,0.0,0.0,0.0,0.0,0.0,0.0,0.0,0.0,0.0,0.0,0.0,0.0,0.0,0.0,0.0,0.0,0.0,0.0,0.0,0.0,0.0,0.0,0.0,0.0,0.0,0.0,0.0,0.0,0.0,0.0,0.0,0.0,0.0,0.0,0.0,0.0,0.0,0.0,0.0,0.0,0.0,0.0,2.3021,2.4232,2.4617,2.5416,2.5315,2.5037,2.4634,2.2945,2.1899,0.0,0.0,0.0,0.0,0.0,0.0,0.0,0.0,0.0,0.0,0.0,0.0,0.0,0.0,0.0,0.0,0.0,0.0,0.0,0.0,0.0,0.0,0.0,0.0,0.0,0.0,0.0,0.0,0.0,0.0,0.0,0.0,0.0,0.0,0.0,0.0,0.0,0.0,0.0,0.0,0.0,0.0,0.0,0.0,0.0,0.0,0.0,0.0,0.0,0.0,0.0,0.0,0.0,0.0,0.0,0.0,0.0,0.0,0.0,0.0,0.0,0.0,0.0,0.0,0.0,0.0,0.0,0.0,0.0,0.0,0.0,0.0,0.0,0.0,0.0,0.0,0.0,0.0,0.0,0.0,0.0,0.0,0.0,0.0,0.0,0.0,0.0,0.0,0.0,0.0,0.0,0.0,0.0,0.0,0.0,0.0,0.0,0.0,0.0,0.0,0.0,0.0,0.0,2.302,2.4425,2.4921,2.5565,2.5376,2.5037,2.4634,2.3026,2.2004,2.1916,0.0,0.0,0.0,0.0,0.0,0.0,0.0,0.0,0.0,0.0,0.0,0.0,0.0,0.0,0.0,0.0,0.0,0.0,0.0,0.0,0.0,0.0,0.0,0.0,0.0,0.0,0.0,0.0,0.0,0.0,0.0,0.0,0.0,0.0,0.0,0.0,0.0,0.0,0.0,0.0,0.0,0.0,0.0,0.0,0.0,0.0,0.0,0.0,0.0,0.0,0.0,0.0,0.0,0.0,0.0,0.0,0.0,0.0,0.0,0.0,0.0,0.0,0.0,0.0,0.0,0.0,0.0,0.0,0.0,0.0,0.0,0.0,0.0,0.0,0.0,0.0,0.0,0.0,0.0,0.0,0.0,0.0,0.0,0.0,0.0,0.0,0.0,0.0,0.0,0.0,0.0,0.0,0.0,0.0,0.0,0.0,0.0,0.0,0.0,0.0,0.0,0.0,2.2799,2.436,2.4921,2.545,2.5268,2.4943,2.4533,2.3058,2.2028,2.1638,0.0,0.0,0.0,0.0,0.0,0.0,0.0,0.0,0.0,0.0,0.0,0.0,0.0,0.0,0.0,0.0,0.0,0.0,0.0,0.0,0.0,0.0,0.0,0.0,0.0,0.0,0.0,0.0,0.0,0.0,0.0,0.0,0.0,0.0,0.0,0.0,0.0,0.0,0.0,0.0,0.0,0.0,0.0,0.0,0.0,0.0,0.0,0.0,0.0,0.0,0.0,0.0,0.0,0.0,0.0,0.0,0.0,0.0,0.0,0.0,0.0,0.0,0.0,0.0,0.0,0.0,0.0,0.0,0.0,0.0,0.0,0.0,0.0,0.0,0.0,0.0,0.0,0.0,0.0,0.0,0.0,0.0,0.0,0.0,0.0,0.0,0.0,0.0,0.0,0.0,0.0,0.0,0.0,0.0,0.0,0.0,0.0,0.0,0.0,0.0,0.0,0.0,2.2566,2.4131,2.4723,2.5159,2.5065,2.4807,2.4341,2.3063,2.1984,2.1269,0.0,0.0,0.0,0.0,0.0,0.0,0.0,0.0,0.0,0.0,0.0,0.0,0.0,0.0,0.0,0.0,0.0,0.0,0.0,0.0,0.0,0.0,0.0,0.0,0.0,0.0,0.0,0.0,0.0,0.0,0.0,0.0,0.0,0.0,0.0,0.0,0.0,0.0,0.0,0.0,0.0,0.0,0.0,0.0,0.0,0.0,0.0,0.0,0.0,0.0,0.0,0.0,0.0,0.0,0.0,0.0,0.0,0.0,0.0,0.0,1.7555,0.0,0.0,0.0,0.0,0.0,0.0,0.0,0.0,0.0,0.0,0.0,0.0,0.0,0.0,0.0,0.0,0.0,0.0,0.0,0.0,0.0,0.0,0.0,0.0,0.0,0.0,0.0,0.0,0.0,0.0,0.0,0.0,0.0,0.0,0.0,0.0,0.0,0.0,0.0,0.0,0.0,2.3161,2.3916,2.4455,2.5126,2.4983,2.4704,2.4322,2.3063,2.2021,2.1401,2.0417,0.0,0.0,0.0,0.0,0.0,0.0,0.0,0.0,0.0,0.0,0.0,0.0,0.0,0.0,0.0,0.0,0.0,0.0,0.0,0.0,0.0,0.0,0.0,0.0,0.0,0.0,0.0,0.0,0.0,0.0,0.0,0.0,0.0,0.0,0.0,0.0,0.0,0.0,0.0,0.0,0.0,0.0,0.0,0.0,0.0,0.0,0.0,0.0,0.0,0.0,0.0,0.0,0.0,0.0,0.0,0.0,0.0,0.0,0.0,0.0,1.7907,0.0,0.0,0.0,0.0,0.0,0.0,0.0,0.0,0.0,0.0,0.0,0.0,0.0,0.0,0.0,0.0,0.0,0.0,0.0,0.0,0.0,0.0,0.0,0.0,0.0,0.0,0.0,0.0,0.0,0.0,0.0,0.0,0.0,0.0,0.0,0.0,0.0,0.0,0.0,0.0,2.2988,2.3615,2.4243,2.484,2.4791,2.4568,2.4219,2.318,2.2177,2.1361,2.0469,0.0,0.0,0.0,0.0,0.0,0.0,0.0,0.0,0.0,0.0,0.0,0.0,0.0,0.0,0.0,0.0,0.0,0.0,0.0,0.0,0.0,0.0,0.0,0.0,0.0,0.0,0.0,0.0,0.0,0.0,0.0,0.0,0.0,0.0,0.0,0.0,0.0,0.0,0.0,0.0,0.0,0.0,0.0,0.0,0.0,0.0,0.0,0.0,0.0,0.0,0.0,0.0,0.0,1.917,1.9428,1.9917,1.9696,1.9614,1.9615,1.9018,1.8394,1.7853,1.8313,0.0,0.0,0.0,0.0,0.0,0.0,0.0,0.0,0.0,0.0,0.0,0.0,0.0,0.0,0.0,0.0,0.0,0.0,0.0,0.0,0.0,0.0,0.0,0.0,1.9466,1.9451,0.0,0.0,0.0,0.0,0.0,0.0,0.0,0.0,0.0,0.0,0.0,0.0,2.2477,2.3325,2.4085,2.4552,2.4606,2.4452,2.4134,2.3347,2.2411,2.1353,2.0673,2.0008,0.0,0.0,0.0,0.0,0.0,0.0,0.0,0.0,0.0,0.0,0.0,0.0,0.0,0.0,0.0,0.0,0.0,0.0,0.0,0.0,0.0,0.0,0.0,0.0,0.0,0.0,0.0,0.0,0.0,0.0,0.0,0.0,1.5938,1.5869,0.0,0.0,0.0,0.0,0.0,0.0,0.0,0.0,0.0,0.0,0.0,0.0,0.0,1.8913,1.9484,1.9499,1.9579,1.9783,1.9783,1.989,2.0078,2.0264,2.0456,2.0625,2.065,0.0,1.8628,1.8531,0.0,0.0,0.0,0.0,0.0,0.0,0.0,0.0,0.0,0.0,0.0,0.0,0.0,0.0,0.0,0.0,0.0,0.0,0.0,0.0,0.0,0.0,1.9089,1.9552,1.9741,1.9849,0.0,1.9917,1.9919,2.0064,1.9905,0.0,0.0,0.0,0.0,0.0,0.0,0.0,2.2188,2.3189,2.4085,2.4552,2.4606,2.4452,2.4134,2.3501,2.271,2.1699,2.0795,2.0157,1.9822,1.9535,0.0,0.0,0.0,0.0,0.0,0.0,0.0,0.0,0.0,0.0,0.0,0.0,0.0,0.0,0.0,0.0,0.0,0.0,0.0,0.0,0.0,0.0,0.0,0.0,0.0,0.0,0.0,0.0,0.0,1.647,1.6876,1.6658,1.7392,1.788,0.0,0.0,0.0,0.0,0.0,0.0,0.0,0.0,0.0,1.9075,1.9307,1.9552,1.981,1.9958,2.0202,2.0528,2.0594,2.0838,2.1231,2.135,2.1543,2.1807,2.1743,2.1285,2.049,1.9712,1.9208,1.887,0.0,0.0,0.0,0.0,1.9047,1.9222,1.9222,1.9263,0.0,1.9383,0.0,0.0,0.0,0.0,0.0,0.0,0.0,0.0,0.0,0.0,1.9927,2.0243,2.049,2.0634,2.0607,2.0501,2.0365,0.0,2.0066,2.0012,2.0279,0.0,0.0,0.0,0.0,2.2055,2.2337,2.3352,2.4161,2.4566,2.4674,2.4582,2.4246,2.3768,2.3063,2.2096,2.1201,2.0485,2.0026,1.9807,1.9822,0.0,0.0,0.0,0.0,0.0,0.0,0.0,0.0,0.0,0.0,0.0,0.0,0.0,0.0,0.0,0.0,0.0,0.0,0.0,0.0,0.0,0.0,0.0,0.0,0.0,0.0,0.0,0.0,1.7067,1.75,1.7229,1.788,1.8313,0.0,0.0,0.0,0.0,0.0,0.0,1.8815,1.9075,1.943,1.996,2.0109,2.0259,2.0422,2.0689,2.1052,2.1516,2.1689,2.2055,2.2611,2.2611,2.2764,2.3026,2.2801,2.2534,2.2144,2.0892,2.0078,1.9576,1.9307,1.9197,1.9252,1.9345,1.9561,1.9805,1.9764,1.9791,1.9805,1.9722,0.0,1.9291,1.9359,0.0,0.0,0.0,0.0,1.9629,2.0066,2.0456,2.0778,2.0976,2.1177,2.1299,2.119,2.103,2.0783,0.0,2.0239,2.0212,2.041,0.0,0.0,0.0,0.0,2.2008,2.2586,2.3524,2.4265,2.4566,2.4723,2.4663,2.4327,2.3967,2.3361,2.2475,2.1676,2.0946,2.0311,2.0094,1.9999,1.996,0.0,0.0,0.0,0.0,0.0,0.0,0.0,0.0,0.0,0.0,0.0,0.0,0.0,0.0,0.0,0.0,0.0,0.0,0.0,0.0,0.0,0.0,0.0,0.0,0.0,0.0,0.0,0.0,0.0,1.7229,1.7961,0.0,0.0,0.0,0.0,1.871,1.8981,1.932,1.9795,2.0078,2.0388,2.0734,2.0881,2.1218,2.1791,2.2082,2.2431,2.29,2.3162,2.3542,2.3994,2.3994,2.4089,2.4205,2.3926,2.3551,2.3031,2.1689,2.0976,2.0677,2.0347,2.0304,2.0426,2.0426,2.0629,2.0892,2.0772,2.0811,2.0878,2.0548,2.0266,2.001,1.9905,1.9942,0.0,0.0,2.0331,2.0508,2.0865,2.1144,2.1401,2.1617,2.1672,2.1668,2.1672,2.1408,2.1039,0.0,2.0386,2.0304,2.032,0.0,2.0401,2.0732,2.1516,2.2249,2.2727,2.3668,2.4368,2.4579,2.4723,2.4663,2.4327,2.4048,2.3569,2.2822,2.2198,2.1533,2.0802,2.0458,2.0225,2.009,2.0078,0.0,0.0,0.0,0.0,0.0,0.0,0.0,0.0,0.0,0.0,0.0,0.0,0.0,0.0,0.0,0.0,0.0,0.0,0.0,0.0,0.0,0.0,0.0,0.0,0.0,0.0,0.0,0.0,2.2228,2.091,0.0,2.2594,2.0255,1.8859,1.9457,1.94,1.9737,2.0689,2.3236,2.5126,2.6118,2.6188,2.7754,3.0936,2.5979,2.4918,2.772,2.5184,2.4219,2.4685,2.4685,2.4753,2.4869,2.4685,2.4419,2.4039,2.3253,2.232,2.1329,2.0919,2.0767,2.0822,2.0914,2.1163,2.1465,2.1492,2.1601,2.1621,2.112,2.077,2.0528,2.0334,2.0401,2.0582,2.07,2.0917,2.1158,2.1489,2.1771,2.2011,2.2082,2.2099,2.2055,2.1994,2.1869,2.1706,2.1445,2.1123,2.0846,2.077,2.0756,2.0849,2.1147,2.1781,2.2462,2.3095,2.3939,2.4601,2.4826,2.4902,2.4813,2.4533,2.4121,2.3596,2.285,2.2144,2.1522,2.0946,2.0431,2.0184,2.0225,1.9859,1.9791,0.0,0.0,0.0,0.0,0.0,0.0,0.0,0.0,0.0,0.0,0.0,0.0,0.0,0.0,0.0,0.0,0.0,0.0,0.0,0.0,0.0,0.0,0.0,0.0,0.0,2.0381,2.2742,2.5615,2.4071,2.3594,2.5623,2.1948,1.9698,2.0297,2.1447,2.2655,2.3869,2.7813,3.0467,3.1473,3.0313,3.1808,3.6265,2.9843,2.876,3.2969,2.8911,2.7193,2.7509,2.5994,2.6187,2.7597,2.5955,2.5923,2.6851,2.5028,2.3587,2.252,2.1923,2.1652,2.1611,2.176,2.1994,2.2212,2.2249,2.2235,2.2096,2.1597,2.1315,2.1139,2.096,2.1041,2.1193,2.134,2.1527,2.1771,2.2062,2.2344,2.2539,2.2539,2.2539,2.2516,2.2425,2.2326,2.2235,2.2144,2.1787,2.1459,2.1329,2.1299,2.1421,2.1743,2.2214,2.2801,2.3492,2.418,2.4682,2.4921,2.497,2.4861,2.4528,2.408,2.3528,2.2786,2.1984,2.1356,2.0946,2.0431,2.0184,2.0223,1.9681,1.96,1.9993,0.0,0.0,0.0,0.0,0.0,0.0,0.0,0.0,0.0,0.0,0.0,0.0,0.0,0.0,0.0,0.0,0.0,0.0,0.0,0.0,0.0,0.0,0.0,1.9007,2.3416,2.679,2.7189,2.7416,2.7311,2.6706,2.3075,2.0937,2.1412,2.5382,2.8274,2.9468,3.3662,3.611,3.6252,3.2979,3.3143,3.7095,3.3546,3.3989,3.8391,3.4186,3.2441,3.2683,2.8186,2.8592,3.2586,2.8089,2.8276,3.1386,2.7026,2.4868,2.4241,2.3384,2.2954,2.285,2.2995,2.3113,2.3207,2.3058,2.2733,2.2282,2.2018,2.194,2.1899,2.1763,2.1818,2.1954,2.2082,2.2218,2.2381,2.2568,2.2822,2.3008,2.3008,2.2991,2.2991,2.2991,2.2795,2.2609,2.2609,2.2361,2.2099,2.194,2.1913,2.2076,2.2541,2.2836,0.0,2.3822,2.4302,2.4642,2.4772,2.4921,2.4807,2.4341,2.3931,2.3366,2.2623,2.1709,2.1055,2.0788,2.0458,2.0212,2.0078,1.9642,1.9424,1.9412,0.0,0.0,0.0,0.0,0.0,0.0,0.0,0.0,0.0,0.0,0.0,0.0,0.0,0.0,0.0,0.0,0.0,0.0,0.0,0.0,0.0,2.1351,2.3993,2.4536,2.6301,2.987,3.6196,3.4602,3.2787,3.2316,3.1334,2.9719,2.7253,3.1262,3.4106,3.4756,3.9035,4.0197,3.7434,3.9549,4.1274,4.2392,3.8711,3.9116,4.3478,3.6038,3.4539,3.8173,3.3522,3.3816,3.788,3.6616,3.4591,3.2096,3.0772,2.8146,2.4888,2.4205,2.3853,2.3754,2.379,2.3768,2.37,2.366,2.3411,2.305,2.2787,2.2628,2.2497,2.2218,2.2249,2.245,2.2565,2.2692,2.2828,2.2995,2.3103,2.3153,2.3153,2.3058,2.2991,2.2991,2.294,2.2886,2.2886,2.2882,2.2747,2.2272,2.2398,2.2609,2.2731,2.2981,0.0,2.3822,2.4107,2.4392,2.4758,2.4737,2.4596,2.4327,2.3628,2.289,2.2147,2.1215,2.0523,2.0148,1.9834,1.9627,1.9588,1.9805,1.9805,0.0,0.0,0.0,0.0,0.0,0.0,0.0,0.0,0.0,0.0,0.0,0.0,0.0,0.0,0.0,0.0,0.0,0.0,0.0,0.0,0.0,0.0,2.3481,2.793,3.0507,3.2421,3.5567,4.0989,3.9781,3.8365,3.8017,3.6587,3.485,3.2805,3.6769,3.9505,3.9969,4.4257,4.4819,4.0744,4.3457,4.4886,4.4696,4.2944,4.4283,4.8527,4.1895,4.0339,4.3161,3.8583,3.8833,4.2692,4.0889,3.8303,3.5271,3.3304,2.9725,0.0,0.0,0.0,0.0,0.0,2.4216,2.4061,2.4061,2.3872,2.3573,2.3361,2.3243,2.3117,2.2855,2.29,2.3071,2.3045,2.3113,2.3189,2.3257,2.3271,2.3316,2.3402,2.3289,2.3167,2.3167,2.3108,2.3085,2.3085,2.3189,0.0,2.282,2.2923,2.3031,2.2981,2.328,2.3578,2.3782,2.4107,2.4406,2.4682,2.4764,2.4609,2.4246,2.3465,0.0,0.0,0.0,2.0064,1.9618,1.9549,0.0,0.0,0.0,1.9822,1.9576,0.0,0.0,0.0,1.9101,1.9061,0.0,0.0,0.0,0.0,0.0,0.0,0.0,0.0,0.0,0.0,0.0,0.0,0.0,0.0,0.0,0.0,2.5599,3.1317,3.6662,4.0378,4.2819,4.3629,4.3917,4.3768,4.3068,4.0365,3.8497,3.8163,4.2089,4.4681,4.5105,0.0,0.0,0.0,0.0,4.6107,4.5305,4.6666,4.9233,5.2947,4.9081,4.7534,4.7883,4.3483,4.3678,4.7316,4.3397,4.1213,4.0032,3.5519,3.0613,2.5898,2.5281,2.4983,2.49,2.4737,2.4601,2.4436,2.4422,0.0,0.0,2.3841,2.3786,2.3727,2.3542,2.3587,2.3687,2.3487,2.3415,2.3402,2.3402,2.3415,2.3492,2.3664,2.3573,2.3447,2.342,2.3325,2.3262,2.3235,2.3338,2.3433,2.3433,2.3433,2.3393,2.3275,2.3605,2.3841,2.3732,2.4194,2.4566,2.4606,0.0,0.0,2.4156,2.3415,2.2601,2.1753,2.0571,1.97,1.9237,1.9538,1.9688,1.9674,1.9689,1.9605,1.9439,1.929,1.9237,1.925,1.9344,1.9303,0.0,0.0,0.0,0.0,0.0,0.0,0.0,0.0,0.0,0.0,0.0,0.0,0.0,0.0,0.0,2.5795,3.1057,3.6578,4.2315,4.6828,4.9494,4.944,4.9264,4.7893,4.4653,4.655,4.6663,4.3511,4.7441,5.0009,5.0094,5.1608,5.0444,4.6074,4.9967,5.0527,4.7127,5.0775,5.3159,5.4114,0.0,0.0,5.2942,4.8361,4.8609,5.2621,5.1553,4.8859,4.4823,4.0193,3.3544,2.6244,2.5639,2.5443,2.5511,2.5381,2.5313,2.5233,2.5092,2.4848,2.4596,2.4484,2.4311,2.4151,2.4021,2.3931,0.0,2.3687,2.3519,2.3402,2.3402,2.3519,2.3646,2.3687,2.3754,2.3727,2.346,2.3506,2.3551,2.3393,2.3501,2.3651,2.3651,2.3651,2.3632,2.361,2.3678,2.3773,2.3854,2.4053,2.4297,2.456,2.4661,2.4533,2.4143,2.3334,2.251,2.1753,2.0571,1.9741,1.9385,1.9579,1.9618,1.9451,1.962,1.9674,1.9634,1.9452,1.9439,1.9606,1.9345,1.9222,0.0,0.0,0.0,0.0,0.0,0.0,0.0,0.0,0.0,0.0,0.0,1.8409,1.9074,0.0,2.2745,2.8089,3.3544,3.9046,4.461,4.9392,5.2165,5.173,5.1543,5.0665,4.8698,5.0298,5.0705,4.8901,5.0997,5.2365,5.2365,5.2919,5.1236,4.6882,5.1381,5.1871,4.7637,5.2206,5.4622,5.4735,5.2544,5.2725,5.4887,5.2426,5.24,5.4282,5.4002,5.1122,4.6241,4.1542,3.6942,3.282,3.2507,2.9747,2.5884,2.5674,2.5606,2.5565,2.541,2.5192,2.4989,2.484,2.4691,2.4522,2.4392,2.4224,2.4061,2.3944,2.3782,2.3682,2.3731,2.3817,2.3931,2.398,2.3994,2.3944,2.3695,2.3687,2.3687,2.3668,2.379,2.3885,2.3885,2.3958,2.3926,2.3732,2.3809,2.389,2.389,2.4161,2.4406,2.4579,2.4723,2.4609,2.4143,2.3103,2.2127,2.141,2.0634,2.0035,1.9673,1.9822,1.9822,1.9642,1.9741,1.9797,1.9797,1.963,1.9605,1.9703,1.9538,1.9442,0.0,0.0,0.0,0.0,0.0,0.0,0.0,1.8417,1.9116,1.8709,1.9355,2.0168,2.0818,2.231,2.5251,3.0816,3.5962,4.1219,4.6866,5.1056,5.3367,5.2866,5.2673,5.2566,5.2566,5.2566,5.2673,5.2953,5.3173,5.33,5.33,5.3654,5.2207,4.866,5.2321,5.2697,4.9245,5.322,5.5284,5.5311,5.5557,5.5637,5.5557,5.5237,5.4943,5.4655,5.4222,5.1235,4.6391,4.2514,4.0312,3.9407,3.9407,3.5046,2.8725,2.8457,2.8353,2.8254,2.7225,2.6762,2.643,2.5446,2.5063,2.4913,2.4764,2.4596,2.4395,2.4238,2.4089,2.3994,2.4097,2.417,2.4211,2.4281,2.4246,2.4143,2.3944,2.3841,2.3809,2.3922,2.4048,2.4156,2.4197,2.4292,2.4224,2.3841,2.3958,2.4066,2.3944,2.4335,2.4606,2.4606,2.484,2.4739,2.408,2.2954,2.1947,2.1218,2.0889,2.0537,2.0136,2.0159,2.0103,1.9971,1.996,1.9917,1.9905,1.9798,1.9729,1.9703,1.9729,1.973,2.1223,1.8918,1.7582,1.7283,1.9271,2.062,0.0,2.0798,2.316,2.0386,2.1746,2.3534,2.3864,2.6235,3.0512,3.775,4.1226,4.5387,5.2259,5.4117,5.4777,5.4696,5.3995,5.3561,5.3561,5.3561,5.3561,5.3608,5.3614,5.3648,5.3648,5.4142,5.4084,5.3346,5.4589,5.5142,5.4964,5.5748,5.6257,5.6524,5.6551,5.6439,5.6172,5.5617,5.5344,5.5243,5.4189,5.1051,4.6633,4.5873,4.3261,3.9733,3.9733,3.9126,3.8218,3.7889,3.789,3.7446,3.3259,3.171,3.0928,2.6908,2.5538,2.5395,2.5192,2.5037,2.488,2.4615,2.4406,2.426,2.4273,2.44,2.4487,2.4346,2.4414,2.4425,2.3985,2.3985,2.4066,2.4061,2.4192,2.4327,2.4506,2.4566,2.4452,2.4102,2.4089,2.4083,2.4089,2.4384,2.4606,2.4606,2.484,2.4663,2.3827,2.3225,2.2588,2.1845,2.1655,2.1356,2.0892,2.0618,2.0386,2.0266,2.0132,2.001,1.9905,1.9892,1.981,1.9703,1.981,1.981,2.1257,1.8805,1.8127,2.0324,2.2102,2.3644,2.4947,2.6271,2.6907,2.586,2.5977,2.655,2.7494,2.9577,3.3471,4.0537,4.3437,4.7113,5.3694,5.4857,5.4937,5.4735,5.4249,5.4075,5.4402,5.4456,5.4503,5.469,5.4877,5.4898,5.4696,5.489,5.5056,5.5151,5.5658,5.5985,5.6113,5.6594,5.6781,5.6685,5.6893,5.6914,5.6802,5.6193,5.5658,5.513,5.4275,5.2727,5.0759,5.0439,4.9153,4.7384,4.7384,4.7384,4.6713,4.1432,3.9529,3.8948,3.4327,3.2708,3.1927,2.7324,2.5776,2.5687,2.545,2.5192,2.4983,2.4962,2.4766,2.4617,2.4679,2.4766,2.4772,2.4528,2.4547,2.4498,2.4107,2.4066,2.4156,2.4351,2.4438,2.4528,2.4682,2.4723,2.4642,2.4425,2.4292,2.4192,2.4097,2.4392,2.4655,2.4832,2.4685,2.4414,2.3967,2.3438,2.2927,2.2442,2.2113,2.1777,2.1424,2.1014,2.0729,2.0594,2.0334,2.0184,2.0132,2.0051,1.9999,1.9929,1.9999,1.9999,2.2569,2.0643,2.0463,2.4332,2.6432,2.8228,3.0718,3.1411,3.1385,3.0811,3.0613,3.0793,3.159,3.3678,3.7161,4.2966,4.5644,4.89,5.4366,5.5198,5.5044,5.4462,5.4015,5.3975,5.4583,5.4857,5.5151,5.5504,5.5845,5.5899,5.5664,5.5723,5.5851,5.6,5.6374,5.6567,5.6567,5.7069,5.723,5.708,5.7315,5.747,5.7417,5.6733,5.5931,5.507,5.4462,5.4055,5.3781,5.3467,5.3173,5.2899,5.2899,5.2872,5.2027,4.5587,4.3221,4.2598,3.8046,3.5703,3.3981,2.9319,2.7011,2.5979,2.5687,2.5443,2.5241,2.5287,2.5138,2.5022,2.5111,2.5111,2.4997,2.4778,2.4688,2.4587,2.4297,2.4243,2.4311,2.4601,2.4655,2.4702,2.4826,2.4867,2.4832,2.4723,2.4549,2.4381,2.4256,2.5481,2.5983,2.5105,2.5621,2.5508,2.4223,2.3628,2.3198,2.289,2.2408,2.2059,2.1818,2.1285,2.0946,2.0854,2.0523,2.0331,2.0304,2.0196,2.0132,2.0105,2.0171,2.0212,2.6143,2.5507,2.5258,2.8898,3.2701,3.4956,3.2771,3.519,3.7019,3.3855,3.5324,3.6992,3.6242,3.9074,4.2654,4.6106,4.8703,5.1473,5.4911,5.5679,5.5445,5.4249,5.336,5.3079,5.3674,5.4503,5.5258,5.5834,5.616,5.6278,5.6273,5.6524,5.6567,5.63,5.6861,5.7176,5.7176,5.747,5.7737,5.8053,5.8053,5.8053,5.8026,5.7107,5.6198,5.535,5.4742,5.4335,5.4062,5.3801,5.3487,5.318,5.318,5.304,5.2773,5.2496,5.2416,5.1763,4.725,4.2933,3.8626,3.4076,2.9776,2.6312,2.5993,2.5884,2.5817,2.5551,2.549,2.549,2.549,2.5342,2.5154,2.5024,2.4894,2.4764,2.462,2.4579,2.4634,2.4778,2.4786,2.4845,2.497,2.4977,2.4977,2.4983,2.488,2.4737,2.4606,2.8168,2.9235,2.5408,2.8249,2.8699,2.4465,2.3836,2.3488,2.3022,2.2553,2.2228,2.2096,2.1394,2.1001,2.0984,2.067,2.0424,2.0304,2.0304,2.0225,2.0121,2.0372,2.0494,2.9602,2.9326,3.0063,3.4597,3.7209,3.917,4.1093,4.1563,4.1172,3.9702,3.9528,3.9487,3.904,4.1826,4.4914,4.7176,5.0219,5.2965,5.4864,5.5878,5.5658,5.3474,5.3474,5.336,5.2578,5.3487,5.469,5.6059,5.6406,5.6674,5.6887,5.6989,5.7074,5.716,5.7368,5.7475,5.7475,5.7791,5.7876,5.7769,5.8,5.7978,5.7737,5.7032,5.6444,5.5958,5.5177,5.4649,5.4335,5.4082,5.3788,5.3514,5.3514,5.3481,5.3374,5.3147,5.3066,5.2397,4.7815,4.5281,4.281,3.5402,3.2007,3.0229,2.7017,2.5973,2.5884,2.5796,2.5694,2.5627,2.5627,2.5592,2.545,2.5092,2.497,2.488,2.4661,2.4606,2.4642,2.4778,2.488,2.4989,2.5099,2.5247,2.5315,2.5315,2.5016,2.5772,2.8446,3.019,3.0611,2.92,3.0253,2.9211,2.463,2.3999,2.3668,2.3284,2.2778,2.2411,2.2241,2.1621,2.1212,2.112,2.093,2.0808,2.0754,2.0754,2.074,2.0702,2.0795,2.0822,3.4243,3.4414,3.5564,4.0275,4.2282,4.3756,4.6384,4.5704,4.4398,4.386,4.3132,4.2523,4.2259,4.4478,4.6851,4.8502,5.1045,5.3385,5.492,5.5397,5.499,5.332,5.3247,5.2966,5.2138,5.2853,5.4156,5.6006,5.6492,5.6893,5.7315,5.747,5.7604,5.7769,5.7791,5.7791,5.7791,5.8,5.8,5.7791,5.8005,5.8,5.7769,5.716,5.6706,5.6385,5.5531,5.497,5.4655,5.4362,5.4082,5.3841,5.3841,5.3701,5.3487,5.328,5.3147,5.2635,4.9657,4.6581,4.3044,3.7348,3.339,3.0257,2.7159,2.6156,2.6376,2.7753,2.6994,2.6465,2.9507,2.7996,2.5995,2.7109,2.6193,2.4997,2.4791,2.4737,2.4772,2.4921,2.497,2.5032,2.5181,2.5375,2.6029,2.7637,2.768,2.8405,3.0862,3.3935,3.4679,3.1564,3.2585,3.0975,2.4767,2.4039,2.3736,2.3347,2.2877,2.2514,2.2309,2.1727,2.1334,2.1201,2.1068,2.1001,2.1001,2.1001,2.1001,2.1001,2.1055,2.1068,3.988,4.0652,4.1678,4.5761,4.7642,4.8489,4.8462,4.7651,4.6699,4.6116,4.6021,4.5955,4.5701,4.6969,4.8525,5.0017,5.1297,5.288,5.5059,5.4503,5.3862,5.3755,5.2773,5.2185,5.2359,5.2726,5.3761,5.578,5.638,5.6946,5.7587,5.7924,5.8107,5.8107,5.8107,5.8107,5.8107,5.8107,5.8107,5.8107,5.8107,5.8107,5.8102,5.7497,5.7048,5.6679,5.5798,5.5264,5.499,5.4649,5.4341,5.4121,5.4121,5.3748,5.3253,5.3234,5.3047,5.2826,5.2792,4.7384,4.0441,4.0218,3.4542,2.7696,2.7197,2.7038,2.7806,3.1498,2.9647,2.8393,3.642,3.2297,2.6987,3.0807,2.8386,2.5173,2.5037,2.4997,2.5037,2.5173,2.5099,2.5078,2.5194,2.5579,2.7297,3.1555,3.2705,3.2885,3.2409,3.9255,4.1045,3.3003,3.5309,3.389,2.5184,2.4115,2.37,2.3235,2.2836,2.2537,2.2323,2.1754,2.1374,2.1245,2.1109,2.1041,2.1055,2.1041,2.1041,2.1055,2.1177,2.1245,4.4414,4.5418,4.6494,4.8678,4.9628,4.9932,4.9459,4.8549,4.7429,4.6239,4.616,4.6059,4.518,4.6984,4.8826,4.9526,5.1843,5.3839,5.4614,5.5798,5.6038,5.4468,0.0,5.4777,5.3741,5.4296,5.5151,5.6113,5.616,5.6668,5.7919,5.8031,5.8107,5.8107,5.8107,5.8107,5.8107,5.8107,5.8107,5.8107,5.8107,5.8107,5.8085,5.7689,5.7347,5.7,5.616,5.5578,5.5264,5.4735,5.4448,5.4415,5.4415,5.4175,5.3848,5.3668,5.338,5.3066,5.2872,5.136,4.8939,4.5696,4.3124,4.0642,3.6966,3.587,3.6017,3.6711,3.6124,3.579,3.793,3.4551,3.0738,3.1527,2.8478,2.5361,2.5051,2.4997,2.5037,2.5173,2.5376,2.5532,2.5572,2.8308,3.0889,3.2012,3.7755,4.1768,4.1308,4.3286,4.3782,4.1181,3.8957,3.5364,2.9575,2.5903,2.3736,2.3379,2.3058,2.2778,2.2537,2.2231,2.1957,2.172,2.1587,2.156,2.1668,2.156,2.156,2.1668,2.1709,2.1723,4.7978,4.887,4.9761,5.0963,5.123,5.1043,5.0581,4.9524,4.8335,4.7264,4.6956,4.6734,4.6262,4.7599,4.9045,4.979,5.1725,5.3554,5.4735,5.5563,5.5931,5.5516,5.5872,5.5792,5.4964,5.5551,5.6198,5.6839,5.6615,5.6962,5.8026,5.8214,5.8294,5.8294,5.8294,5.8294,5.8294,5.8138,5.8107,5.8107,5.8107,5.8107,5.8085,5.763,5.7336,5.7123,0.0,5.5578,5.535,5.4742,5.4501,5.4501,5.4501,5.4255,5.3895,5.3775,5.3407,5.2986,5.2853,5.2792,5.2073,4.7723,4.5015,4.2918,4.0169,3.9328,3.9646,4.1172,4.028,3.9687,4.3264,3.9699,3.504,3.4655,3.1382,2.7784,2.567,2.522,2.5233,2.5315,2.5477,2.566,2.5762,2.9402,3.2997,3.5133,4.1245,4.612,4.7557,4.7808,4.6886,4.4372,4.0371,3.5937,3.1051,2.6553,2.3817,2.3415,2.3153,2.29,2.2691,2.2452,2.2201,2.1991,2.1859,2.1818,2.1899,2.1818,2.1859,2.1991,2.1991,2.1991,5.0734,5.1402,5.2071,5.2846,5.2559,5.1971,5.1643,5.0368,4.913,4.8435,4.7847,4.7509,4.7705,4.8239,4.9067,5.028,5.1356,5.2773,5.497,5.4857,5.5077,5.6652,5.646,5.6208,5.6235,5.67,5.724,5.7796,5.7662,5.7737,5.8192,5.8432,5.8539,5.8491,5.8491,5.8486,5.8432,5.8214,5.8107,5.8107,5.8107,5.8102,5.8026,5.7497,5.7203,5.7074,5.5985,5.5456,5.535,5.4816,5.4549,5.4501,5.4501,5.4168,5.3694,5.3694,5.332,5.2792,5.2792,5.2792,5.2179,4.8382,4.4614,4.149,4.1338,4.1293,4.2011,4.5457,4.3787,4.2614,4.9705,4.5703,3.9687,3.9211,3.5488,3.1001,2.715,2.5911,2.5517,2.5503,2.5544,2.5619,2.583,2.9981,3.4687,3.8888,4.3748,4.8127,5.1424,5.167,4.9857,4.5487,4.0786,3.6167,3.1693,2.6877,2.3912,2.3429,2.318,2.2977,2.2836,2.2557,2.2323,2.2194,2.2062,2.2008,2.2021,2.2008,2.2059,2.2177,2.2177,2.2177,5.2566,5.3347,5.4035,5.4168,5.3581,5.2773,5.2024,5.0528,4.8988,4.7874,4.7419,4.709,4.6867,4.75,4.8452,4.9654,5.1437,5.3093,5.4468,5.5798,5.6861,5.7374,5.7604,5.7812,5.8031,5.8308,5.8682,5.9078,5.9266,5.9168,5.8785,5.8811,5.8709,5.8513,5.8491,5.8384,5.8187,5.8112,5.8107,5.8107,5.8107,5.7956,5.7689,5.7582,5.7267,5.6759,5.6332,0.0,5.537,5.505,5.4756,5.4501,5.4501,5.4168,5.3694,5.3694,5.332,5.2792,5.2792,5.2792,5.2693,5.1935,5.1156,5.0489,5.0182,5.0086,5.0192,5.0658,5.0281,5.0027,5.1461,4.8149,4.4336,4.3924,3.7949,3.2021,3.0863,2.8015,2.5627,2.5517,2.5674,2.5823,2.5749,3.2427,3.8071,3.8904,4.5978,5.131,5.1539,5.173,5.13,4.9947,4.261,3.7363,3.6196,2.8721,2.3912,2.3429,2.3366,2.3217,2.2981,2.2909,2.2818,2.2669,2.2555,2.2541,2.2646,2.2541,2.2555,2.2673,2.2673,2.2673,5.3875,5.467,5.5237,5.5237,5.4349,5.3193,5.2151,5.0421,4.8658,4.7322,4.6938,4.6707,4.6218,4.6992,4.8025,4.9058,5.0723,5.2372,5.3868,5.5492,5.6722,5.7315,5.7796,5.8272,5.8678,5.8976,5.9372,5.9827,5.9987,5.9858,5.9381,5.9243,5.9105,5.8972,5.8678,5.8513,5.8513,5.824,5.8107,5.8107,5.8107,5.7924,5.7587,5.7475,5.7155,5.6679,5.6273,5.5845,5.537,5.5097,5.4783,5.4501,5.4501,5.4168,5.3694,5.3694,5.332,5.2792,5.2792,5.2792,5.2792,5.2792,5.2792,5.2766,5.2605,5.2559,5.2532,5.2379,5.2365,5.2345,5.2158,5.0612,4.8465,4.5912,3.8822,3.1917,2.9327,2.7224,2.5796,2.5728,2.5817,2.6646,2.8987,3.4867,4.0063,4.2401,4.833,5.2379,5.1971,5.1891,5.1624,5.0856,4.3061,3.7753,3.7379,2.9373,2.4189,2.3785,2.3623,2.3451,2.3217,2.3068,2.2981,2.29,2.2768,2.2745,2.2795,2.2745,2.2768,2.29,2.29,2.29,5.4756,5.5578,5.6027,5.592,5.4824,5.3367,5.1829,4.991,4.8039,4.6375,4.6005,4.5811,4.5327,4.6277,4.7401,4.8314,4.9855,5.149,5.3167,5.4791,5.6086,5.6909,5.763,5.8325,5.895,5.9297,5.9773,6.0415,6.0415,6.0201,5.9835,5.9533,5.9372,5.9292,5.8785,5.8571,5.8709,5.8321,5.8107,5.8107,5.8107,5.7924,5.7587,5.7315,5.7,5.6658,5.6113,5.5706,5.537,5.5097,5.4783,5.4501,5.4501,5.4222,5.3781,5.3721,5.3354,5.2872,5.2826,5.2792,5.2792,5.2792,5.2792,5.2792,5.2792,5.2792,5.2792,5.2792,5.2792,5.2746,5.2479,5.2413,5.1042,4.5587,3.9106,3.2652,2.7316,2.602,2.5925,2.5939,2.5932,2.7393,3.1969,3.6562,4.1116,4.5584,4.9999,5.2685,5.2332,5.2131,5.1711,5.0956,4.3187,3.7901,3.753,2.9608,2.4533,2.4116,2.3885,2.3668,2.3415,2.3207,2.3058,2.3045,2.294,2.289,2.289,2.289,2.294,2.3045,2.3045,2.3045,5.505,5.5985,5.6492,5.6006,5.4964,5.3347,5.07,4.8712,4.6819,4.4677,4.4059,4.3872,4.3786,4.4864,4.6145,4.7253,4.9245,5.1062,5.2252,5.4168,5.5685,5.63,5.7411,5.8428,5.9288,5.9591,6.0102,6.0957,6.0793,6.0415,5.9835,5.9533,5.9266,5.8972,5.8678,5.8384,5.8187,5.8112,5.8107,5.8107,5.8107,5.7924,5.7587,5.7315,5.7,5.6658,5.6113,5.5706,0.0,5.5097,5.4783,5.4501,5.4501,5.4335,5.4035,5.3781,5.3481,5.3147,5.2879,5.2792,5.2792,5.2792,5.2792,5.2792,5.2792,5.2792,5.2792,5.2792,5.2792,5.2792,5.2766,5.2746,5.0611,4.2176,3.9226,3.6145,2.8099,2.6115,2.5939,2.6054,2.6075,2.7479,3.186,3.6489,4.1073,4.5471,4.9931,5.2685,5.2332,5.2272,5.2138,5.1837,4.3626,3.8087,3.7793,2.9914,2.4726,2.4143,2.4089,2.3853,2.3415,2.3375,2.3311,2.318,2.3167,2.3167,2.3167,2.3167,2.3167,2.318,2.318,2.318,5.4442,5.5531,5.6166,5.5952,5.4103,5.1843,4.9883,4.7451,4.5098,4.3334,4.3036,4.3019,4.2858,4.3684,4.4705,4.5622,4.7526,4.9195,5.0189,5.2031,5.3848,5.5358,5.6267,5.7524,5.9457,5.9911,6.0308,6.0819,6.0766,6.0419,5.9835,5.9697,5.9506,5.9212,5.8896,5.8598,5.8325,5.8187,5.8107,5.8107,5.8107,5.7924,5.7587,5.7315,5.7,5.6679,5.63,5.5979,0.0,5.537,5.507,5.4783,5.4575,5.4335,5.4088,5.3975,5.3755,5.3487,5.338,5.332,5.33,5.3093,5.3186,5.33,5.3093,5.3173,5.332,5.332,5.3193,5.304,5.304,5.2933,5.0594,4.1808,3.9591,3.706,2.8293,2.6373,2.6257,2.602,2.8326,3.1677,3.5897,4.0529,4.5098,4.949,5.1638,5.2746,5.2639,5.2432,5.2252,5.2146,4.6246,4.1229,3.8559,3.2617,2.778,2.4824,2.4563,2.4311,2.384,2.3731,2.3646,2.351,2.351,2.351,2.351,2.3384,2.3325,2.3325,2.3235,2.3207,5.2815,5.389,5.4495,5.4395,5.2355,4.9879,4.8065,4.577,4.358,4.1979,4.1795,4.1887,4.1686,4.2238,4.306,4.4176,4.5709,4.7183,4.837,5.0115,5.1859,5.3439,5.4333,5.5899,5.8634,5.9884,6.0602,6.0793,6.0682,6.0419,6.0076,5.9889,5.9617,5.9266,5.895,5.8656,5.8384,5.8192,5.8107,5.8107,5.8107,5.7924,5.7587,5.7315,5.7,5.6679,5.6246,5.5979,0.0,5.5364,5.5077,5.4964,5.4629,5.4368,5.4222,5.4142,5.3975,5.3801,5.3721,5.3694,5.3668,5.3407,5.3567,5.3781,5.3547,5.3494,5.3561,5.3561,5.3334,5.3086,5.3086,5.2953,5.0918,4.3486,4.0703,3.7672,3.0077,2.7443,2.6447,2.6176,2.9893,3.4432,3.8668,4.3221,4.7783,5.2139,5.2792,5.2792,5.2792,5.2585,5.2439,5.2439,4.9268,4.5358,4.0942,3.5234,3.0485,2.7123,2.5609,2.4682,2.4256,2.4107,2.3958,2.3822,2.3786,2.3754,2.3754,2.3573,2.3487,2.3487,2.3397,2.3343,4.9964,5.0853,5.1173,5.0931,4.9582,4.7602,4.4873,4.358,4.2392,4.051,4.0124,4.0124,4.0124,4.0399,4.1215,4.3024,4.407,4.5282,4.7163,4.8788,4.9946,5.0305,5.1537,5.3507,5.6444,5.9381,6.109,6.109,6.0602,6.0415,6.0682,6.0102,5.951,5.8901,5.8624,5.8379,5.8107,5.8107,5.8107,5.8107,5.8107,5.7924,5.7587,5.7315,5.7,5.6658,5.5777,5.5584,0.0,5.489,5.4682,5.4964,5.4629,5.4501,5.4448,5.4195,5.4088,5.4062,5.3781,5.3694,5.3694,5.3694,5.3888,5.4088,5.4088,5.3681,5.32,5.32,5.3006,5.2792,5.2792,5.2792,5.1697,4.726,4.2849,3.8443,3.416,2.9634,2.6441,2.6577,3.0119,3.4485,3.8847,4.3334,4.7783,5.2139,5.2792,5.2792,5.2792,5.2792,5.2792,5.2792,5.2446,5.0261,4.5362,3.7244,3.2116,3.1478,2.7379,2.488,2.4606,2.44,2.4227,2.4102,2.3958,2.389,2.389,2.3754,2.3705,2.3705,2.3705,2.3687,4.6914,4.7721,4.8166,4.825,4.6731,4.4893,4.3668,4.1998,4.0532,3.9947,3.9697,3.968,4.0018,3.9815,4.0163,4.1914,4.2771,4.381,4.5454,4.8061,5.0468,5.2205,5.5761,5.8491,5.9595,6.0556,6.109,6.109,6.0766,6.0521,6.0415,6.025,5.9934,5.951,5.9034,5.8624,5.8379,5.8192,5.8107,5.8107,5.8107,5.7924,5.7587,5.7502,5.7187,5.6663,5.6418,5.6252,5.6113,5.5397,5.529,5.5551,5.4783,5.4649,5.4783,5.4489,5.4362,5.4362,5.4275,5.4249,5.4222,5.4035,5.4162,5.4308,5.3948,5.3841,5.3741,5.3334,5.3147,5.304,5.2866,5.2792,5.1697,4.7344,4.294,3.8521,3.4123,2.9745,2.6624,2.6488,3.2549,3.8097,3.939,4.5793,5.1195,5.2601,5.2792,5.2792,5.2792,5.2792,5.2792,5.2792,5.2692,5.076,4.6143,4.2904,3.8559,3.2509,3.0524,2.8165,2.4996,2.4726,2.4582,2.4438,2.4265,2.4165,2.4165,2.3944,2.3786,2.3705,2.3705,2.3705,4.3089,4.4089,4.4586,4.4839,4.3639,4.2213,4.1548,4.0228,3.9039,3.8584,3.8733,3.9003,3.9275,3.92,3.9646,4.1264,4.1819,4.2743,4.4765,4.7468,5.03,5.3179,5.7089,5.9666,5.9934,6.0659,6.1063,6.0957,6.0708,6.0491,6.0303,6.0197,6.0071,5.9991,5.9292,5.8785,5.8491,5.8219,5.8107,5.8107,5.8107,5.7871,5.747,5.747,5.7107,5.6546,5.6305,5.6252,0.0,5.5397,5.5391,5.5813,5.4863,5.4682,5.4964,5.4629,5.4501,5.4501,5.4501,5.4501,5.4468,5.4329,5.4308,5.4249,5.3681,5.3648,5.3661,5.3173,5.306,5.3006,5.2846,5.2792,5.212,4.9402,4.417,3.9044,3.6233,3.0986,2.7249,2.8708,3.4852,4.0299,4.1864,4.806,5.2792,5.2792,5.2792,5.2792,5.2792,5.2792,5.2792,5.2792,5.2792,5.1684,4.8855,4.5212,4.0723,3.521,3.1494,2.8231,2.5385,2.5051,2.4921,2.4832,2.459,2.4449,2.44,2.4121,2.3958,2.3931,2.3877,2.3922,0.0,3.9995,4.0588,4.086,4.0381,3.9619,3.8746,3.833,0.0,3.6755,3.7458,3.8201,3.8077,3.8642,3.9575,4.1089,4.1263,4.2139,4.4834,4.7199,5.0002,5.3594,5.6321,5.7983,5.8219,5.9987,6.1006,6.0735,6.0468,6.0303,6.0303,5.9987,5.9911,6.0223,5.9372,5.8785,5.8517,5.824,5.8107,5.8107,5.8102,5.7764,5.7203,5.7203,5.6861,5.6246,5.5691,5.575,5.6166,5.4996,5.507,5.5765,5.4863,5.4682,5.4964,5.4629,5.4501,5.4501,5.4501,5.4501,5.4501,5.4468,5.4275,5.3948,5.3367,5.318,5.3147,5.2872,5.2812,5.2826,5.2792,5.2812,5.2826,5.2792,4.614,3.9793,3.9793,3.2963,2.8104,3.2434,3.6809,4.1189,4.5559,4.9925,5.2792,5.2792,5.2792,5.2812,5.2846,5.2812,5.2812,5.2846,5.2812,5.2792,5.2792,4.4966,3.9727,3.9002,3.1017,2.6163,2.5728,2.541,2.5208,2.5194,2.4929,2.4718,2.4606,2.4302,2.4211,2.4327,2.4192,2.4297,3.3509,0.0,3.7012,3.7082,3.723,3.729,0.0,3.68,0.0,0.0,0.0,0.0,3.8453,3.8827,3.9646,4.1337,4.1967,4.2736,4.4111,4.8862,5.3498,5.6941,5.9314,6.0415,5.9845,6.0579,6.1063,6.1006,6.0575,6.0303,6.0303,5.9987,5.9751,5.9613,5.9163,5.8869,5.8811,5.8325,5.8107,5.8107,5.7823,5.7555,5.7203,5.7203,5.6775,5.6,5.6059,5.5905,5.5563,5.5077,5.5151,5.545,5.4762,5.4682,5.4964,5.4629,5.4501,5.4501,5.4501,5.4501,5.4468,5.4255,5.3848,5.3387,5.3253,5.318,5.3147,5.2872,5.2953,5.3066,5.2853,5.296,5.3047,5.2866,4.614,3.9793,3.9793,3.2963,2.8104,3.2434,3.6809,4.1189,4.5559,4.9925,5.2792,5.2792,5.2792,5.2872,5.3086,5.2933,5.2872,5.3073,5.2933,5.2792,5.2792,4.76,4.2929,3.9648,3.3964,2.9274,2.5997,2.5592,2.5355,2.5194,2.4929,2.4718,2.4606,2.4506,2.4492,2.4533,2.4492,2.4506,3.0413,3.2579,3.4804,3.5002,3.5344,3.5638,3.5674,3.5548,3.5577,0.0,0.0,0.0,3.841,3.9301,4.0361,4.1671,4.2804,4.4505,4.7311,5.1406,5.5305,5.8532,6.0143,6.0998,6.0895,6.1006,6.106,6.0926,6.0521,6.0197,5.9903,5.972,5.9484,5.9185,5.8891,5.8704,5.8704,5.8321,5.8107,5.8107,5.7769,5.7475,5.7181,5.7048,5.6588,5.5893,5.5878,5.5691,5.537,5.4943,5.513,5.5557,5.4816,5.4783,5.5151,5.4676,5.4501,5.4501,5.4501,5.4421,5.4255,5.3841,5.3467,5.3173,5.3047,5.3006,5.2986,5.2846,5.2986,5.3147,5.2872,5.2986,5.3147,5.2872,4.614,3.9793,3.9793,3.4522,3.107,3.5444,3.9793,4.417,4.8526,5.1235,5.2792,5.2792,5.2792,5.2853,5.2986,5.2879,5.2872,5.2986,5.2879,5.2792,5.2792,4.8637,4.4207,3.9871,3.334,2.855,2.6087,2.5796,2.5532,2.5214,2.5003,2.4826,2.4682,2.4634,2.4634,2.4682,2.4682,2.4723,2.8266,3.044,3.2656,3.3336,3.3748,3.4051,3.4247,3.4349,3.4551,0.0,0.0,0.0,3.8323,3.986,4.1276,4.2269,4.4013,4.695,5.1775,5.4015,5.616,5.8887,5.9907,6.0651,6.1293,6.1166,6.0926,6.0712,6.041,5.9987,5.9426,5.9399,5.9212,5.8865,5.8602,5.8486,5.8432,5.8214,5.8107,5.8107,5.7716,5.74,5.7181,5.6781,5.63,5.5813,5.5477,0.0,5.529,5.4735,5.4996,5.5679,5.4836,5.4816,5.5216,5.4682,5.4501,5.4501,5.4448,5.4255,5.3948,5.3367,5.3173,5.3093,5.2872,5.2792,5.2792,5.2792,5.304,5.318,5.2872,5.304,5.3193,5.2872,4.614,3.9793,3.9793,3.6381,3.4583,3.8962,4.3327,4.7688,5.2093,5.2846,5.2812,5.2853,5.2846,5.2846,5.2919,5.2872,5.2866,5.2979,5.2872,5.2812,5.2872,4.883,4.4663,4.0856,3.2411,2.7135,2.6156,2.5973,2.5708,2.5281,2.5146,2.5016,2.4913,2.4797,2.4791,2.4913,2.4913,2.4962,2.6044,2.695,2.8232,2.9893,3.0813,3.1495,3.2237,3.2711,3.3471,3.5107,3.6387,3.7599,3.8773,4.0225,4.183,4.3582,4.6382,4.9692,5.3578,5.5074,5.638,5.8107,5.988,6.0743,6.0125,6.0499,6.0735,6.0708,6.0201,5.9751,5.9421,5.9399,5.9132,5.8593,5.8517,5.8384,5.8138,5.8112,5.8107,5.8085,5.7524,5.723,5.7176,5.638,5.5798,5.5471,0.0,5.507,5.5044,5.4655,5.4756,5.5097,5.4676,5.4555,5.4629,5.4528,5.4501,5.4468,5.4249,5.3995,5.3694,5.3334,5.306,5.2853,5.2812,5.2792,5.2792,5.2792,5.3193,5.3487,5.2953,5.3213,5.3481,5.2933,4.614,3.9793,3.9793,3.6381,3.4583,3.8962,4.3327,4.7776,5.2357,5.296,5.2872,5.3093,5.2953,5.2979,5.3487,5.3106,5.3086,5.3841,5.3253,5.2879,5.3127,4.8929,4.5997,4.5333,3.7006,3.0295,2.6284,2.5973,2.5817,2.5627,2.5497,2.5416,2.5395,2.5381,2.5381,2.5395,2.5395,2.5388,2.475,2.5018,2.5353,2.6339,2.8104,2.9855,3.0669,0.0,0.0,0.0,3.7329,3.8655,4.0563,4.2051,4.387,4.6569,4.8805,5.1199,5.408,5.543,5.6722,5.8357,5.9617,6.0499,6.0735,6.0712,6.0628,6.0495,5.9911,5.9399,5.894,5.8914,5.8704,5.8299,5.8277,5.8138,5.7823,5.7823,5.7924,5.8085,5.7288,5.7,5.7197,5.646,5.5952,5.5658,0.0,5.5151,5.4964,5.4649,5.4682,5.4964,5.4629,5.4608,5.475,5.4415,5.4261,5.4228,5.3768,5.3547,5.3387,5.3253,5.304,5.2846,5.2979,5.2899,5.2846,5.2979,5.32,5.3334,5.2899,5.3093,5.3334,5.2899,4.7943,4.3307,4.3307,4.1734,4.0947,4.3118,4.7034,5.0774,5.3067,5.3374,5.332,5.3461,5.3374,5.338,5.3668,5.3461,5.338,5.3581,5.3253,5.3006,5.2986,5.1035,4.68,3.9733,3.5383,3.108,2.6556,2.6156,2.5973,2.5919,2.5708,2.5606,2.5606,2.5544,2.5544,2.5606,2.5674,2.5728,2.3811,2.3609,2.3234,2.3479,0.0,0.0,0.0,0.0,0.0,0.0,0.0,4.0143,4.2253,4.4089,4.6205,4.9049,5.095,5.2753,5.4647,5.6017,5.7315,5.8709,5.9506,6.0281,6.1212,6.0815,6.0392,6.0201,5.9613,5.9056,5.8517,5.8491,5.8325,5.7983,5.7978,5.7818,5.7502,5.7422,5.7577,5.7893,5.708,5.6786,5.6968,5.6359,5.5979,5.5765,5.535,5.5157,5.507,5.4655,5.4682,5.4964,5.4629,5.4655,5.4803,5.4275,5.4142,5.4088,5.3441,5.3253,5.328,5.3147,5.2979,5.2853,5.3127,5.3066,5.2953,5.3253,5.3334,5.3253,5.2979,5.3093,5.3247,5.2872,4.9462,4.63,4.63,4.6347,4.6445,4.6653,5.028,5.3407,5.3755,5.3721,5.3721,5.3781,5.3721,5.3721,5.3781,5.3721,5.3668,5.3527,5.3334,5.2695,5.1386,5.1275,4.614,3.4072,3.2253,3.0109,2.6741,2.6339,2.6203,2.6163,2.5972,2.5864,2.5864,2.5761,2.5761,2.5864,2.5972,2.6027,2.2982,2.2451,2.175,2.2139,0.0,0.0,0.0,0.0,0.0,0.0,0.0,0.0,0.0,4.5713,4.8335,4.9645,5.2609,5.5062,5.6038,5.74,5.8491,5.8869,5.9715,6.0303,6.0406,6.0071,5.9858,5.9858,5.9292,5.8811,5.8513,5.8491,5.8223,5.7662,5.7641,5.7502,5.723,5.6914,5.6946,5.7262,5.6887,5.6572,5.6353,5.5744,5.545,5.5397,5.4836,5.4869,5.5344,5.4735,5.4682,5.4964,5.4629,5.4522,5.4501,5.4222,5.4255,5.4341,5.3494,5.3387,5.3567,5.3006,5.2812,5.2853,5.3127,5.318,5.3253,5.3567,5.3668,5.3588,5.3253,5.3407,5.3507,5.2953,4.9462,4.63,4.63,4.6488,4.6673,4.6697,5.0472,5.3755,5.4035,5.3862,5.3781,5.4035,5.3862,5.3781,5.4055,5.3862,5.3888,5.4362,5.3667,5.1447,4.7124,4.6764,4.2925,3.3885,2.95,2.7056,2.6617,2.657,2.6502,2.6386,2.6373,2.6346,2.6346,2.6346,2.6346,2.6346,2.6373,2.6373,2.2881,2.2943,2.2942,2.2475,0.0,0.0,0.0,0.0,0.0,0.0,0.0,0.0,0.0,4.8143,4.9801,5.1178,5.356,5.5637,5.67,5.7956,5.8869,5.9185,5.9849,6.0303,6.0303,5.9991,5.9648,5.927,5.8869,5.8517,5.8272,5.8272,5.8031,5.7609,5.7587,5.7374,5.6893,5.6765,5.6679,5.6647,5.6492,5.6385,5.6278,5.5878,5.5584,5.537,5.497,5.4943,5.513,5.4662,5.4555,5.4676,5.4549,5.4501,5.4468,5.4195,5.4055,5.3915,5.3387,5.3173,5.3113,5.3066,5.2953,5.2892,5.338,5.338,5.3287,5.3808,5.3948,5.3841,5.3334,5.328,5.328,5.2879,5.1669,5.0597,5.0597,5.0827,5.1102,5.1255,5.273,5.4035,5.4308,5.4255,5.4228,5.4335,5.4255,5.4228,5.4335,5.4255,5.4222,5.4249,5.3808,5.2793,5.1039,4.5857,4.1281,3.7984,3.3409,2.9608,2.6836,2.6651,2.661,2.6644,2.6475,2.6441,2.6522,2.6441,2.6434,2.6522,2.6522,2.6577,2.4457,2.4555,2.4691,0.0,0.0,0.0,0.0,0.0,0.0,0.0,0.0,0.0,0.0,0.0,5.0757,5.2332,5.4415,5.6172,5.7181,5.817,5.8891,5.919,5.9693,6.0009,6.0009,5.9697,5.9297,5.8811,5.8517,5.8299,5.8107,5.8005,5.7796,5.7475,5.7288,5.6994,5.6572,5.6385,5.6252,5.6166,5.6166,5.6113,5.6006,5.5759,5.5492,5.5264,5.497,5.489,5.4964,5.4649,5.4448,5.4382,5.4468,5.4442,5.4335,5.4062,5.3895,5.3755,5.3253,5.3006,5.2953,5.304,5.3006,5.3006,5.3561,5.3594,5.3581,5.4088,5.4228,5.4121,5.3614,5.3474,5.3387,5.3006,5.3147,5.336,5.336,5.3594,5.3888,5.4062,5.4168,5.4261,5.4468,5.4501,5.4501,5.4501,5.4501,5.4501,5.4501,5.4501,5.4415,5.4142,5.3948,5.3237,5.1775,4.6119,4.1407,3.8625,3.535,3.1505,2.7041,2.6725,2.6719,2.6807,2.6624,2.657,2.6665,2.657,2.657,2.6665,2.6665,2.6719,2.788,2.7213,2.6754,0.0,0.0,0.0,0.0,0.0,0.0,0.0,0.0,4.8319,4.9521,5.0234,5.1196,5.294,5.5183,5.6925,5.7507,5.8117,5.8598,5.8869,5.919,5.9399,5.9399,5.9083,5.8767,5.8513,5.8272,5.8107,5.8107,5.7791,5.7475,5.7203,5.6615,5.63,5.6278,5.5691,5.5578,5.5893,5.5893,5.5712,5.5376,5.513,5.499,5.4984,5.4649,5.4682,5.4964,5.4649,5.4335,5.4142,5.4395,5.4335,5.4062,5.3801,5.3882,5.3975,5.3093,5.2979,5.3153,5.2879,5.2979,5.3253,5.3588,5.3888,5.4148,5.4421,5.4501,5.4442,5.4168,5.4088,5.3955,5.336,5.3461,5.3694,5.3694,5.3895,5.4088,5.4088,5.4335,5.4501,5.4501,5.4501,5.4501,5.4501,5.4501,5.4501,5.4501,5.4501,5.4415,5.4142,5.4088,5.2267,4.7673,4.7218,4.3438,3.4619,3.4036,3.1886,2.7184,2.6867,2.6807,2.6807,2.6807,2.6807,2.6807,2.6807,2.6807,2.6807,2.6807,2.6807,2.9067,2.9592,3.0382,3.0706,0.0,0.0,0.0,3.9839,0.0,0.0,5.0788,5.0956,5.175,5.2532,5.3287,5.4015,5.5771,5.7262,5.7871,5.8272,5.8517,5.8598,5.8869,5.8976,5.8785,5.8678,5.8513,5.824,5.8133,5.8005,5.7769,5.7662,5.7288,5.6594,5.638,5.6092,5.5664,5.5477,5.545,5.5551,5.5364,5.5204,5.513,5.5237,5.505,5.4649,5.4549,5.4549,5.4649,5.4549,5.4448,5.4362,5.4255,5.4282,5.4335,5.3882,5.3755,5.3755,5.3253,5.3006,5.2899,5.2846,5.2979,5.32,5.3334,5.3567,5.3868,5.4142,5.4228,5.4195,5.4121,5.4249,5.4249,5.3674,5.3781,5.3975,5.3975,5.4175,5.4382,5.4382,5.4442,5.4501,5.4501,5.4501,5.4501,5.4501,5.4501,5.4501,5.4501,5.4501,5.4468,5.4395,5.4382,5.3825,5.245,4.9453,4.5159,3.936,3.5946,3.1993,2.7205,2.6955,2.6902,2.6807,2.6807,2.6807,2.6807,2.6807,2.6807,2.6807,2.6807,2.6807,3.1441,3.2263,3.3405,3.4439,3.7218,3.999,4.111,0.0,0.0,0.0,5.3147,5.2846,5.3547,5.3981,5.4468,5.513,5.6439,5.7524,5.8026,5.824,5.8379,5.8491,5.8624,5.8678,5.8513,5.8491,5.8325,5.7924,5.7898,5.7711,5.7267,5.7155,5.6786,5.6166,5.5899,5.5664,5.5397,5.5163,5.513,5.5258,5.507,5.4937,5.4803,5.497,5.4842,5.4501,5.4501,5.4501,5.4501,5.4501,5.4442,5.4335,5.4148,5.4142,5.4135,5.3674,5.3487,5.3461,5.3147,5.2953,5.2792,5.2792,5.2979,5.318,5.318,5.3494,5.3888,5.4041,5.4168,5.4255,5.4255,5.4382,5.4395,5.3968,5.4062,5.4255,5.4255,5.4395,5.4501,5.4501,5.4608,5.4655,5.4528,5.4682,5.4836,5.4729,5.4682,5.4655,5.4522,5.4501,5.4501,5.4501,5.4501,5.4501,5.4501,5.2006,4.8534,4.405,3.9462,3.4798,3.0047,2.8076,2.703,2.6888,2.6922,2.6922,2.6888,2.6888,2.6861,2.6807,2.6807,2.6807,3.4571,3.5092,3.6074,3.9081,4.1304,4.3984,4.8686,4.7703,4.7459,5.3315,5.4189,5.4176,5.499,5.4949,5.5136,5.6198,5.708,5.7769,5.8053,5.8107,5.8192,5.8432,5.8464,5.8464,5.8464,5.8432,5.8197,5.7641,5.7561,5.7267,5.6685,5.6406,5.6113,5.5813,5.5284,5.5097,5.5323,5.4762,5.4655,5.4964,5.4964,5.4783,5.4501,5.4528,5.4528,5.4501,5.4501,5.4501,5.4501,5.4501,5.4335,5.4088,5.4088,5.3948,5.3668,5.3334,5.318,5.3153,5.2879,5.2792,5.2792,5.2792,5.2979,5.318,5.3173,5.3554,5.4035,5.4041,5.4249,5.4442,5.4501,5.4501,5.4442,5.4175,5.4335,5.4501,5.4501,5.4501,5.4501,5.4501,5.4777,5.489,5.4596,5.4996,5.5264,5.499,5.497,5.4883,5.4549,5.4528,5.4549,5.4549,5.4549,5.4549,5.4549,5.4522,5.258,4.8079,4.3592,3.9038,3.4388,2.9713,2.7166,2.703,2.7152,2.7152,2.703,2.703,2.6962,2.682,2.682,2.682,3.6477,3.7699,3.9452,4.2342,4.351,4.5299,5.0575,4.9756,4.9191,5.3905,5.5177,5.5599,5.6198,5.6658,5.6968,5.6994,5.7577,5.8026,5.8085,5.8107,5.8112,5.8187,5.8192,5.8192,5.8192,5.7956,5.7748,5.7609,5.716,5.6759,5.6385,5.6113,5.5759,5.5204,5.507,5.489,5.4682,5.4555,5.4549,5.4608,5.4608,5.4555,5.4522,5.4762,5.4756,5.4501,5.4501,5.4501,5.4501,5.4501,5.4335,5.4088,5.4088,5.3948,5.3668,5.3334,5.318,5.3153,5.2879,5.2792,5.2792,5.2792,5.2979,5.3153,5.2953,5.3127,5.3447,5.3701,5.3828,5.3968,5.4395,5.4501,5.4501,5.4442,5.4448,5.4501,5.4501,5.4501,5.4501,5.4501,5.4777,5.4984,5.489,5.499,5.497,5.4655,5.4836,5.4883,5.4549,5.4735,5.4883,5.4883,5.4883,5.4883,5.4883,5.4655,5.258,4.8079,4.3592,3.9038,3.4388,2.9837,2.735,2.7158,2.7185,2.7185,2.7166,2.7166,2.7098,2.6962,2.6962,2.6908,3.755,3.9325,4.183,4.6282,4.8117,4.9623,5.2716,5.2483,5.2371,5.5067,5.6107,5.6668,5.7074,5.7524,5.7791,5.763,5.7898,5.8107,5.8107,5.8107,5.8107,5.8107,5.7978,5.7871,5.7871,5.7422,5.7107,5.6994,5.6567,5.6113,5.5706,5.5551,5.5258,5.4783,5.4756,5.4676,5.4501,5.4501,5.4501,5.4501,5.4501,5.4501,5.4522,5.4676,5.4676,5.4501,5.4362,5.4329,5.4308,5.4168,5.4035,5.3888,5.3741,5.3574,5.3407,5.3113,5.3006,5.2986,5.2866,5.2792,5.2792,5.2792,5.2879,5.2979,5.2846,5.2986,5.326,5.3594,5.3781,5.3995,5.4395,5.4501,5.4468,5.4335,5.4415,5.4501,5.4501,5.4501,5.4501,5.4501,5.4869,5.5157,5.5023,5.5097,5.5151,5.4949,5.497,5.4883,5.4549,5.4655,5.4836,5.497,5.499,5.499,5.499,5.4857,5.3665,5.1159,4.4848,4.0098,3.7619,3.1192,2.758,2.735,2.7417,2.7417,2.735,2.735,2.722,2.7003,2.7003,2.6922,3.7889,4.0535,4.4088,4.9734,5.2472,5.3888,5.4395,5.4783,5.5284,5.6065,5.6674,5.7176,5.7507,5.7818,5.8026,5.8085,5.8107,5.8107,5.8107,5.8031,5.8005,5.8005,5.7689,5.7454,5.7454,5.6893,5.6465,5.6267,5.592,5.5519,5.5044,5.4964,5.4783,5.4522,5.4501,5.4468,5.4442,5.4442,5.4415,5.4362,5.4362,5.4362,5.4362,5.4362,5.4395,5.4421,5.4195,5.4062,5.4002,5.3781,5.3688,5.3588,5.338,5.32,5.3093,5.2933,5.2846,5.2792,5.2792,5.2792,5.2792,5.2792,5.2792,5.2792,5.2792,5.296,5.318,5.3514,5.3808,5.4088,5.4362,5.4468,5.4442,5.4228,5.4335,5.4501,5.4442,5.4468,5.4501,5.4501,5.4976,5.5344,5.5097,5.5344,5.5483,5.535,5.5177,5.4943,5.4549,5.4549,5.4682,5.4964,5.5044,5.507,5.507,5.507,5.4964,5.4662,4.703,4.2128,4.125,3.3378,2.855,2.7588,2.7669,2.7656,2.7534,2.7534,2.7384,2.7084,2.7036,2.6962,3.7195,4.1902,4.7259,5.0875,5.2933,5.4142,5.4442,5.4949,5.5471,5.5872,5.6193,5.6674,5.7454,5.7641,5.7769,5.8031,5.8107,5.8107,5.8107,5.7871,5.7667,5.7667,5.7181,5.6839,5.6839,5.6332,5.5979,5.5973,5.5445,5.5091,5.499,5.4729,5.4549,5.4501,5.4501,5.4395,5.4148,5.4148,5.4055,5.3801,5.3801,5.3801,5.3801,5.3801,5.3915,5.4148,5.4135,5.3975,5.3755,5.3715,5.3514,5.328,5.3561,5.33,5.2872,5.3066,5.2986,5.2792,5.2792,5.2792,5.2792,5.2792,5.2792,5.2792,5.2792,5.2846,5.2899,5.3193,5.3487,5.3808,5.4082,5.4335,5.4501,5.4448,5.4468,5.4442,5.4195,5.4335,5.4501,5.4501,5.4976,5.5376,5.535,5.5798,5.5931,5.5177,5.5237,5.5136,5.4555,5.4756,5.4964,5.499,5.5204,5.5364,5.5364,5.5364,5.5344,5.5269,5.0309,4.5661,4.1865,3.6442,3.1736,2.7924,2.7757,2.7689,2.7662,2.7662,2.7601,2.7425,2.7261,2.709,4.0134,4.3901,4.7669,5.1249,5.286,5.3748,5.4362,5.497,5.545,5.5584,5.5979,5.6513,5.724,5.739,5.7417,5.7577,5.7604,5.7604,5.7604,5.7293,5.7085,5.7085,5.6594,5.6252,5.6252,5.5712,5.5391,5.5391,5.497,5.4729,5.4729,5.4575,5.4442,5.4275,5.4275,5.4162,5.3888,5.3888,5.3808,5.3694,5.3507,5.3514,5.3694,5.3507,5.3594,5.3882,5.3681,5.3547,5.3407,5.3267,5.3106,5.2986,5.316,5.3026,5.2812,5.2933,5.2899,5.2792,5.2792,5.2792,5.2792,5.2792,5.2792,5.2792,5.2792,5.2792,5.2872,5.3127,5.3441,5.3721,5.3862,5.4189,5.4421,5.4135,5.4275,5.4442,5.4148,5.4329,5.4608,5.4949,5.5237,5.5504,5.5851,5.5985,5.5872,5.529,5.5183,5.4996,5.4549,5.4629,5.4783,5.497,5.5097,5.5258,5.5376,5.5397,5.5397,5.5397,5.115,4.6583,4.2008,3.9843,3.6606,3.2009,2.915,2.7702,2.7702,2.7702,2.7634,2.7493,2.7404,2.7274,4.1721,4.4376,4.6699,5.0376,5.1978,5.284,5.3661,5.4355,5.4869,5.505,5.5557,5.6113,5.6668,5.6914,5.7069,5.6989,5.7021,5.7069,5.6989,5.67,5.6492,5.6492,5.6006,5.5679,5.5679,5.5198,5.4863,5.4863,5.4569,5.4442,5.4501,5.4442,5.4329,5.4088,5.4088,5.3948,5.3588,5.3507,5.3481,5.3481,5.32,5.3247,5.3461,5.32,5.3247,5.3461,5.328,5.3153,5.3086,5.2872,5.2792,5.2792,5.2792,5.2792,5.2792,5.2792,5.2792,5.2792,5.2792,5.2792,5.2812,5.2872,5.2872,5.2812,5.2872,5.2899,5.2953,5.3147,5.3487,5.3801,5.3801,5.4162,5.4415,5.3995,5.4222,5.4442,5.4249,5.4362,5.4635,5.5062,5.529,5.5537,5.5985,5.6027,5.5893,5.5578,5.5284,5.499,5.4676,5.4549,5.4596,5.4857,5.4964,5.507,5.5284,5.545,5.5531,5.5531,5.2498,4.8594,4.3918,4.2682,4.046,3.6976,3.0877,2.8336,2.9507,2.8294,2.7648,2.7547,2.7506,2.7417,3.9463,4.1893,4.4446,4.7767,4.986,5.1276,5.1871,5.2692,5.3474,5.4041,5.4649,5.5151,5.545,5.6172,5.6652,5.638,5.6551,5.6652,5.638,5.6107,5.592,5.592,5.5412,5.5064,5.5064,5.4735,5.4528,5.4528,5.4275,5.4228,5.4501,5.4255,5.4088,5.4088,5.4088,5.3841,5.3234,5.2979,5.2866,5.2866,5.2846,5.2846,5.2866,5.2846,5.2846,5.2872,5.3093,5.3066,5.2826,5.2812,5.2792,5.2792,5.2792,5.2792,5.2792,5.2792,5.2792,5.2792,5.2792,5.2792,5.2846,5.3093,5.3006,5.2866,5.3093,5.3173,5.3173,5.318,5.3634,5.4082,5.4082,5.4282,5.4501,5.4468,5.4468,5.4501,5.4468,5.4501,5.4522,5.4549,5.5009,5.5397,5.545,5.5905,5.6193,5.5899,5.5584,5.5284,5.5011,5.4682,5.4522,5.4528,5.4803,5.5011,5.5023,5.5551,5.5887,5.5887,5.5657,5.3573,4.9185,4.4365,4.1812,4.1821,3.2643,3.0053,3.4425,2.9892,2.7702,2.7689,2.7561,2.7493,3.8441,4.0341,4.235,4.5592,4.7728,4.9254,5.0261,5.1463,5.2479,5.286,5.3741,5.4456,5.4563,5.5269,5.583,5.5744,5.5798,5.583,5.5744,5.5477,5.5258,5.5029,5.467,5.4435,5.4435,5.4162,5.4055,5.4228,5.3995,5.3888,5.3975,5.3888,5.3755,5.3547,5.3527,5.334,5.2953,5.2866,5.2792,5.2792,5.2792,5.2792,5.2792,5.2792,5.2792,5.2812,5.2899,5.2879,5.2792,5.2792,5.2792,5.2792,5.2792,5.2792,5.2792,5.2792,5.2792,5.2792,5.2792,5.2792,5.2812,5.2899,5.2872,5.2826,5.2899,5.2953,5.2979,5.3153,5.3494,5.3841,5.3841,5.4055,5.4249,5.4249,5.4362,5.4501,5.4501,5.4501,5.4608,5.4996,5.5243,5.5531,5.5905,5.6166,5.6214,5.592,5.5605,5.529,5.5044,5.4904,5.4735,5.4528,5.4783,5.507,5.5258,5.545,5.5744,5.6113,5.6166,5.4116,4.9571,5.0492,4.976,4.6892,4.3363,3.933,3.4805,3.2913,3.2004,3.2004,3.1941,3.1925,3.6048,3.7869,4.0167,4.3093,4.5061,4.669,4.8177,4.9566,5.0749,5.1425,5.2439,5.334,5.3741,5.4355,5.4883,5.5056,5.5183,5.5183,5.4976,5.4803,5.4569,5.4275,5.4062,5.3975,5.3975,5.3801,5.3775,5.3948,5.3701,5.3588,5.3694,5.3588,5.3441,5.32,5.3093,5.2979,5.2792,5.2792,5.2792,5.2792,5.2792,5.2792,5.2792,5.2792,5.2792,5.2792,5.2792,5.2792,5.2792,5.2792,5.2792,5.2792,5.2792,5.2792,5.2792,5.2792,5.2792,5.2792,5.2792,5.2792,5.2812,5.2899,5.2872,5.2826,5.2899,5.2933,5.2979,5.3147,5.3441,5.3694,5.3694,5.3828,5.3975,5.3975,5.4168,5.4362,5.4362,5.4442,5.4655,5.5177,5.5344,5.5557,5.6086,5.6166,5.616,5.6027,5.5584,5.5237,5.5151,5.4964,5.4783,5.4676,5.4863,5.5097,5.537,5.5498,5.5744,5.616,5.6252,5.4922,5.1835,5.318,5.3261,5.1753,4.8414,4.4321,3.9453,3.7696,3.6804,3.6804,3.6689,3.5848,0.0,0.0,0.0,4.0203,4.1918,4.3581,4.5629,4.7001,4.8239,4.9716,5.0749,5.1777,5.2913,5.3387,5.3808,5.4355,5.4735,5.4777,5.4168,5.4088,5.3981,5.3721,5.3694,5.3694,5.3694,5.3688,5.3688,5.3674,5.338,5.3334,5.3668,5.336,5.318,5.318,5.2953,5.2792,5.2792,5.2792,5.2792,5.2792,5.2792,5.2792,5.2792,5.2792,5.2792,5.2792,5.2792,5.2792,5.2792,5.2792,5.2792,5.2792,5.2792,5.2792,5.2792,5.2792,5.2792,5.2792,5.2792,5.2792,5.2846,5.3093,5.3006,5.2866,5.3093,5.318,5.318,5.318,5.3441,5.3694,5.3694,5.3694,5.3694,5.3694,5.3888,5.4088,5.4088,5.4329,5.4596,5.4937,5.5204,5.5498,5.5845,5.5893,5.5979,5.6267,5.5557,5.5097,5.535,5.4869,5.4655,5.4964,5.5011,5.5151,5.5376,5.5691,5.5893,5.5914,5.6166,5.63,5.63,5.2008,5.1732,5.6215,4.7021,4.4448,4.89,4.4105,4.1789,4.1789,4.146,3.8821,3.1313,0.0,0.0,0.0,0.0,0.0,4.3014,4.4713,4.6396,4.766,4.8783,4.9913,5.1089,5.175,5.2284,5.2833,5.3861,5.4522,5.4162,5.4088,5.3928,5.3387,5.3354,5.3354,5.3354,5.3167,5.3113,5.3334,5.3066,5.2953,5.304,5.296,5.2899,5.2899,5.2846,5.2792,5.2792,5.2792,5.2792,5.2792,5.2792,5.2792,5.2792,5.2792,5.2792,5.2792,5.2792,5.2792,5.2792,5.2792,5.2792,5.2792,5.2792,5.2792,5.2792,5.2792,5.2792,5.2792,5.2792,5.2792,5.2812,5.2879,5.2872,5.2812,5.2879,5.2899,5.296,5.3147,5.326,5.3354,5.3354,5.3514,5.3648,5.3387,5.3734,5.4088,5.4088,5.4329,5.4596,5.4937,5.507,5.5284,5.5813,5.5893,5.592,5.6,5.5584,5.5258,5.5151,5.5136,5.513,5.5011,5.5385,5.5679,5.578,5.5866,5.5994,5.6187,5.6273,5.63,5.63,5.5091,5.4985,5.6257,5.3658,5.2805,5.3913,4.865,4.6207,4.6452,4.6364,4.2025,0.0,0.0,0.0,3.6054,0.0,0.0,4.1229,4.2715,4.4249,4.5692,4.6796,4.7945,4.9424,5.036,5.1162,5.1845,5.2866,5.3581,5.3554,5.3654,5.3554,5.3073,5.304,5.304,5.304,5.2879,5.2872,5.304,5.2879,5.2792,5.2792,5.2792,5.2792,5.2792,5.2792,5.2792,5.2792,5.2792,5.2792,5.2792,5.2792,5.2792,5.2792,5.2792,5.2792,5.2792,5.2792,5.2712,5.2585,5.2746,5.2792,5.2792,5.2792,5.2792,5.2792,5.2792,5.2792,5.2792,5.2792,5.2792,5.2792,5.2792,5.2792,5.2792,5.2792,5.2792,5.2846,5.2986,5.304,5.304,5.304,5.3186,5.33,5.32,5.3574,5.3955,5.4082,5.4329,5.4596,5.4937,5.499,5.5151,5.5605,5.5599,5.5572,5.5679,5.529,5.5056,5.5157,5.5204,5.529,5.5519,5.5866,5.6107,5.6198,5.6246,5.6252,5.63,5.6385,5.6465,5.6465,5.6465,5.6465,5.6465,5.6267,5.592,5.5519,5.2454,5.1013,5.1046,4.9309,4.551,0.0,0.0,0.0,0.0,3.696,0.0,3.9935,4.0993,4.2111,4.3708,4.4793,4.5924,4.7669,4.8933,5.0028,5.0994,5.165,5.2165,5.2639,5.296,5.3047,5.2773,5.2785,5.2792,5.2792,5.2792,5.2792,5.2792,5.2792,5.2792,5.2792,5.2792,5.2792,5.2792,5.2792,5.2792,5.2792,5.2792,5.2792,5.2792,5.2792,5.2792,5.2792,5.2792,5.2792,5.2792,5.2792,5.2639,5.2379,5.2685,5.2785,5.2746,5.2792,5.2792,5.2792,5.2792,5.2792,5.2792,5.2792,5.2792,5.2792,5.2792,5.2792,5.2792,5.2792,5.2792,5.2792,5.2792,5.2792,5.2792,5.2792,5.2792,5.2872,5.3147,5.3461,5.3775,5.4055,5.4329,5.4575,5.4883,5.4943,5.5044,5.529,5.5157,5.507,5.5323,5.489,5.4756,5.529,5.5177,5.5364,5.6166,5.6273,5.6385,5.6652,5.6679,5.6599,5.6359,5.6599,5.6738,5.6685,5.6685,5.6685,5.6658,5.6113,5.5572,5.499,5.5264,5.5264,5.4908,5.1215,4.9078,0.0,0.0,0.0,0.0,0.0,0.0,3.8599,3.979,4.0978,4.1759,4.28,4.4008,4.5335,4.652,4.7651,4.8836,4.9673,5.0643,5.1891,5.2552,5.2766,5.2452,5.2639,5.2792,5.2792,5.2792,5.2792,5.2792,5.2792,5.2792,5.2792,5.2792,5.2792,5.2792,5.2792,5.2792,5.2792,5.2792,5.2792,5.2792,5.2792,5.2792,5.2792,5.2792,5.2792,5.2792,5.2792,5.2766,5.2692,5.2766,5.2639,5.2432,5.2685,5.2792,5.2792,5.2792,5.2792,5.2792,5.2792,5.2792,5.2792,5.2792,5.2792,5.2792,5.2792,5.2792,5.2792,5.2792,5.2792,5.2792,5.2792,5.2792,5.2872,5.3147,5.3461,5.3775,5.4055,5.4329,5.4522,5.4575,5.4596,5.4682,5.5023,5.5044,5.5023,5.507,5.497,5.4943,5.507,5.5237,5.5477,5.592,5.6166,5.6332,5.638,5.6572,5.6679,5.6631,5.6914,5.6973,5.6706,5.6685,5.6599,5.638,5.5798,5.5344,5.499,5.5264,5.5264,5.499,5.4645,5.2397,0.0,0.0,0.0,3.63,0.0,0.0,0.0,3.8866,3.9798,4.0504,4.1481,4.2576,4.3795,4.5067,4.6306,4.7339,4.8221,4.912,5.0039,5.1295,5.2151,5.2112,5.2245,5.2472,5.2766,5.2659,5.2639,5.2792,5.2792,5.2792,5.2792,5.2792,5.2712,5.2559,5.2559,5.2479,5.2365,5.2479,5.2559,5.2559,5.2712,5.2792,5.2792,5.2792,5.2792,5.2792,5.2792,5.2692,5.2559,5.2739,5.2585,5.2332,5.2666,5.2792,5.2792,5.2792,5.2792,5.2792,5.2792,5.2792,5.2792,5.2792,5.2792,5.2792,5.2792,5.2792,5.2792,5.2792,5.2792,5.2792,5.2792,5.2792,5.2899,5.3354,5.3588,5.3801,5.4222,5.4415,5.4501,5.4501,5.4501,5.4549,5.4729,5.4756,5.4756,5.4756,5.4883,5.5064,5.5177,5.5471,5.5798,5.6252,5.6439,5.6572,5.6733,5.6866,5.6968,5.6968,5.724,5.7262,5.6968,5.6968,5.6754,5.63,5.5691,5.5397,5.5465,5.5284,5.5183,5.5204,5.5679,5.4515,0.0,0.0,0.0,0.0,0.0,3.837,0.0,0.0,0.0,3.9783,4.0611,4.1572,4.271,4.4035,4.5284,4.6289,4.7063,4.7722,4.8088,4.9745,5.1055,5.149,5.167,5.1944,5.2498,5.2379,5.2452,5.2766,5.2746,5.2692,5.2692,5.2659,5.2498,5.2226,5.2226,5.2119,5.1891,5.2165,5.2306,5.2306,5.2639,5.2792,5.2792,5.2792,5.2792,5.2792,5.2792,5.2659,5.2413,5.2639,5.2539,5.2332,5.2666,5.2792,5.2792,5.2792,5.2792,5.2792,5.2792,5.2792,5.2792,5.2792,5.2792,5.2792,5.2792,5.2792,5.2792,5.2792,5.2792,5.2792,5.2792,5.2792,5.2953,5.3561,5.3694,5.3862,5.4382,5.4501,5.4501,5.4501,5.4501,5.4501,5.4501,5.4501,5.4501,5.4501,5.4783,5.5097,5.537,5.5685,5.6086,5.6572,5.6631,5.6733,5.6994,5.7123,5.7203,5.7203,5.7454,5.7475,5.7203,5.7096,5.6781,5.6246,5.5744,5.5584,5.5792,5.529,5.5183,5.5397,5.5685,5.5658,0.0,0.0,0.0,0.0,3.8909,0.0,0.0,0.0,3.9519,3.9626,0.0,4.1214,4.2122,0.0,0.0,4.5577,4.6129,4.66,4.717,4.8133,4.9139,5.0196,5.0776,5.1249,5.1609,5.2051,5.2452,5.2766,5.2532,5.2352,5.2352,5.2138,5.1971,5.1964,5.1964,5.1944,5.1891,5.2165,5.2306,5.2306,5.2639,5.2792,5.2792,5.2792,5.2792,5.2792,5.2792,5.2785,5.2712,5.2459,5.2332,5.2332,5.2666,5.2792,5.2792,5.2792,5.2792,5.2792,5.2792,5.2792,5.2792,5.2792,5.2792,5.2792,5.2792,5.2792,5.2792,5.2792,5.2792,5.2792,5.2792,5.2792,5.2953,5.3561,5.3694,5.3862,5.4382,5.4501,5.4501,5.4501,5.4501,5.4501,5.4501,5.4501,5.4501,5.4501,5.4783,5.5097,5.537,5.5685,5.6,5.63,5.6353,5.6359,5.6385,5.6887,5.7203,5.7203,5.7454,5.7475,5.7203,5.6695,5.6273,5.5952,5.5872,5.5712,5.5471,5.5376,5.537,5.5397,5.545,5.545,0.0,0.0,0.0,0.0,0.0,0.0,3.9048,0.0,3.9599,0.0,0.0,0.0,0.0,0.0,0.0,0.0,4.522,4.5638,4.6209,4.676,4.7669,4.9155,4.9868,5.0509,5.1162,5.1738,5.2131,5.2265,5.2272,5.2226,5.2078,5.1951,5.1837,5.167,5.167,5.157,5.1364,5.1845,5.1978,5.1837,5.2272,5.2432,5.2284,5.2452,5.2425,5.2284,5.2452,5.2425,5.2265,5.2131,5.2058,5.2078,5.2238,5.2284,5.2292,5.2452,5.2532,5.2539,5.2739,5.2792,5.2792,5.2792,5.2792,5.2792,5.2792,5.2792,5.2792,5.2792,5.2792,5.2792,5.2792,5.2792,5.2899,5.33,5.3567,5.3801,5.4189,5.4395,5.4501,5.4501,5.4501,5.4501,5.4501,5.4501,5.4501,5.4501,5.4922,5.5264,5.5376,5.5845,5.6187,5.6278,5.63,5.6359,5.6524,5.6935,5.7283,5.74,5.7395,5.723,5.6914,5.6513,5.6267,5.6113,5.5994,5.5899,5.5931,5.5563,5.5498,5.5685,5.5477,5.5311,4.311,0.0,0.0,0.0,0.0,0.0,0.0,0.0,0.0,0.0,0.0,0.0,0.0,0.0,4.3484,4.4286,0.0,4.4927,4.5407,4.5825,4.6654,4.8239,4.904,4.9815,5.0669,5.115,5.1471,5.165,5.1764,5.1764,5.1658,5.165,5.1551,5.1376,5.1456,5.1349,5.1017,5.1577,5.1777,5.1502,5.2051,5.2146,5.1891,5.2112,5.2065,5.1891,5.2131,5.2078,5.1871,5.1837,5.1784,5.1777,5.1677,5.165,5.173,5.2138,5.2306,5.2352,5.2685,5.2792,5.2792,5.2792,5.2792,5.2792,5.2792,5.2792,5.2792,5.2792,5.2792,5.2792,5.2792,5.2792,5.2872,5.3147,5.3461,5.3775,5.4055,5.4329,5.4501,5.4501,5.4501,5.4501,5.4501,5.4501,5.4501,5.4501,5.4949,5.5323,5.5376,5.5771,5.6086,5.6187,5.6193,5.6273,5.6465,5.6839,5.7155,5.7347,5.7181,5.6914,5.6599,5.6385,5.63,5.63,5.6027,5.6,5.6193,5.5664,5.5477,5.5652,5.5391,5.5183,0.0,0.0,0.0,4.1786,0.0,0.0,0.0,0.0,4.1267,0.0,0.0,0.0,0.0,0.0,0.0,0.0,0.0,0.0,0.0,4.5398,4.6174,4.7419,4.831,4.9155,5.0036,5.0143,5.041,5.0997,5.0822,5.0749,5.1036,5.1024,5.1024,5.1036,5.133,5.1349,5.1017,5.1577,5.1777,5.1502,5.2051,5.2146,5.1891,5.1891,5.1891,5.1891,5.1891,5.1891,5.1883,5.1624,5.1502,5.1483,5.115,5.1024,5.1131,5.1978,5.2306,5.2352,5.2685,5.2792,5.2792,5.2792,5.2792,5.2792,5.2792,5.2792,5.2792,5.2792,5.2792,5.2792,5.2792,5.2792,5.2872,5.3147,5.3461,5.3775,5.4055,5.4329,5.4501,5.4501,5.4501,5.4501,5.4501,5.4501,5.4501,5.4501,5.4783,5.5097,5.537,5.5397,5.5557,5.5872,5.5914,5.5914,5.592,5.6406,5.6706,5.6738,5.6738,5.6578,5.6332,5.63,5.63,5.63,5.6027,5.5893,5.5914,5.5578,5.5264,5.5044,5.5023,5.5011,0.0,0.0,4.6048,4.4376,0.0,0.0,0.0,0.0,0.0,0.0,0.0,0.0,0.0,0.0,0.0,0.0,0.0,4.4232,0.0,4.5087,4.5648,4.6235,4.7268,4.8212,4.8925,4.9334,4.9665,4.986,4.9948,4.986,4.9548,5.0108,5.0311,5.0154,5.0822,5.1123,5.1017,5.1577,5.165,5.1169,5.1757,5.1764,5.133,5.1543,5.149,5.133,5.1543,5.149,5.131,5.1223,5.1169,5.115,5.1043,5.1017,5.107,5.1764,5.2051,5.2131,5.2605,5.2792,5.2792,5.2792,5.2792,5.2792,5.2792,5.2792,5.2792,5.2792,5.2792,5.2792,5.2792,5.2792,5.2826,5.2899,5.3167,5.3461,5.3781,5.4055,5.4282,5.4468,5.4501,5.4501,5.4501,5.4501,5.4501,5.4501,5.4783,5.5044,5.513,5.529,5.545,5.5557,5.5765,5.5813,5.5584,5.6092,5.6492,5.6685,5.6546,5.6321,5.6027,5.5798,5.5691,5.5691,5.5605,5.5578,5.5578,5.5471,5.535,5.5264,5.507,5.4797,4.7357,4.7669,0.0,4.6422,4.6235,0.0,4.3651,0.0,0.0,0.0,0.0,0.0,0.0,0.0,0.0,0.0,0.0,0.0,0.0,4.4723,4.5104,4.539,4.6377,4.7268,4.7874,4.8275,4.856,4.8649,4.8836,4.88,4.8506,4.9334,4.9761,4.9708,5.0555,5.1017,5.1017,5.149,5.149,5.1017,5.149,5.1471,5.1017,5.1223,5.1196,5.1017,5.1242,5.1196,5.1017,5.1017,5.1017,5.1017,5.1017,5.107,5.1249,5.173,5.2051,5.2284,5.2678,5.2792,5.2792,5.2792,5.2792,5.2792,5.2792,5.2792,5.2872,5.328,5.3093,5.2879,5.33,5.3093,5.2792,5.2792,5.2986,5.328,5.3614,5.3895,5.4168,5.4442,5.4501,5.4501,5.4501,5.4501,5.4501,5.4501,5.4783,5.5044,5.5151,5.529,5.5397,5.5397,5.5584,5.5637,5.5397,5.575,5.6044,5.6231,5.6086,5.5899,5.5712,5.5504,5.5584,5.6038,5.5531,5.5471,5.5857,5.5344,5.5077,5.5077,5.489,5.4489]}]]